[[{"header":{"parameterUnit":"m.s-1","parameterCategory":1,"la1":30.6,"la2":28.766,"lo1":-90.7593,"lo2":-88.6598,"dx":0.0162,"dy":0.0183,"nx":116,"ny":114,"refTime":"2023-01-31T06:00:00:Z","depth":0,"parameterNumber":2,"parameterNumberName":"U-component_of_WINDS"},"data":[0.0,0.0,0.0,0.0,0.0,0.0,0.0,0.0,0.0,0.0,0.0,0.0,0.0,0.0,0.0,0.0,0.0,0.0,0.0,0.0,0.0,0.0,0.0,0.0,0.0,0.0,0.0,0.0,0.0,0.0,0.0,0.0,0.0,0.0,0.0,0.0,0.0,0.0,0.0,0.0,0.0,0.0,0.0,0.0,0.0,0.0,0.0,0.0,0.0,0.0,0.0,0.0,0.0,0.0,0.0,0.0,0.0,0.0,0.0,0.0,0.0,0.0,0.0,0.0,0.0,0.0,0.0,0.0,0.0,0.0,0.0,0.0,0.0,0.0,0.0,0.0,0.0,0.0,0.0,0.0,0.0,0.0,0.0,0.0,0.0,0.0,0.0,0.0,0.0,0.0,0.0,0.0,0.0,0.0,0.0,0.0,0.0,0.0,0.0,0.0,0.0,0.0,0.0,0.0,0.0,0.0,0.0,0.0,0.0,0.0,0.0,0.0,0.0,0.0,0.0,0.0,0.0,0.0,0.0,0.0,0.0,0.0,0.0,0.0,0.0,0.0,0.0,0.0,0.0,0.0,0.0,0.0,0.0,0.0,0.0,0.0,0.0,0.0,0.0,0.0,0.0,0.0,0.0,0.0,0.0,0.0,0.0,0.0,0.0,0.0,0.0,0.0,0.0,0.0,0.0,0.0,0.0,0.0,0.0,0.0,0.0,0.0,0.0,0.0,0.0,0.0,0.0,0.0,0.0,0.0,0.0,0.0,0.0,0.0,0.0,0.0,0.0,0.0,0.0,0.0,0.0,0.0,0.0,0.0,0.0,0.0,0.0,0.0,0.0,0.0,0.0,0.0,0.0,0.0,0.0,0.0,0.0,0.0,0.0,0.0,0.0,0.0,0.0,0.0,0.0,0.0,0.0,0.0,0.0,0.0,0.0,0.0,0.0,0.0,0.0,0.0,0.0,0.0,0.0,0.0,0.0,0.0,0.0,0.0,0.0,0.0,0.0,0.0,0.0,0.0,0.0,0.0,0.0,0.0,0.0,0.0,0.0,0.0,0.0,0.0,0.0,0.0,0.0,0.0,0.0,0.0,0.0,0.0,0.0,0.0,0.0,0.0,0.0,0.0,0.0,0.0,0.0,0.0,0.0,0.0,0.0,0.0,0.0,0.0,0.0,0.0,0.0,0.0,0.0,0.0,0.0,0.0,0.0,0.0,0.0,0.0,0.0,0.0,0.0,0.0,0.0,0.0,0.0,0.0,0.0,0.0,0.0,0.0,0.0,0.0,0.0,0.0,0.0,0.0,0.0,0.0,0.0,0.0,0.0,0.0,0.0,0.0,0.0,0.0,0.0,0.0,0.0,0.0,0.0,0.0,0.0,0.0,0.0,0.0,0.0,0.0,0.0,0.0,0.0,0.0,0.0,0.0,0.0,0.0,0.0,0.0,0.0,0.0,0.0,0.0,0.0,0.0,0.0,0.0,0.0,0.0,0.0,0.0,0.0,0.0,0.0,0.0,0.0,0.0,0.0,0.0,0.0,0.0,0.0,0.0,0.0,0.0,0.0,0.0,0.0,0.0,0.0,0.0,0.0,0.0,0.0,0.0,0.0,0.0,0.0,0.0,0.0,0.0,0.0,0.0,0.0,0.0,0.0,0.0,0.0,0.0,0.0,0.0,0.0,0.0,0.0,0.0,0.0,0.0,0.0,0.0,0.0,0.0,0.0,0.0,0.0,0.0,0.0,0.0,0.0,0.0,0.0,0.0,0.0,0.0,0.0,0.0,0.0,0.0,0.0,0.0,0.0,0.0,0.0,0.0,0.0,0.0,0.0,0.0,0.0,0.0,0.0,0.0,0.0,0.0,0.0,0.0,0.0,0.0,0.0,0.0,0.0,0.0,0.0,0.0,0.0,0.0,0.0,0.0,0.0,0.0,0.0,0.0,0.0,0.0,0.0,0.0,0.0,0.0,0.0,0.0,0.0,0.0,0.0,0.0,0.0,0.0,0.0,0.0,0.0,0.0,0.0,0.0,0.0,0.0,0.0,0.0,0.0,0.0,0.0,0.0,0.0,0.0,0.0,0.0,0.0,0.0,0.0,0.0,0.0,0.0,0.0,0.0,0.0,0.0,0.0,0.0,0.0,0.0,0.0,0.0,0.0,0.0,0.0,0.0,0.0,0.0,0.0,0.0,0.0,0.0,0.0,0.0,0.0,0.0,0.0,0.0,0.0,0.0,0.0,0.0,0.0,0.0,0.0,0.0,0.0,0.0,0.0,0.0,0.0,0.0,0.0,0.0,0.0,0.0,0.0,0.0,0.0,0.0,0.0,0.0,0.0,0.0,0.0,0.0,0.0,0.0,0.0,0.0,0.0,0.0,0.0,0.0,0.0,0.0,0.0,0.0,0.0,0.0,0.0,0.0,0.0,0.0,0.0,0.0,0.0,0.0,0.0,0.0,0.0,0.0,0.0,0.0,0.0,0.0,0.0,0.0,0.0,0.0,0.0,0.0,0.0,0.0,0.0,0.0,0.0,0.0,0.0,0.0,0.0,0.0,0.0,0.0,0.0,0.0,0.0,0.0,0.0,0.0,0.0,0.0,0.0,0.0,0.0,0.0,0.0,0.0,0.0,0.0,0.0,0.0,0.0,0.0,0.0,0.0,0.0,0.0,0.0,0.0,0.0,0.0,0.0,0.0,0.0,0.0,0.0,0.0,0.0,0.0,0.0,0.0,0.0,0.0,0.0,0.0,0.0,0.0,0.0,0.0,0.0,0.0,0.0,0.0,0.0,0.0,0.0,0.0,0.0,0.0,0.0,0.0,0.0,0.0,0.0,0.0,0.0,0.0,0.0,0.0,0.0,0.0,0.0,0.0,0.0,0.0,0.0,0.0,0.0,0.0,0.0,0.0,0.0,0.0,0.0,0.0,0.0,0.0,0.0,0.0,0.0,0.0,0.0,0.0,0.0,0.0,0.0,0.0,0.0,0.0,0.0,0.0,0.0,0.0,0.0,0.0,0.0,0.0,0.0,0.0,0.0,0.0,0.0,0.0,0.0,0.0,0.0,0.0,0.0,0.0,0.0,0.0,0.0,0.0,0.0,0.0,0.0,0.0,0.0,0.0,0.0,0.0,0.0,0.0,0.0,0.0,0.0,0.0,0.0,0.0,0.0,0.0,0.0,0.0,0.0,0.0,0.0,0.0,0.0,0.0,0.0,0.0,0.0,0.0,0.0,0.0,0.0,0.0,0.0,0.0,0.0,0.0,0.0,0.0,0.0,0.0,0.0,0.0,0.0,0.0,0.0,0.0,0.0,0.0,0.0,0.0,0.0,0.0,0.0,0.0,0.0,0.0,0.0,0.0,0.0,0.0,0.0,0.0,0.0,0.0,0.0,0.0,0.0,0.0,0.0,0.0,0.0,0.0,0.0,0.0,0.0,0.0,0.0,0.0,0.0,0.0,0.0,0.0,0.0,0.0,0.0,0.0,0.0,0.0,0.0,0.0,0.0,0.0,0.0,0.0,0.0,0.0,0.0,0.0,0.0,0.0,0.0,0.0,0.0,0.0,0.0,0.0,0.0,0.0,0.0,0.0,0.0,0.0,0.0,0.0,0.0,0.0,0.0,0.0,0.0,0.0,0.0,0.0,0.0,0.0,0.0,0.0,0.0,0.0,0.0,0.0,0.0,0.0,0.0,0.0,0.0,0.0,0.0,0.0,0.0,0.0,0.0,0.0,0.0,0.0,0.0,0.0,0.0,0.0,0.0,0.0,0.0,0.0,0.0,0.0,0.0,0.0,0.0,0.0,0.0,0.0,0.0,0.0,0.0,0.0,0.0,0.0,0.0,0.0,0.0,0.0,0.0,0.0,0.0,0.0,0.0,0.0,0.0,0.0,0.0,0.0,0.0,0.0,0.0,0.0,0.0,0.0,0.0,0.0,0.0,0.0,0.0,0.0,0.0,0.0,0.0,0.0,0.0,0.0,0.0,0.0,0.0,0.0,0.0,0.0,0.0,0.0,0.0,0.0,0.0,0.0,0.0,0.0,0.0,0.0,0.0,0.0,0.0,0.0,0.0,0.0,0.0,0.0,0.0,0.0,0.0,0.0,0.0,0.0,0.0,0.0,0.0,0.0,0.0,0.0,0.0,0.0,0.0,0.0,0.0,0.0,0.0,0.0,0.0,0.0,0.0,0.0,0.0,0.0,0.0,0.0,0.0,0.0,0.0,0.0,0.0,0.0,0.0,0.0,0.0,0.0,0.0,0.0,0.0,0.0,0.0,0.0,0.0,0.0,0.0,0.0,0.0,0.0,0.0,0.0,0.0,0.0,0.0,0.0,0.0,0.0,0.0,0.0,0.0,0.0,0.0,0.0,0.0,0.0,0.0,0.0,0.0,0.0,0.0,0.0,0.0,0.0,0.0,0.0,0.0,0.0,0.0,0.0,0.0,0.0,0.0,0.0,0.0,0.0,0.0,0.0,0.0,0.0,0.0,0.0,0.0,0.0,0.0,0.0,0.0,0.0,0.0,0.0,0.0,0.0,0.0,0.0,0.0,0.0,0.0,0.0,0.0,0.0,0.0,0.0,0.0,0.0,0.0,0.0,0.0,0.0,0.0,0.0,0.0,0.0,0.0,0.0,0.0,0.0,0.0,0.0,0.0,0.0,0.0,0.0,0.0,0.0,0.0,0.0,0.0,0.0,0.0,0.0,0.0,0.0,0.0,0.0,0.0,0.0,0.0,0.0,0.0,0.0,0.0,0.0,0.0,0.0,0.0,0.0,0.0,0.0,0.0,0.0,0.0,0.0,0.0,0.0,0.0,0.0,0.0,0.0,0.0,0.0,0.0,0.0,0.0,0.0,0.0,0.0,0.0,0.0,0.0,0.0,0.0,0.0,0.0,0.0,0.0,0.0,0.0,0.0,0.0,0.0,0.0,0.0,0.0,0.0,0.0,0.0,0.0,0.0,0.0,0.0,0.0,0.0,0.0,0.0,0.0,0.0,0.0,0.0,0.0,0.0,0.0,0.0,0.0,0.0,0.0,0.0,0.0,0.0,0.0,0.0,0.0,0.0,0.0,0.0,0.0,0.0,0.0,0.0,0.0,0.0,0.0,0.0,0.0,0.0,0.0,0.0,0.0,0.0,0.0,0.0,0.0,0.0,0.0,0.0,0.0,0.0,0.0,0.0,0.0,0.0,0.0,0.0,0.0,0.0,0.0,0.0,0.0,0.0,0.0,0.0,0.0,0.0,0.0,0.0,0.0,0.0,0.0,0.0,0.0,0.0,0.0,0.0,0.0,0.0,0.0,0.0,0.0,0.0,0.0,0.0,0.0,0.0,0.0,0.0,0.0,0.0,0.0,0.0,0.0,0.0,0.0,0.0,0.0,0.0,0.0,0.0,0.0,0.0,0.0,0.0,0.0,0.0,0.0,0.0,0.0,0.0,0.0,0.0,0.0,0.0,0.0,0.0,0.0,0.0,0.0,0.0,0.0,0.0,0.0,0.0,0.0,0.0,0.0,0.0,0.0,0.0,0.0,0.0,0.0,0.0,0.0,0.0,0.0,0.0,0.0,0.0,0.0,0.0,0.0,0.0,0.0,0.0,0.0,0.0,0.0,0.0,0.0,0.0,0.0,0.0,0.0,0.0,0.0,0.0,0.0,0.0,0.0,0.0,0.0,0.0,0.0,0.0,0.0,0.0,0.0,0.0,0.0,0.0,0.0,0.0,0.0,0.0,0.0,0.0,0.0,0.0,0.0,0.0,0.0,0.0,0.0,0.0,0.0,0.0,0.0,0.0,0.0,0.0,0.0,0.0,0.0,0.0,0.0,0.0,0.0,0.0,0.0,0.0,0.0,0.0,0.0,0.0,0.0,0.0,0.0,0.0,0.0,0.0,0.0,0.0,0.0,0.0,0.0,0.0,0.0,0.0,0.0,0.0,0.0,0.0,0.0,0.0,0.0,0.0,0.0,0.0,0.0,0.0,0.0,0.0,0.0,0.0,0.0,0.0,0.0,0.0,0.0,0.0,0.0,0.0,0.0,0.0,0.0,0.0,0.0,0.0,0.0,0.0,0.0,0.0,0.0,0.0,0.0,0.0,0.0,0.0,0.0,0.0,6.0888,0.0,0.0,0.0,0.0,0.0,0.0,0.0,0.0,0.0,0.0,0.0,0.0,0.0,0.0,0.0,0.0,0.0,0.0,0.0,0.0,0.0,0.0,0.0,0.0,0.0,0.0,0.0,0.0,0.0,0.0,0.0,0.0,0.0,0.0,0.0,0.0,0.0,0.0,0.0,0.0,0.0,0.0,0.0,0.0,0.0,0.0,0.0,0.0,0.0,0.0,0.0,0.0,0.0,0.0,0.0,0.0,0.0,0.0,0.0,0.0,0.0,0.0,0.0,0.0,0.0,0.0,0.0,0.0,0.0,0.0,0.0,0.0,0.0,0.0,0.0,0.0,0.0,0.0,0.0,0.0,0.0,0.0,0.0,0.0,0.0,0.0,0.0,0.0,0.0,0.0,0.0,0.0,0.0,0.0,0.0,0.0,0.0,0.0,0.0,0.0,0.0,0.0,0.0,0.0,0.0,0.0,0.0,0.0,0.0,0.0,0.0,0.0,0.0,0.0,0.0,0.0,6.181,0.0,0.0,0.0,0.0,0.0,0.0,0.0,0.0,0.0,0.0,0.0,0.0,0.0,0.0,0.0,0.0,0.0,0.0,0.0,0.0,0.0,0.0,0.0,0.0,0.0,0.0,0.0,0.0,0.0,0.0,0.0,0.0,0.0,0.0,0.0,0.0,0.0,0.0,0.0,0.0,0.0,0.0,0.0,0.0,0.0,0.0,0.0,0.0,0.0,0.0,0.0,0.0,0.0,0.0,0.0,0.0,0.0,0.0,0.0,0.0,0.0,0.0,0.0,0.0,0.0,0.0,0.0,0.0,0.0,0.0,0.0,0.0,0.0,0.0,0.0,0.0,0.0,0.0,0.0,0.0,0.0,0.0,0.0,0.0,0.0,0.0,0.0,0.0,0.0,0.0,0.0,0.0,0.0,0.0,0.0,0.0,0.0,0.0,0.0,0.0,0.0,0.0,0.0,0.0,0.0,0.0,0.0,0.0,6.0935,6.1451,6.2373,6.2235,6.2996,6.4315,6.31,6.2963,6.3627,0.0,0.0,0.0,0.0,0.0,0.0,0.0,0.0,0.0,0.0,0.0,0.0,0.0,0.0,0.0,0.0,0.0,0.0,0.0,0.0,0.0,0.0,0.0,0.0,0.0,0.0,0.0,0.0,0.0,0.0,0.0,0.0,0.0,0.0,0.0,0.0,0.0,0.0,0.0,0.0,0.0,0.0,0.0,0.0,0.0,0.0,0.0,0.0,0.0,0.0,0.0,0.0,0.0,0.0,0.0,0.0,0.0,0.0,0.0,0.0,0.0,0.0,0.0,0.0,0.0,0.0,0.0,0.0,0.0,0.0,0.0,0.0,0.0,0.0,0.0,0.0,0.0,0.0,0.0,0.0,0.0,0.0,0.0,0.0,0.0,0.0,0.0,5.8687,5.8687,0.0,0.0,0.0,0.0,0.0,0.0,0.0,0.0,0.0,0.0,0.0,0.0,0.0,5.9783,6.0479,6.0473,6.0794,6.1496,6.1496,6.231,6.3816,6.3797,6.4299,6.5131,6.4966,0.0,6.5009,6.5126,0.0,0.0,0.0,0.0,0.0,0.0,0.0,0.0,0.0,0.0,0.0,0.0,0.0,0.0,0.0,0.0,0.0,0.0,0.0,0.0,0.0,0.0,0.0,0.0,0.0,0.0,0.0,0.0,0.0,0.0,0.0,0.0,0.0,0.0,0.0,0.0,0.0,0.0,0.0,0.0,0.0,0.0,0.0,0.0,0.0,0.0,0.0,0.0,0.0,0.0,0.0,0.0,0.0,0.0,0.0,0.0,0.0,0.0,0.0,0.0,0.0,0.0,0.0,0.0,0.0,0.0,0.0,0.0,0.0,0.0,0.0,0.0,0.0,0.0,0.0,0.0,0.0,0.0,0.0,0.0,0.0,0.0,0.0,0.0,0.0,5.8635,5.8598,5.8598,5.8497,5.8454,0.0,0.0,0.0,0.0,0.0,0.0,0.0,0.0,0.0,6.0033,6.0033,6.0409,6.1164,6.1158,6.1796,6.2995,6.2995,6.3619,6.4787,6.4787,6.5228,6.5962,6.5962,6.6219,6.6623,6.6145,6.5995,6.6083,0.0,0.0,0.0,0.0,6.6659,6.6659,0.0,0.0,0.0,0.0,0.0,0.0,0.0,0.0,0.0,0.0,0.0,0.0,0.0,0.0,0.0,0.0,0.0,0.0,0.0,0.0,0.0,0.0,0.0,0.0,0.0,0.0,0.0,0.0,0.0,0.0,0.0,0.0,0.0,0.0,0.0,0.0,0.0,0.0,0.0,0.0,0.0,0.0,0.0,0.0,0.0,0.0,0.0,0.0,0.0,0.0,0.0,0.0,0.0,0.0,0.0,0.0,0.0,0.0,0.0,0.0,0.0,0.0,0.0,0.0,0.0,0.0,0.0,0.0,0.0,0.0,0.0,0.0,0.0,0.0,0.0,0.0,0.0,5.8535,5.8481,5.8481,5.8383,5.8366,0.0,0.0,0.0,0.0,0.0,0.0,5.9642,6.0136,6.0487,6.0713,6.0713,6.108,6.1887,6.2114,6.2885,6.4103,6.4316,6.4824,6.5625,6.5625,6.6035,6.6813,6.6813,6.7143,6.7664,6.7033,6.6813,6.6886,6.748,6.77,6.77,6.77,6.77,6.77,0.0,0.0,0.0,0.0,0.0,0.0,0.0,0.0,0.0,0.0,0.0,0.0,0.0,0.0,0.0,0.0,0.0,0.0,0.0,0.0,0.0,0.0,0.0,0.0,0.0,0.0,0.0,0.0,0.0,0.0,0.0,0.0,0.0,0.0,0.0,0.0,0.0,0.0,0.0,0.0,0.0,0.0,0.0,0.0,0.0,0.0,0.0,0.0,0.0,0.0,0.0,0.0,0.0,0.0,0.0,0.0,0.0,0.0,0.0,0.0,0.0,0.0,0.0,0.0,0.0,0.0,0.0,0.0,0.0,0.0,0.0,0.0,0.0,0.0,0.0,0.0,0.0,0.0,0.0,5.8404,5.8299,0.0,0.0,0.0,0.0,5.9331,5.9945,6.0346,6.0352,6.0382,6.075,6.1526,6.1526,6.1924,6.2719,6.3576,6.4029,6.4103,6.4861,6.5662,6.6439,6.6439,6.6886,6.7627,6.7627,6.7664,6.77,6.7664,6.7627,6.7627,6.7664,6.77,6.77,6.77,6.77,6.77,0.0,0.0,0.0,0.0,0.0,0.0,0.0,0.0,0.0,0.0,0.0,0.0,0.0,0.0,0.0,0.0,0.0,0.0,0.0,0.0,0.0,0.0,0.0,0.0,0.0,0.0,0.0,0.0,0.0,0.0,0.0,0.0,0.0,0.0,0.0,0.0,0.0,0.0,0.0,0.0,0.0,0.0,0.0,0.0,0.0,0.0,0.0,0.0,0.0,0.0,0.0,0.0,0.0,0.0,0.0,0.0,0.0,0.0,0.0,0.0,0.0,0.0,0.0,0.0,0.0,0.0,0.0,0.0,0.0,0.0,0.0,0.0,0.0,0.0,0.0,0.0,0.0,0.0,0.0,5.8282,5.8606,0.0,5.892,5.9543,5.9991,6.0044,6.0743,6.1153,6.1153,6.1661,6.2065,6.2358,6.2921,6.3362,6.3613,6.4457,6.5118,6.5638,6.5925,6.6476,6.7253,6.7253,6.7444,6.77,6.77,6.77,6.77,6.77,6.77,6.77,6.77,6.77,6.77,6.77,6.77,6.77,0.0,0.0,0.0,0.0,0.0,0.0,0.0,0.0,0.0,0.0,0.0,0.0,0.0,0.0,0.0,0.0,0.0,0.0,0.0,0.0,0.0,0.0,0.0,0.0,0.0,0.0,0.0,0.0,0.0,0.0,0.0,0.0,0.0,0.0,0.0,0.0,0.0,0.0,0.0,0.0,0.0,0.0,5.3222,0.0,0.0,0.0,0.0,0.0,0.0,0.0,0.0,0.0,0.0,0.0,0.0,0.0,0.0,0.0,0.0,0.0,0.0,0.0,0.0,0.0,0.0,0.0,0.0,0.0,0.0,0.0,0.0,0.0,0.0,0.0,0.0,0.0,0.0,0.0,5.8552,5.8552,5.9175,5.96,5.96,6.034,6.0786,6.0786,6.1557,6.1998,6.1998,6.2799,6.3239,6.3239,6.4053,6.4494,6.4494,6.5295,6.5962,6.6512,6.6776,6.718,6.77,6.77,6.77,6.77,6.77,6.77,6.77,6.77,6.77,6.77,6.77,6.77,6.77,6.77,6.77,6.77,0.0,0.0,0.0,0.0,0.0,0.0,0.0,0.0,0.0,0.0,0.0,0.0,0.0,0.0,0.0,0.0,0.0,0.0,0.0,0.0,0.0,0.0,0.0,0.0,0.0,0.0,0.0,0.0,0.0,0.0,0.0,0.0,0.0,0.0,0.0,0.0,0.0,0.0,0.0,0.0,0.0,0.0,5.4647,0.0,0.0,0.0,0.0,0.0,0.0,0.0,0.0,0.0,0.0,0.0,0.0,0.0,0.0,0.0,0.0,0.0,0.0,0.0,0.0,0.0,0.0,0.0,0.0,0.0,0.0,0.0,0.0,0.0,0.0,0.0,0.0,0.0,5.8143,5.8725,5.9227,5.9227,5.993,6.045,6.045,6.1153,6.1637,6.1637,6.2395,6.2829,6.2829,6.3637,6.412,6.4133,6.4915,6.5312,6.5331,6.6145,6.6586,6.6586,6.74,6.7774,6.7774,6.7774,6.7774,6.7774,6.7774,6.7774,6.7774,6.7774,6.7774,6.7774,6.7737,6.77,6.77,6.77,6.7737,6.7737,0.0,0.0,0.0,0.0,0.0,0.0,0.0,0.0,0.0,0.0,0.0,0.0,0.0,0.0,0.0,0.0,0.0,0.0,0.0,0.0,0.0,0.0,0.0,0.0,0.0,0.0,0.0,0.0,0.0,0.0,0.0,0.0,0.0,0.0,0.0,0.0,0.0,0.0,0.0,0.0,0.0,0.0,5.3546,0.0,0.0,0.0,0.0,0.0,0.0,0.0,0.0,0.0,0.0,0.0,0.0,0.0,0.0,0.0,0.0,0.0,0.0,0.0,0.0,0.0,0.0,0.0,0.0,0.0,0.0,0.0,0.0,0.0,0.0,0.0,0.0,5.9783,5.8976,5.9563,6.0083,6.0083,6.0786,6.1269,6.1269,6.1991,6.2469,6.2469,6.3246,6.3723,6.3723,6.4028,6.4425,6.4951,6.5241,6.5635,6.6176,6.7534,6.8231,6.8231,6.9052,6.9456,6.9456,6.9456,6.9456,6.9456,6.9456,6.9456,6.9456,6.9456,6.9456,6.9309,6.8178,6.77,6.77,6.77,6.8061,6.8641,0.0,0.0,0.0,0.0,0.0,0.0,0.0,0.0,0.0,0.0,0.0,0.0,0.0,0.0,0.0,0.0,0.0,0.0,0.0,0.0,0.0,0.0,0.0,0.0,0.0,0.0,0.0,0.0,0.0,0.0,0.0,0.0,0.0,0.0,0.0,0.0,0.0,0.0,0.0,0.0,0.0,0.0,5.4076,5.4736,5.5434,5.6127,5.6722,5.7235,5.7679,5.7927,0.0,0.0,0.0,0.0,0.0,0.0,0.0,0.0,0.0,0.0,0.0,0.0,0.0,0.0,0.0,0.0,0.0,0.0,0.0,0.0,0.0,0.0,0.0,0.0,6.0376,6.075,6.0266,6.0597,6.0896,6.0896,6.1594,6.2108,6.2108,6.2578,6.2867,6.2867,6.3419,6.3834,6.4121,6.4245,6.4766,6.5802,6.6228,6.6634,6.707,6.8635,6.9244,6.8938,6.9727,7.0117,7.0117,7.0117,7.0117,0.0,7.0117,7.0117,7.0117,7.0117,7.0117,0.0,0.0,0.0,0.0,0.0,6.9015,6.9486,0.0,0.0,0.0,0.0,0.0,0.0,0.0,0.0,0.0,0.0,0.0,0.0,0.0,0.0,0.0,0.0,0.0,0.0,0.0,0.0,0.0,0.0,0.0,0.0,0.0,0.0,0.0,0.0,0.0,0.0,0.0,0.0,0.0,0.0,0.0,0.0,0.0,0.0,0.0,0.0,0.0,0.0,5.5313,5.538,5.5766,5.6378,5.6919,5.7147,5.7272,5.7815,0.0,0.0,0.0,0.0,0.0,0.0,0.0,0.0,0.0,0.0,0.0,0.0,0.0,0.0,0.0,0.0,0.0,0.0,0.0,0.0,0.0,0.0,0.0,0.0,6.1227,6.1747,6.1747,6.1765,6.1746,6.1741,6.2376,6.2808,6.2808,6.2935,6.301,6.301,6.3213,6.3619,6.4303,0.0,0.0,0.0,0.0,6.7823,6.7887,6.9292,6.969,6.9146,6.9996,7.0414,7.052,7.0587,7.0624,7.0624,7.0624,7.0624,7.0624,7.0624,7.0624,7.0624,7.0227,7.0117,7.0117,7.0183,7.022,0.0,0.0,0.0,0.0,0.0,0.0,0.0,0.0,0.0,0.0,0.0,0.0,0.0,0.0,0.0,0.0,0.0,0.0,0.0,0.0,0.0,0.0,0.0,0.0,0.0,0.0,0.0,0.0,0.0,0.0,0.0,0.0,0.0,0.0,0.0,0.0,0.0,0.0,0.0,0.0,0.0,0.0,0.0,5.4745,5.5209,5.5766,5.6378,5.6919,5.7425,5.7832,5.7968,5.8002,5.8002,5.8002,0.0,0.0,0.0,0.0,0.0,0.0,0.0,0.0,0.0,0.0,0.0,0.0,0.0,0.0,0.0,0.0,0.0,0.0,0.0,0.0,6.1343,6.2034,6.2579,6.2579,6.2652,6.2708,6.2596,6.2785,6.2962,6.2962,6.3091,6.315,6.315,6.3785,6.4527,6.5279,6.5397,6.6125,6.7587,6.7295,6.736,6.7879,6.8846,6.9533,6.9994,0.0,0.0,7.3017,7.3663,7.3957,7.3957,7.3957,7.3957,7.3957,7.3957,7.3957,7.37,7.1101,7.0117,7.019,7.0837,7.1057,7.1167,0.0,0.0,0.0,0.0,0.0,0.0,0.0,0.0,0.0,0.0,0.0,0.0,0.0,0.0,0.0,0.0,0.0,0.0,0.0,0.0,0.0,0.0,0.0,0.0,0.0,0.0,0.0,0.0,0.0,0.0,0.0,0.0,0.0,0.0,0.0,0.0,0.0,0.0,0.0,0.0,0.0,0.0,5.4518,5.4826,5.5127,5.5455,5.6026,5.6652,5.7209,5.7456,5.7756,5.8002,5.8002,5.8002,5.8002,0.0,0.0,0.0,0.0,0.0,0.0,0.0,0.0,0.0,0.0,0.0,0.0,0.0,0.0,6.0523,6.0933,0.0,6.1747,6.2144,6.2542,6.2839,6.2877,6.294,6.2973,6.2907,6.3031,6.3118,6.3118,6.3234,6.3439,6.3812,6.428,6.5064,6.6198,6.596,6.6466,6.7886,6.8027,6.8216,6.8583,7.0088,7.0846,7.0846,7.2027,7.2792,7.3172,7.3967,7.4335,7.4358,7.4724,7.4903,7.4903,7.4903,7.4903,7.472,7.3112,7.2488,7.2562,7.2958,7.3105,7.3142,0.0,0.0,0.0,0.0,0.0,0.0,0.0,0.0,0.0,0.0,0.0,0.0,0.0,0.0,0.0,0.0,0.0,0.0,0.0,0.0,0.0,0.0,0.0,0.0,0.0,0.0,0.0,0.0,0.0,0.0,0.0,0.0,0.0,0.0,0.0,0.0,0.0,0.0,0.0,0.0,0.0,0.0,5.4486,5.4486,5.4565,5.4753,5.5224,5.578,5.6384,5.6932,5.7431,5.7838,5.7968,5.8002,5.8002,5.8002,5.8002,0.0,0.0,0.0,0.0,0.0,0.0,0.0,0.0,5.9563,5.9857,6.0487,6.0743,6.1074,6.1704,6.1814,6.2034,6.2721,6.2848,6.2897,6.3024,6.3041,6.3141,6.3278,6.326,6.3298,6.3433,6.3585,6.3965,6.4725,6.4865,6.5502,6.6849,6.6538,6.6932,6.8204,6.901,6.9449,6.9518,7.1258,7.1949,7.1514,7.2266,7.27,7.2861,7.3666,7.4016,7.4049,7.4824,7.5155,7.5162,7.5291,7.538,7.538,7.538,7.538,7.5344,7.5014,7.4903,7.4903,0.0,0.0,0.0,0.0,0.0,0.0,0.0,0.0,0.0,0.0,0.0,0.0,0.0,0.0,0.0,0.0,0.0,0.0,0.0,0.0,0.0,0.0,0.0,0.0,0.0,0.0,0.0,0.0,0.0,0.0,0.0,0.0,0.0,0.0,0.0,0.0,0.0,0.0,0.0,0.0,0.0,0.0,5.4486,5.4486,5.4826,5.5313,5.5387,5.578,5.6384,5.6932,5.7147,5.7278,5.7821,5.8002,5.8002,5.8002,0.0,5.8002,5.8002,5.8505,5.9086,5.9086,5.9606,6.0156,0.0,6.0823,6.138,6.1453,6.2028,6.2572,6.2646,6.2683,6.2739,6.294,6.2995,6.3039,6.3157,6.3297,6.3602,6.4245,6.3772,6.3625,6.4284,6.4483,6.4894,6.5664,6.5761,6.6131,6.6942,6.7556,6.8236,6.913,6.989,7.0254,7.0277,7.0528,7.0928,7.1505,7.2306,7.3039,7.3672,7.4503,7.4878,7.4923,7.5711,7.6058,7.6107,7.6747,7.7024,7.7024,7.7024,7.7024,7.6848,7.5417,7.4903,7.4903,0.0,0.0,0.0,0.0,0.0,0.0,0.0,0.0,0.0,0.0,0.0,0.0,0.0,0.0,0.0,0.0,0.0,0.0,0.0,0.0,0.0,0.0,0.0,0.0,0.0,0.0,0.0,0.0,0.0,0.0,0.0,0.0,0.0,0.0,0.0,0.0,0.0,0.0,0.0,0.0,0.0,0.0,5.4486,5.4486,5.4667,5.488,5.488,5.5505,0.0,0.0,5.7072,5.7685,5.7933,5.8002,5.8002,5.8002,5.8002,0.0,5.8578,5.9269,5.9893,5.9893,6.0156,6.0523,6.1006,6.138,6.1741,6.2212,6.2579,6.2939,6.3466,6.3221,6.3085,6.3606,6.3358,6.317,6.3314,6.3727,6.4192,6.4577,6.4775,6.4984,6.5296,6.5374,6.5713,6.6472,6.6955,6.7507,6.83,6.9025,6.9577,6.9932,7.0646,7.1025,7.1025,7.1508,7.1901,7.2193,7.2537,7.2868,7.3197,7.395,7.4576,7.5047,7.5844,7.6194,7.6253,7.7016,7.7281,7.7281,7.7281,7.7281,7.7208,7.6547,7.6298,7.6298,0.0,0.0,0.0,0.0,0.0,0.0,0.0,0.0,0.0,0.0,0.0,0.0,0.0,0.0,0.0,0.0,0.0,0.0,0.0,0.0,0.0,0.0,0.0,0.0,0.0,0.0,0.0,0.0,0.0,0.0,0.0,0.0,0.0,0.0,0.0,0.0,0.0,0.0,0.0,0.0,0.0,0.0,5.4486,5.4486,5.4486,5.4486,5.4486,5.5044,0.0,0.0,5.6711,5.7577,5.7714,5.7886,5.8033,5.8253,5.8474,5.8804,5.938,6.0114,6.075,6.075,6.089,6.1221,6.1814,6.1924,6.2108,6.2683,6.2976,6.3305,6.3701,6.3534,6.348,6.3902,6.3576,6.336,6.3711,6.4227,6.4763,6.5287,6.5851,6.6378,6.6792,6.6437,6.661,6.7541,6.8128,6.8783,6.9552,7.0301,7.0715,7.0715,7.1439,7.1819,7.1819,7.2416,7.2692,7.2692,7.2692,7.2692,7.2713,7.3448,7.4236,7.5015,7.5808,7.6177,7.6239,7.6998,7.7287,7.7287,7.7287,7.7287,7.7287,7.7287,7.7319,7.7281,0.0,0.0,0.0,0.0,0.0,0.0,0.0,0.0,0.0,0.0,0.0,0.0,0.0,0.0,0.0,0.0,0.0,0.0,0.0,5.0003,0.0,0.0,0.0,0.0,0.0,0.0,0.0,0.0,0.0,0.0,0.0,0.0,0.0,0.0,0.0,0.0,0.0,0.0,0.0,0.0,0.0,0.0,5.4486,5.4486,5.4486,5.4486,5.4486,0.0,0.0,0.0,5.5837,5.6445,5.697,5.7522,0.0,5.8939,5.971,0.0,6.0376,6.0933,6.1563,6.1563,6.2144,6.2719,6.2756,6.2756,6.2756,6.2793,6.3466,6.385,6.3146,6.365,6.3997,6.3492,6.3425,6.3685,6.4523,6.4672,6.5249,6.6748,6.6955,6.7541,0.0,6.7852,6.761,6.9104,6.9242,6.9587,7.0335,7.106,7.1474,7.1474,7.2243,7.2657,7.2657,7.2692,7.2692,7.2692,7.2692,7.2692,7.2726,7.3472,7.4207,7.4952,7.5744,7.6087,7.6157,7.6972,7.7294,7.7294,7.7294,7.7294,7.7294,7.7294,7.7281,7.7281,0.0,0.0,0.0,0.0,0.0,0.0,0.0,0.0,0.0,0.0,0.0,0.0,0.0,0.0,0.0,0.0,0.0,0.0,0.0,5.0192,5.0555,0.0,0.0,0.0,0.0,0.0,0.0,0.0,0.0,0.0,0.0,0.0,0.0,0.0,0.0,0.0,0.0,0.0,0.0,0.0,0.0,0.0,5.4486,5.4486,5.4486,5.4486,0.0,0.0,0.0,0.0,0.0,0.0,5.8019,0.0,0.0,5.9657,0.0,0.0,6.119,6.1777,6.2395,6.2395,6.2609,6.2793,6.2793,6.3239,6.3505,6.3033,6.3578,6.4132,6.395,6.3791,6.3763,6.4125,6.4226,6.4359,6.4672,6.5566,6.6437,6.6955,6.7886,0.0,0.0,0.0,0.0,6.9956,7.0473,7.0887,7.1129,7.1853,7.2312,7.2312,7.2554,7.2692,7.2692,7.2692,7.2933,7.3451,7.3947,7.4177,7.4177,7.4419,7.4684,7.4934,7.5732,7.6086,7.6147,7.6966,7.73,7.73,7.73,7.73,7.73,7.73,7.7313,7.7368,0.0,0.0,0.0,0.0,0.0,0.0,0.0,0.0,0.0,0.0,0.0,0.0,0.0,0.0,0.0,0.0,0.0,0.0,0.0,0.0,5.0927,0.0,0.0,0.0,0.0,0.0,0.0,0.0,0.0,0.0,0.0,0.0,0.0,0.0,0.0,0.0,0.0,0.0,0.0,0.0,0.0,0.0,5.4486,5.4486,5.4636,0.0,0.0,0.0,0.0,0.0,0.0,0.0,0.0,0.0,0.0,0.0,6.141,6.2034,6.2034,6.2395,6.2793,6.2793,6.2793,6.281,6.2862,6.3503,6.3914,6.322,6.3913,6.4505,6.4132,6.3913,6.4024,6.455,6.4657,6.4876,6.5428,6.661,6.7507,6.7783,6.8931,6.9794,0.0,0.0,0.0,7.0749,7.1232,7.1646,7.1922,7.2416,7.2692,7.2692,7.2968,7.3106,7.3106,7.3337,7.3705,7.4188,7.4684,7.5052,7.5339,7.5339,7.5477,7.5751,7.6266,7.6486,7.6517,7.7041,7.7254,7.7254,7.7254,7.7254,7.7254,7.7254,7.7254,7.7353,0.0,0.0,0.0,0.0,0.0,0.0,0.0,0.0,0.0,0.0,0.0,0.0,0.0,0.0,0.0,0.0,0.0,0.0,0.0,0.0,0.0,5.2168,5.2969,0.0,0.0,0.0,0.0,0.0,0.0,0.0,0.0,0.0,0.0,0.0,0.0,0.0,0.0,0.0,0.0,0.0,0.0,0.0,5.4486,5.4486,0.0,0.0,0.0,0.0,0.0,0.0,0.0,0.0,0.0,5.9904,6.1673,6.1673,6.2212,6.2793,6.2793,6.2774,6.2761,6.286,6.2847,6.2866,6.303,6.3673,6.4015,6.3338,6.4383,6.5018,6.3664,6.4024,6.4594,6.4687,6.4738,6.529,6.6851,6.7669,6.8473,6.9276,6.999,7.0715,7.1439,7.1543,0.0,7.1577,0.0,7.1888,7.2657,7.2726,7.2761,7.2761,7.3485,7.3854,7.3854,7.458,7.4949,7.4949,7.4983,7.5408,7.6177,7.6177,7.6546,7.7201,7.7201,7.7201,7.7201,7.7201,7.7201,7.7201,7.7201,7.7201,7.7201,7.7201,7.7235,7.7273,0.0,0.0,0.0,0.0,0.0,0.0,0.0,0.0,0.0,0.0,0.0,0.0,0.0,0.0,0.0,0.0,0.0,0.0,0.0,0.0,0.0,0.0,0.0,0.0,0.0,0.0,0.0,0.0,0.0,0.0,0.0,0.0,0.0,0.0,0.0,0.0,0.0,0.0,0.0,0.0,0.0,0.0,5.4486,0.0,0.0,0.0,0.0,0.0,0.0,0.0,5.8901,6.0511,6.0254,6.1223,6.2505,6.2505,6.2646,6.2793,6.2793,6.2464,6.2401,6.3481,6.3384,6.3176,6.3758,6.492,6.5396,6.3699,6.4523,6.5136,6.3788,6.3719,6.4046,6.4603,6.5196,6.6127,6.761,6.8507,6.9266,7.0025,7.0784,7.1301,7.1474,7.2026,0.0,0.0,7.2381,7.2485,7.2692,7.3209,7.352,7.352,7.4212,7.4615,7.4615,7.5408,7.5787,7.5787,7.6339,7.6718,7.6925,7.6925,7.7028,7.7201,7.7201,7.7201,7.7201,7.7201,7.7201,7.7201,7.7201,7.7201,7.7201,7.7201,7.7591,7.8108,0.0,0.0,0.0,0.0,0.0,0.0,0.0,0.0,0.0,0.0,0.0,0.0,0.0,0.0,0.0,0.0,0.0,0.0,0.0,0.0,0.0,0.0,0.0,0.0,0.0,0.0,0.0,0.0,0.0,0.0,0.0,0.0,0.0,0.0,0.0,0.0,0.0,0.0,0.0,0.0,0.0,0.0,0.0,0.0,0.0,0.0,0.0,0.0,0.0,5.9536,6.056,6.1624,6.1665,6.2206,6.2793,6.2793,6.2793,6.2793,6.2793,6.2834,6.3049,6.3879,6.409,6.4109,6.4266,6.517,6.5526,6.383,6.437,6.4935,6.421,6.4092,6.4437,6.5541,6.6093,6.693,6.8404,6.9301,7.007,7.0784,7.1543,7.2036,7.2036,7.245,7.283,0.0,7.3175,7.3175,7.3175,7.3878,7.4281,7.4281,7.5039,7.558,7.5925,7.6373,7.658,7.658,7.6994,7.7201,7.7201,7.7201,7.7373,7.7729,0.0,7.7902,7.8201,7.8201,7.8201,7.8201,7.8201,7.8201,7.8201,7.8201,7.8488,7.8867,0.0,0.0,0.0,0.0,0.0,0.0,0.0,0.0,0.0,0.0,0.0,0.0,0.0,0.0,0.0,0.0,0.0,0.0,0.0,0.0,0.0,0.0,0.0,0.0,0.0,0.0,0.0,0.0,0.0,0.0,0.0,0.0,0.0,0.0,0.0,0.0,0.0,0.0,0.0,0.0,0.0,0.0,0.0,0.0,0.0,0.0,0.0,0.0,0.0,0.0,6.1741,6.1887,6.2572,6.2793,6.2793,6.2793,6.2793,6.2829,6.2939,6.3452,6.405,6.4334,6.4882,6.5209,6.481,6.5202,6.5358,6.4113,6.4402,6.4874,6.4828,6.4847,6.5324,6.6782,6.6989,6.7576,6.9207,7.0001,7.0715,7.1577,7.2278,7.2726,7.283,7.2864,7.314,7.3888,7.4026,7.4061,7.3957,7.466,7.5087,7.519,7.5891,7.6546,7.7201,7.7201,7.7201,7.7201,7.7201,7.727,7.7373,7.7373,7.7798,7.8557,0.0,0.0,7.9488,7.9488,7.9488,7.9488,7.9488,7.9488,7.9488,7.9488,7.9557,7.966,0.0,0.0,0.0,0.0,0.0,0.0,0.0,0.0,0.0,0.0,0.0,0.0,0.0,0.0,0.0,0.0,0.0,0.0,0.0,0.0,0.0,0.0,0.0,0.0,0.0,0.0,0.0,0.0,0.0,0.0,0.0,0.0,0.0,0.0,0.0,0.0,0.0,0.0,0.0,0.0,0.0,0.0,0.0,0.0,0.0,0.0,0.0,0.0,0.0,0.0,6.2572,6.2615,6.2756,6.2793,6.2793,6.2793,6.2793,6.2976,6.3686,6.359,6.3714,6.56,6.5774,6.5618,6.6176,6.6821,6.6921,6.5542,6.5857,6.6249,6.5654,6.5625,6.5989,6.6851,6.6989,6.7748,6.9921,7.0301,7.0932,7.2347,7.2623,7.2933,7.3554,7.3623,7.3923,0.0,7.535,7.5419,7.4753,7.5442,7.6166,7.6787,7.6925,7.7063,7.7201,7.7201,7.7201,7.7201,7.7201,7.7557,7.8178,7.8178,7.8591,7.9316,7.9316,0.0,7.9488,7.9488,7.9488,7.9488,7.9488,7.9488,7.9488,7.9488,7.9902,8.0407,0.0,0.0,0.0,0.0,0.0,0.0,0.0,0.0,0.0,0.0,0.0,0.0,0.0,0.0,0.0,0.0,0.0,0.0,0.0,0.0,0.0,0.0,0.0,0.0,0.0,0.0,0.0,0.0,0.0,0.0,0.0,0.0,0.0,0.0,0.0,0.0,0.0,0.0,0.0,0.0,0.0,0.0,0.0,0.0,0.0,0.0,0.0,0.0,0.0,0.0,6.2793,6.2793,6.2793,6.2793,6.2793,6.2793,6.3129,6.3576,6.3986,6.4495,6.5131,6.6233,6.6582,6.6665,6.67,6.6961,6.6983,6.6348,6.6223,6.6377,6.6866,6.67,6.6713,6.7438,6.7576,6.8231,7.0128,7.0404,7.0956,7.2519,7.2692,7.3002,7.3727,7.3796,7.4268,7.5442,7.5891,7.5925,7.5546,7.6235,7.6822,7.7201,7.7201,7.7201,7.7201,7.7626,7.7833,7.7833,7.8212,7.8591,7.8971,7.8971,7.9385,8.0074,8.0074,0.0,8.0707,8.0707,8.0707,8.0707,8.0707,8.0707,8.0707,8.0707,8.0902,8.1212,0.0,0.0,0.0,0.0,0.0,0.0,0.0,0.0,0.0,0.0,0.0,0.0,0.0,0.0,0.0,0.0,0.0,0.0,0.0,0.0,0.0,0.0,0.0,0.0,0.0,0.0,0.0,5.4888,0.0,0.0,0.0,0.0,0.0,0.0,0.0,0.0,0.0,0.0,0.0,0.0,0.0,0.0,0.0,0.0,0.0,0.0,0.0,0.0,0.0,0.0,6.2793,6.2793,6.2793,6.2793,6.2829,6.3013,6.3576,6.417,6.4537,6.5528,6.6549,6.6703,6.7217,6.7542,6.7039,6.7041,6.7186,6.725,6.6814,6.6822,6.8064,6.7717,6.7438,6.8014,6.8083,6.8645,7.0163,7.0404,7.0956,7.2519,7.283,7.3244,7.3957,7.4199,7.4843,7.6246,7.635,7.635,7.635,7.6891,7.7201,7.7201,7.7373,7.7442,7.7442,7.8247,7.8626,7.8626,7.9212,7.9592,7.9729,7.9729,8.0143,8.0867,8.0867,0.0,0.0,8.181,8.181,8.181,8.181,8.181,8.181,8.181,8.181,8.181,0.0,0.0,0.0,0.0,0.0,0.0,0.0,0.0,0.0,0.0,0.0,0.0,0.0,0.0,0.0,0.0,0.0,0.0,0.0,0.0,0.0,0.0,0.0,0.0,0.0,0.0,0.0,5.6131,5.5607,0.0,0.0,0.0,0.0,0.0,0.0,0.0,0.0,0.0,0.0,0.0,0.0,0.0,0.0,0.0,0.0,0.0,0.0,0.0,6.0633,6.2242,6.2793,6.2793,6.2793,6.2793,6.2976,6.3766,6.4023,6.4427,6.5888,6.6402,6.6659,6.7407,6.7664,6.7687,6.7633,6.8163,6.8692,6.8703,6.8757,6.8837,6.8979,6.8445,6.8014,6.8093,6.8083,6.8645,7.0163,7.0404,7.0956,7.2519,7.3278,7.3981,7.4718,7.5442,7.6246,7.7028,7.7097,7.7097,7.7097,7.7166,7.7201,7.7201,7.7902,7.8292,7.8292,7.904,7.9385,7.9385,7.9454,7.9867,8.0488,8.0488,8.0936,8.1707,8.1707,0.0,0.0,8.181,8.181,8.181,8.181,8.181,8.181,8.181,8.181,8.181,0.0,0.0,0.0,0.0,0.0,0.0,0.0,0.0,0.0,0.0,0.0,0.0,0.0,0.0,0.0,0.0,0.0,0.0,0.0,0.0,0.0,0.0,0.0,0.0,0.0,0.0,0.0,0.0,5.6062,0.0,0.0,0.0,0.0,0.0,0.0,5.5172,0.0,0.0,0.0,0.0,0.0,0.0,0.0,0.0,0.0,0.0,0.0,0.0,6.0633,6.2242,6.2793,6.2793,6.2793,6.3166,6.3649,6.3986,6.4794,6.5675,6.6336,6.6849,6.729,6.7627,6.77,6.77,6.77,6.8311,6.9038,6.9522,6.933,6.9259,6.9739,6.886,6.8083,6.8083,6.8083,6.8645,7.0163,7.0404,7.0956,7.2519,7.3347,7.4095,7.4822,7.5615,7.6408,7.7132,7.766,7.7936,7.7936,7.7936,7.7936,7.7936,7.866,7.9074,7.9074,7.9798,8.0178,8.0178,8.0661,8.104,8.1316,8.1316,8.1488,8.181,8.181,0.0,0.0,8.181,8.181,8.181,8.181,8.181,8.181,8.181,8.181,8.181,0.0,0.0,0.0,0.0,0.0,0.0,0.0,0.0,0.0,0.0,0.0,0.0,0.0,0.0,0.0,0.0,0.0,0.0,0.0,0.0,0.0,0.0,0.0,0.0,0.0,0.0,0.0,0.0,0.0,0.0,0.0,0.0,5.6235,5.5658,0.0,0.0,0.0,0.0,0.0,0.0,0.0,0.0,0.0,0.0,0.0,0.0,0.0,0.0,0.0,0.0,0.0,6.2866,6.3092,0.0,0.0,6.4457,6.5418,6.6549,6.6769,6.7253,6.77,6.77,6.77,6.77,6.77,6.8501,6.9412,6.9963,6.9772,6.9632,7.0184,6.9089,6.8083,6.8083,6.83,6.8921,7.0232,7.0577,7.1208,7.2554,7.3543,7.4315,7.4845,7.5822,7.6729,7.7511,7.8074,7.8499,7.8695,7.8936,7.8936,7.8729,7.9454,7.9833,7.9833,8.0592,8.0971,8.0971,8.1535,8.181,8.181,8.181,8.181,8.181,8.181,0.0,0.0,8.181,8.181,8.181,8.181,8.181,8.181,8.181,8.181,8.181,0.0,0.0,0.0,0.0,0.0,0.0,0.0,0.0,0.0,0.0,0.0,0.0,0.0,0.0,0.0,0.0,0.0,0.0,0.0,0.0,0.0,0.0,0.0,0.0,0.0,0.0,0.0,0.0,0.0,0.0,0.0,0.0,0.0,5.6289,0.0,0.0,0.0,0.0,0.0,0.0,0.0,0.0,0.0,0.0,0.0,0.0,0.0,0.0,0.0,0.0,0.0,0.0,0.0,0.0,0.0,0.0,6.5845,6.6659,6.748,6.77,6.77,6.77,6.77,6.77,6.77,6.8949,7.0073,7.0117,7.0185,7.03,7.03,6.9089,6.8083,6.8083,6.8749,6.9552,7.0311,7.1025,7.1784,7.2588,7.4005,7.488,7.4914,7.6304,7.7511,7.8327,7.8385,0.0,7.9454,8.0178,8.0235,7.9523,8.0212,8.0592,8.0592,8.1397,8.1776,8.1776,8.181,8.181,8.181,8.181,8.181,0.0,0.0,0.0,0.0,8.181,8.181,8.181,8.181,8.181,8.181,8.181,8.181,8.181,0.0,0.0,0.0,0.0,0.0,0.0,0.0,0.0,0.0,0.0,0.0,0.0,0.0,0.0,0.0,0.0,0.0,0.0,0.0,0.0,0.0,0.0,0.0,0.0,0.0,0.0,0.0,0.0,0.0,0.0,0.0,0.0,0.0,0.0,5.6861,0.0,0.0,0.0,0.0,0.0,0.0,0.0,0.0,0.0,0.0,0.0,0.0,0.0,0.0,0.0,0.0,0.0,0.0,0.0,0.0,0.0,0.0,6.737,6.7627,6.77,6.77,6.77,6.77,6.7847,6.8385,6.9339,7.0257,7.08,7.0583,7.03,7.03,6.9089,6.8083,6.8083,6.8783,6.9552,7.0311,7.1025,7.1991,7.3313,7.4798,7.5925,7.6408,7.7419,7.8109,7.8385,7.9316,8.0005,8.0247,8.1005,8.1074,8.0281,8.1005,8.1419,8.1419,8.1661,8.181,8.181,8.181,8.181,8.181,8.181,8.181,0.0,0.0,0.0,0.0,8.181,8.181,8.181,8.181,8.181,8.181,8.181,8.181,8.181,0.0,0.0,0.0,0.0,0.0,0.0,0.0,0.0,0.0,0.0,0.0,0.0,0.0,0.0,0.0,0.0,0.0,0.0,0.0,0.0,0.0,0.0,0.0,0.0,0.0,0.0,0.0,0.0,0.0,0.0,0.0,0.0,0.0,0.0,0.0,0.0,0.0,0.0,0.0,0.0,0.0,0.0,5.8002,0.0,0.0,0.0,0.0,0.0,0.0,0.0,0.0,0.0,0.0,0.0,0.0,0.0,0.0,0.0,6.77,6.77,6.77,6.77,6.77,6.7914,6.8715,6.9522,7.033,7.1123,7.0756,7.03,7.03,6.9089,6.8083,6.8083,6.899,6.9897,7.0346,7.1301,7.2509,7.405,7.5315,7.6522,7.7557,7.8109,7.8626,7.9178,8.0074,8.0718,8.104,8.1535,8.1557,8.1074,8.1523,8.181,8.181,8.181,8.181,8.181,8.181,8.181,8.181,8.181,8.181,0.0,0.0,0.0,0.0,8.181,8.181,8.181,8.181,8.181,8.181,8.181,8.181,8.181,0.0,0.0,0.0,0.0,0.0,0.0,0.0,0.0,0.0,0.0,0.0,0.0,0.0,0.0,0.0,0.0,0.0,0.0,0.0,0.0,0.0,0.0,0.0,0.0,0.0,0.0,0.0,0.0,5.7593,5.8002,5.8002,0.0,0.0,0.0,0.0,0.0,0.0,0.0,0.0,0.0,0.0,0.0,0.0,0.0,0.0,0.0,0.0,0.0,0.0,0.0,0.0,0.0,0.0,0.0,0.0,0.0,0.0,0.0,0.0,6.77,6.77,6.77,6.77,6.7921,6.8781,6.9559,0.0,7.1197,7.0832,7.036,7.0309,6.9135,6.8187,6.8162,6.9439,7.0404,7.0473,7.1864,7.3371,7.4753,7.5649,7.6764,7.8258,7.8454,7.9074,8.0476,8.0649,8.1005,8.1776,8.181,8.181,8.181,8.181,8.181,8.181,8.181,8.181,8.181,8.181,8.181,8.181,8.181,8.181,0.0,0.0,0.0,0.0,8.181,8.181,8.181,8.181,8.181,8.181,8.181,8.181,8.181,0.0,0.0,0.0,0.0,0.0,0.0,0.0,0.0,0.0,0.0,0.0,0.0,0.0,0.0,0.0,0.0,0.0,0.0,0.0,0.0,0.0,0.0,0.0,0.0,0.0,0.0,0.0,5.5873,5.7305,5.8002,5.8002,5.8002,0.0,0.0,0.0,0.0,0.0,0.0,0.0,0.0,0.0,0.0,0.0,0.0,0.0,0.0,5.9832,6.0413,0.0,0.0,0.0,0.0,0.0,0.0,0.0,0.0,6.77,0.0,0.0,0.0,6.77,6.77,6.77,6.8068,0.0,0.0,0.0,7.1945,7.1639,7.097,7.0402,6.9573,6.8949,6.8996,6.9784,7.0611,7.1163,7.3039,7.4522,7.4878,7.6109,7.7316,7.8327,7.8902,7.9626,8.0523,8.1178,8.1603,8.1776,8.181,8.181,8.181,8.181,8.181,8.181,8.181,8.181,8.181,8.181,8.181,8.181,8.181,8.181,0.0,0.0,0.0,8.181,8.181,8.181,8.181,8.181,8.181,8.181,8.181,8.181,8.181,0.0,0.0,0.0,0.0,0.0,0.0,0.0,0.0,0.0,0.0,0.0,0.0,0.0,0.0,0.0,0.0,0.0,0.0,0.0,0.0,0.0,0.0,0.0,0.0,0.0,0.0,0.0,0.0,0.0,5.8002,0.0,0.0,0.0,0.0,0.0,0.0,0.0,0.0,0.0,0.0,5.8002,0.0,0.0,0.0,0.0,0.0,5.9936,6.0639,0.0,6.2389,6.3386,6.4243,0.0,0.0,0.0,0.0,6.77,0.0,0.0,0.0,6.77,0.0,0.0,0.0,0.0,0.0,0.0,7.1822,7.1422,7.0654,6.9919,6.9182,6.8808,6.9243,6.9932,7.0887,7.2336,7.3901,7.5029,7.5395,7.6798,7.804,7.8833,7.9557,8.0316,8.1109,8.1557,8.181,8.181,8.181,8.181,8.181,8.181,8.181,8.181,8.181,8.181,8.181,8.181,8.181,8.181,8.181,8.181,0.0,0.0,0.0,8.181,8.181,8.181,8.181,8.181,8.181,8.181,8.181,8.181,8.181,0.0,0.0,0.0,0.0,0.0,0.0,0.0,0.0,0.0,0.0,0.0,0.0,0.0,0.0,0.0,0.0,0.0,0.0,0.0,0.0,0.0,0.0,0.0,0.0,0.0,0.0,0.0,0.0,0.0,0.0,0.0,0.0,0.0,0.0,0.0,0.0,0.0,0.0,0.0,0.0,5.8002,0.0,0.0,0.0,0.0,0.0,0.0,0.0,0.0,6.2536,6.346,6.4383,6.5074,0.0,0.0,0.0,0.0,0.0,0.0,0.0,0.0,0.0,0.0,0.0,0.0,0.0,0.0,7.1526,7.0986,7.024,6.951,6.8863,6.869,6.9365,7.0208,7.1439,7.3509,7.4419,7.5201,7.5994,7.7453,7.8695,7.9419,8.0178,8.0936,8.1741,8.181,8.181,8.181,8.181,8.181,8.181,8.181,8.181,8.181,8.181,8.181,8.181,8.181,8.181,8.181,8.181,8.181,0.0,0.0,0.0,8.181,8.181,8.181,8.181,8.181,8.181,8.181,8.181,8.181,8.181,0.0,0.0,0.0,0.0,0.0,0.0,0.0,0.0,0.0,0.0,0.0,0.0,0.0,0.0,0.0,0.0,0.0,0.0,0.0,0.0,0.0,0.0,0.0,0.0,0.0,0.0,0.0,0.0,0.0,0.0,5.8002,5.8002,5.8002,0.0,0.0,0.0,0.0,0.0,0.0,0.0,0.0,0.0,0.0,0.0,0.0,0.0,0.0,0.0,0.0,6.2536,6.382,6.5148,6.5258,0.0,0.0,0.0,0.0,0.0,6.77,6.77,0.0,0.0,0.0,0.0,0.0,0.0,0.0,7.2182,7.1725,7.101,7.0257,7.0101,7.0072,7.0215,7.1415,7.2692,7.3647,7.444,7.5188,7.5994,7.7453,7.8695,7.9419,8.0178,8.0936,8.1741,8.181,8.181,8.181,8.181,8.181,8.181,8.181,8.181,8.181,8.181,8.181,8.181,8.181,8.181,8.181,8.181,8.181,0.0,0.0,8.181,8.181,8.181,8.181,8.181,8.181,8.181,8.181,8.181,8.181,8.181,0.0,0.0,0.0,0.0,0.0,0.0,0.0,0.0,0.0,0.0,0.0,0.0,0.0,0.0,0.0,0.0,0.0,0.0,0.0,0.0,0.0,0.0,0.0,0.0,0.0,0.0,0.0,0.0,0.0,5.8002,5.8002,5.8002,5.8002,5.8002,0.0,0.0,0.0,0.0,0.0,0.0,0.0,0.0,0.0,0.0,0.0,0.0,0.0,0.0,0.0,0.0,6.3894,6.5288,6.5288,0.0,0.0,0.0,0.0,0.0,6.77,6.77,0.0,0.0,0.0,0.0,0.0,0.0,0.0,0.0,7.0704,7.0007,6.9246,6.9498,7.006,7.0845,7.2302,7.3543,7.4281,7.505,7.5833,7.658,7.8074,7.9143,7.9454,8.0557,8.1385,8.1776,8.181,8.181,8.181,8.181,8.181,8.181,8.181,8.181,8.181,8.181,8.181,8.181,8.181,8.181,8.181,8.181,8.181,8.181,0.0,8.181,8.181,8.181,8.181,8.181,8.181,8.181,8.181,8.181,8.181,8.181,0.0,0.0,0.0,0.0,0.0,0.0,0.0,0.0,0.0,0.0,0.0,0.0,0.0,0.0,0.0,0.0,0.0,0.0,0.0,0.0,0.0,0.0,0.0,0.0,0.0,0.0,0.0,5.5585,5.7195,5.8002,5.8002,5.8002,5.8002,0.0,0.0,0.0,0.0,0.0,0.0,0.0,0.0,0.0,0.0,0.0,0.0,0.0,0.0,0.0,0.0,0.0,0.0,0.0,0.0,0.0,0.0,0.0,0.0,6.77,6.77,6.77,6.7877,0.0,0.0,0.0,0.0,0.0,0.0,0.0,0.0,6.9289,6.874,6.9292,7.0242,7.1577,7.2923,7.4061,7.4787,7.558,7.6373,7.7097,7.8557,7.9488,7.9488,8.0902,8.181,8.181,8.181,8.181,8.181,8.181,8.181,8.181,8.181,8.181,8.181,8.181,8.181,8.181,8.181,8.181,8.181,8.181,8.181,8.181,8.181,8.181,8.181,8.181,8.181,8.181,8.181,8.181,8.181,8.181,8.181,8.181,0.0,0.0,0.0,0.0,0.0,0.0,0.0,0.0,0.0,0.0,0.0,0.0,0.0,0.0,0.0,0.0,0.0,0.0,0.0,0.0,0.0,0.0,0.0,0.0,0.0,5.4906,5.5601,5.5585,5.7195,5.8002,5.8002,5.8002,5.8002,0.0,0.0,0.0,0.0,0.0,0.0,0.0,0.0,0.0,0.0,0.0,0.0,0.0,0.0,0.0,0.0,0.0,0.0,0.0,0.0,0.0,0.0,0.0,0.0,6.77,6.77,6.77,0.0,0.0,0.0,0.0,0.0,0.0,0.0,7.1469,0.0,0.0,7.022,7.0848,7.1612,7.2485,7.3278,7.4061,7.4787,7.558,7.6373,7.7097,7.8557,7.9488,7.9488,8.0902,8.181,8.181,8.181,8.181,8.181,8.181,8.181,8.181,8.181,8.181,8.181,8.181,8.181,8.181,8.181,8.181,8.181,8.181,8.181,8.181,8.181,8.181,8.181,8.181,8.181,8.181,8.181,8.181,8.181,8.181,8.181,8.181,0.0,0.0,0.0,0.0,0.0,0.0,0.0,0.0,0.0,0.0,0.0,0.0,0.0,0.0,0.0,0.0,0.0,0.0,0.0,0.0,0.0,0.0,0.0,5.3951,5.4357,5.5312,5.5974,5.6345,5.7446,5.8002,5.8002,5.8002,0.0,0.0,0.0,0.0,0.0,0.0,0.0,0.0,0.0,0.0,0.0,0.0,0.0,0.0,0.0,0.0,0.0,0.0,0.0,0.0,0.0,0.0,0.0,0.0,0.0,6.77,6.77,6.77,6.7994,0.0,0.0,0.0,0.0,0.0,0.0,7.0171,6.9834,0.0,0.0,7.1309,7.1922,7.3175,7.4016,7.4764,7.5546,7.6304,7.6891,7.7166,7.8557,7.9488,7.9488,8.0902,8.181,8.181,8.181,8.181,8.181,8.181,8.181,8.181,8.181,8.181,8.181,8.181,8.181,8.181,8.181,8.181,8.181,8.181,8.181,8.181,8.181,8.181,8.181,8.181,8.181,8.181,8.181,8.181,8.181,8.181,8.181,8.181,0.0,0.0,0.0,0.0,0.0,0.0,0.0,0.0,0.0,0.0,0.0,0.0,0.0,0.0,0.0,0.0,0.0,0.0,0.0,0.0,0.0,0.0,0.0,5.4479,5.5259,5.5923,5.6476,5.6872,5.7647,5.8002,5.8002,0.0,0.0,0.0,0.0,0.0,0.0,0.0,0.0,0.0,0.0,0.0,0.0,0.0,0.0,0.0,0.0,0.0,0.0,0.0,0.0,0.0,0.0,0.0,0.0,0.0,0.0,0.0,6.77,6.7877,6.8391,0.0,0.0,0.0,0.0,0.0,0.0,6.9744,6.9805,7.0301,7.1301,0.0,7.2302,7.3578,7.4419,7.519,7.6005,7.6718,7.7201,7.7201,7.8557,7.9488,7.9488,8.0902,8.181,8.181,8.181,0.0,0.0,8.181,8.181,8.181,8.181,8.181,8.181,8.181,8.181,8.181,8.181,8.181,8.181,8.181,8.181,8.181,8.181,8.181,8.181,8.181,8.181,8.181,8.181,8.181,8.181,8.181,8.181,8.181,0.0,0.0,0.0,0.0,0.0,0.0,0.0,0.0,0.0,0.0,0.0,0.0,0.0,0.0,0.0,0.0,0.0,0.0,0.0,0.0,0.0,0.0,0.0,5.5332,5.6116,5.6779,5.7073,5.6995,5.7686,5.8002,5.8002,0.0,0.0,0.0,0.0,0.0,0.0,0.0,0.0,0.0,0.0,0.0,0.0,0.0,0.0,0.0,0.0,0.0,0.0,0.0,0.0,0.0,0.0,0.0,0.0,0.0,0.0,6.77,6.77,6.8281,6.9075,0.0,0.0,0.0,7.0282,0.0,7.1205,7.054,7.1002,7.1508,7.1508,7.2174,0.0,7.3692,7.4419,7.519,7.5994,7.6753,7.7201,7.7201,7.8557,7.9488,7.9488,8.0902,8.181,8.181,8.181,0.0,0.0,8.181,8.181,8.181,8.181,8.181,8.181,8.181,8.181,8.181,8.181,8.181,8.181,8.181,8.181,8.181,8.181,8.181,8.181,8.181,8.181,8.181,8.181,8.181,8.181,8.181,8.181,8.181,0.0,0.0,0.0,0.0,0.0,0.0,0.0,0.0,0.0,0.0,0.0,0.0,0.0,0.0,0.0,0.0,0.0,0.0,0.0,0.0,0.0,0.0,0.0,0.0,0.0,0.0,5.7925,5.7686,5.7909,5.8002,0.0,0.0,0.0,5.8002,0.0,0.0,0.0,0.0,0.0,0.0,0.0,6.0376,0.0,0.0,0.0,0.0,0.0,0.0,0.0,0.0,0.0,0.0,0.0,0.0,0.0,0.0,6.77,6.77,6.77,6.8281,6.9075,6.9896,7.0157,0.0,0.0,7.0513,0.0,0.0,7.1338,7.1681,7.2243,7.2968,0.0,7.4453,7.5235,7.5994,7.6753,7.7063,7.7201,7.7201,7.8557,7.9488,7.9488,8.0902,8.181,8.181,0.0,0.0,0.0,8.181,8.181,8.181,8.181,8.181,8.181,8.181,8.181,8.181,8.181,8.181,8.181,8.181,8.181,8.181,8.181,8.181,8.181,8.181,8.181,8.181,8.181,8.181,8.181,8.181,8.181,8.181,0.0,0.0,0.0,0.0,0.0,0.0,0.0,0.0,0.0,0.0,0.0,0.0,0.0,0.0,0.0,0.0,0.0,0.0,0.0,0.0,0.0,0.0,0.0,0.0,0.0,5.8205,5.8277,0.0,0.0,0.0,0.0,0.0,0.0,5.8002,0.0,0.0,0.0,0.0,0.0,5.9747,6.056,6.1153,6.1637,0.0,0.0,0.0,0.0,0.0,0.0,0.0,0.0,0.0,0.0,0.0,0.0,6.77,6.77,6.7774,6.8098,6.8752,6.9497,7.0025,7.0203,7.0276,7.0334,7.0358,0.0,0.0,7.175,7.2129,7.2623,7.3313,0.0,7.4798,7.5591,7.635,7.7097,7.7201,7.7201,7.7201,7.8557,7.9488,7.9488,8.0902,8.181,0.0,0.0,0.0,0.0,8.181,8.181,8.181,8.181,8.181,8.181,8.181,8.181,8.181,8.181,8.181,8.181,8.181,8.181,8.181,8.181,8.181,8.181,8.181,8.181,8.181,8.181,8.181,8.181,8.181,8.181,8.181,0.0,0.0,0.0,0.0,0.0,0.0,0.0,0.0,0.0,0.0,0.0,0.0,0.0,0.0,0.0,0.0,0.0,0.0,0.0,0.0,0.0,0.0,0.0,0.0,0.0,0.0,0.0,0.0,0.0,0.0,0.0,0.0,5.8002,5.8002,0.0,5.8505,0.0,5.938,5.982,6.056,6.1374,6.171,6.1783,6.2615,0.0,0.0,0.0,0.0,0.0,0.0,0.0,0.0,0.0,0.0,6.77,6.77,6.7737,6.7951,6.8708,6.9481,7.0111,7.0184,7.0267,7.031,7.0387,7.0439,7.0715,7.1474,7.2198,7.2726,7.2795,7.3405,7.413,7.4889,7.5671,7.6408,7.7097,7.7201,7.7201,7.7201,7.8557,7.9488,7.9488,8.0902,8.181,0.0,0.0,0.0,0.0,8.181,8.181,8.181,8.181,8.181,8.181,8.181,8.181,0.0,8.181,8.181,8.181,8.181,8.181,8.181,8.181,8.181,8.181,8.181,8.181,8.181,8.181,8.181,8.181,8.181,8.181,8.181,0.0,0.0,0.0,0.0,0.0,0.0,0.0,0.0,0.0,0.0,0.0,0.0,0.0,0.0,0.0,0.0,0.0,0.0,0.0,0.0,0.0,0.0,0.0,0.0,0.0,0.0,0.0,0.0,0.0,0.0,0.0,0.0,0.0,5.8039,0.0,5.9049,0.0,6.056,6.119,6.1416,6.2212,6.2542,6.2652,6.3503,6.3949,0.0,0.0,0.0,0.0,0.0,0.0,0.0,6.77,6.77,6.77,6.77,6.8134,6.8671,6.8855,6.9529,7.017,7.0214,7.0305,7.0375,7.0395,7.0853,7.1508,7.2278,7.2588,7.2864,7.3451,7.4188,7.4925,7.5695,7.6477,7.7028,7.7166,7.7201,7.7201,7.7201,7.8557,7.9488,7.9488,8.0902,0.0,0.0,0.0,0.0,8.181,8.181,8.181,8.181,8.181,8.181,8.181,8.181,8.181,0.0,8.181,8.181,8.181,8.181,8.181,8.181,8.181,8.181,8.181,8.181,8.181,8.181,8.181,8.181,8.181,8.181,8.181,8.181,0.0,0.0,0.0,0.0,0.0,0.0,0.0,0.0,0.0,0.0,0.0,0.0,0.0,0.0,0.0,0.0,0.0,0.0,0.0,0.0,0.0,0.0,0.0,0.0,0.0,0.0,0.0,0.0,0.0,0.0,0.0,0.0,0.0,5.8039,0.0,5.941,5.9857,6.108,6.182,6.2218,6.2646,6.305,6.3466,6.3913,6.4573,6.5344,0.0,0.0,0.0,0.0,0.0,0.0,0.0,0.0,6.7774,6.8171,6.8568,6.9075,6.9846,7.012,7.0128,6.9815,6.9809,6.9974,7.0333,7.0956,7.1715,7.2519,7.2692,7.2933,7.3647,7.4384,7.5156,7.5971,7.6718,7.7201,7.7201,7.7201,7.7201,7.7201,7.8557,7.9488,7.9488,8.0902,0.0,0.0,0.0,8.181,8.181,8.181,8.181,8.181,8.181,8.181,8.181,8.181,8.181,8.181,8.181,8.181,8.181,8.181,8.181,8.181,8.181,8.181,8.181,8.181,8.181,8.181,8.181,8.181,8.181,8.181,8.181,8.181,0.0,0.0,0.0,0.0,0.0,0.0,0.0,0.0,0.0,0.0,0.0,0.0,0.0,0.0,0.0,0.0,0.0,0.0,0.0,0.0,0.0,0.0,0.0,0.0,0.0,0.0,0.0,0.0,0.0,0.0,0.0,0.0,0.0,5.8253,0.0,0.0,6.067,6.1484,6.2291,6.3013,6.3013,6.3533,6.4316,6.4463,6.5344,0.0,0.0,0.0,0.0,0.0,0.0,0.0,0.0,0.0,6.7841,6.8678,6.9002,6.9442,7.0903,7.0775,7.0028,6.9198,6.925,6.9656,7.0277,7.106,7.1888,7.2554,7.2692,7.2968,7.3819,7.4488,7.5201,7.6132,7.6787,7.7201,7.7201,7.7201,7.7201,7.7201,7.8557,7.9488,7.9488,8.0902,0.0,0.0,0.0,8.181,8.181,8.181,8.181,8.181,8.181,8.181,8.181,8.181,8.181,8.181,8.181,8.181,8.181,8.181,8.181,8.181,8.181,8.181,8.181,8.181,8.181,8.181,8.181,8.181,8.181,8.181,8.181,8.181,0.0,0.0,0.0,0.0,0.0,0.0,0.0,0.0,0.0,0.0,0.0,0.0,0.0,0.0,0.0,0.0,0.0,0.0,0.0,0.0,0.0,0.0,0.0,0.0,0.0,0.0,0.0,0.0,0.0,0.0,0.0,0.0,0.0,0.0,0.0,0.0,0.0,6.2285,6.3135,6.3913,6.3913,6.442,6.5221,6.5925,0.0,0.0,0.0,0.0,0.0,0.0,6.77,0.0,0.0,0.0,6.7841,6.8678,6.9376,7.0146,7.105,7.0804,6.9943,6.8597,6.9277,7.0277,7.037,7.1519,7.2588,7.2692,7.2692,7.313,7.4511,7.4811,7.5362,7.6822,7.7132,7.7201,7.7201,7.7201,7.7201,7.7201,7.8557,7.9488,7.9488,8.0902,0.0,0.0,8.181,8.181,8.181,8.181,8.181,8.181,8.181,8.181,8.181,8.181,8.181,8.181,8.181,8.181,8.181,8.181,8.181,8.181,8.181,8.181,8.181,8.181,8.181,8.181,8.181,8.181,8.181,8.181,8.181,8.1879,0.0,0.0,0.0,0.0,0.0,0.0,0.0,0.0,0.0,0.0,0.0,0.0,0.0,0.0,0.0,0.0,0.0,0.0,0.0,0.0,0.0,0.0,0.0,0.0,0.0,0.0,0.0,0.0,0.0,0.0,0.0,5.8688,5.8866,0.0,0.0,0.0,0.0,0.0,0.0,6.4133,6.4604,6.5258,6.5992,0.0,0.0,0.0,0.0,0.0,0.0,0.0,0.0,6.77,6.77,0.0,0.0,0.0,7.0139,7.0869,7.1244,7.0855,7.0148,6.9554,6.9892,7.0508,7.0922,7.1898,7.2692,7.2692,7.2692,7.3164,7.4649,7.4914,7.5397,7.6959,7.7201,7.7201,7.7201,7.7201,7.7201,7.7201,7.8557,7.9488,7.9488,8.0902,0.0,0.0,8.181,8.181,8.181,8.181,8.181,8.181,8.181,8.181,8.181,8.181,8.181,8.181,8.181,8.181,8.181,8.181,8.181,8.181,8.181,8.181,8.181,8.181,8.181,8.181,8.181,8.181,8.181,8.181,8.181,8.1914,0.0,0.0,0.0,0.0,0.0,0.0,0.0,0.0,0.0,0.0,0.0,0.0,0.0,0.0,0.0,0.0,0.0,0.0,0.0,0.0,0.0,0.0,0.0,0.0,0.0,0.0,0.0,0.0,0.0,0.0,5.919,5.941,5.96,0.0,6.1043,0.0,0.0,0.0,0.0,0.0,0.0,6.6109,0.0,0.0,0.0,0.0,0.0,0.0,0.0,0.0,0.0,0.0,0.0,6.8568,0.0,0.0,0.0,7.1574,7.1441,7.1015,7.0574,7.043,7.053,7.0818,7.137,7.2129,7.2692,7.2692,7.2692,7.3164,7.4649,7.4914,7.5397,7.6959,7.7201,7.7201,7.7201,7.7201,7.7201,7.7201,7.8557,7.9488,7.9488,8.0902,0.0,0.0,8.181,8.181,8.181,8.181,8.181,8.181,8.181,8.181,8.181,8.181,8.181,8.181,8.181,8.181,8.181,8.181,8.181,8.181,8.181,8.181,8.181,8.181,8.181,8.181,8.181,8.181,8.181,8.181,8.181,8.1948,0.0,0.0,0.0,0.0,0.0,0.0,0.0,0.0,0.0,0.0,0.0,0.0,0.0,0.0,0.0,0.0,0.0,0.0,0.0,0.0,0.0,0.0,0.0,0.0,0.0,0.0,0.0,0.0,0.0,0.0,5.9227,5.9967,6.075,6.149,6.1563,6.2481,6.3986,0.0,0.0,0.0,0.0,0.0,0.0,0.0,0.0,0.0,0.0,0.0,0.0,0.0,0.0,0.0,0.0,0.0,0.0,0.0,0.0,0.0,7.1586,7.1439,7.1277,7.0561,7.0947,7.1439,7.1498,7.2129,7.2692,7.2692,7.2692,7.3164,7.4649,7.4914,7.5397,7.6959,7.7201,7.7201,7.7201,7.7201,7.7201,7.7201,7.8557,7.9488,7.9488,8.0902,0.0,0.0,8.181,8.181,8.181,8.181,8.181,8.181,8.181,8.181,8.181,8.181,8.181,8.181,8.181,8.181,8.181,8.181,8.181,8.181,8.181,8.181,8.181,8.181,8.181,8.181,8.181,8.181,8.181,8.181,8.181,8.2017,0.0,0.0,0.0,0.0,0.0,0.0,0.0,0.0,0.0,0.0,0.0,0.0,0.0,0.0,0.0,0.0,0.0,0.0,0.0,0.0,0.0,0.0,0.0,0.0,0.0,0.0,0.0,0.0,0.0,5.9459,6.075,6.1043,6.1894,6.3215,6.3215,6.3546,6.417,6.5197,0.0,0.0,0.0,0.0,0.0,0.0,0.0,0.0,0.0,0.0,0.0,0.0,0.0,0.0,0.0,0.0,0.0,0.0,7.2268,7.2555,7.2811,7.2187,7.1667,7.2386,7.2038,7.1646,7.2164,7.2485,7.2692,7.2692,7.2692,7.3164,7.4649,7.4914,7.5397,7.6959,7.7201,7.7201,7.7201,7.7201,7.7201,7.7201,7.8143,7.8971,7.9454,8.0419,0.0,0.0,0.0,8.181,8.181,8.181,8.181,8.181,8.181,8.181,8.181,8.181,8.181,8.181,8.181,8.181,8.181,8.181,8.181,8.181,8.181,8.181,8.181,8.181,8.181,8.181,8.181,8.181,8.181,8.181,8.181,8.2005,0.0,0.0,0.0,0.0,0.0,0.0,0.0,0.0,0.0,0.0,0.0,0.0,0.0,0.0,0.0,0.0,0.0,0.0,0.0,0.0,0.0,0.0,0.0,0.0,0.0,0.0,0.0,0.0,0.0,0.0,0.0,0.0,6.2481,6.4103,6.439,6.4647,0.0,0.0,0.0,6.696,0.0,0.0,6.77,0.0,0.0,0.0,0.0,0.0,0.0,0.0,0.0,0.0,0.0,0.0,0.0,0.0,0.0,7.301,7.3567,7.2987,7.2513,7.3529,7.2848,7.2026,7.2588,7.2692,7.2692,7.2692,7.2692,7.3061,7.4315,7.4718,7.5397,7.6959,7.7201,7.7201,7.7201,7.7201,7.7201,7.7201,7.7902,7.8695,7.9419,8.0178,0.0,0.0,0.0,0.0,8.181,8.181,8.181,8.181,8.181,8.181,8.181,8.181,8.181,8.181,8.181,8.181,8.181,8.181,8.181,8.181,8.181,8.181,8.181,8.181,8.181,8.181,8.181,8.181,8.181,8.181,8.181,8.2005,0.0,0.0,0.0,0.0,0.0,0.0,0.0,0.0,0.0,0.0,0.0,0.0,0.0,0.0,0.0,0.0,0.0,0.0,0.0,0.0,0.0,0.0,0.0,0.0,0.0,0.0,0.0,0.0,0.0,0.0,0.0,0.0,6.2554,0.0,6.4971,6.5772,6.6549,0.0,6.6996,6.77,0.0,6.77,6.77,0.0,0.0,0.0,6.8605,6.8928,0.0,6.9853,0.0,0.0,0.0,0.0,0.0,0.0,0.0,0.0,0.0,0.0,0.0,7.3788,7.3249,7.2692,7.2692,7.2692,7.2692,7.2692,7.2692,7.2933,7.3647,7.4384,7.5373,7.6925,7.7201,7.7201,7.7201,7.7201,7.7201,7.7201,7.7902,7.866,7.9419,8.0143,0.0,0.0,8.181,8.181,8.181,8.181,8.181,8.181,8.181,8.181,8.181,8.181,8.181,8.181,8.181,8.181,8.181,8.181,8.181,8.181,8.181,8.181,8.181,8.181,8.181,8.181,8.181,8.181,8.181,8.181,8.181,8.2005,0.0,0.0,0.0,0.0,0.0,0.0,0.0,0.0,0.0,0.0,0.0,0.0,0.0,0.0,0.0,0.0,0.0,0.0,0.0,0.0,0.0,0.0,0.0,0.0,0.0,0.0,0.0,0.0,0.0,0.0,0.0,0.0,0.0,0.0,6.5815,6.6623,6.7363,6.7363,0.0,0.0,6.77,6.77,0.0,0.0,0.0,0.0,0.0,6.9265,6.9889,0.0,7.1123,7.1417,0.0,0.0,0.0,0.0,0.0,0.0,7.4483,0.0,0.0,0.0,0.0,0.0,7.2692,7.2692,7.2692,7.2692,7.2692,7.2933,7.3647,7.3957,7.4602,7.6132,7.6856,7.7201,7.7201,7.7201,7.7201,7.7201,7.7408,7.804,7.9385,7.9695,0.0,0.0,8.181,8.181,8.181,8.181,8.181,8.181,8.181,8.181,8.181,8.181,8.181,8.181,8.181,8.181,8.181,8.181,8.181,8.181,8.181,8.181,8.181,8.181,8.181,8.181,8.181,8.181,8.181,8.181,8.181,8.2005,0.0,0.0,0.0,0.0,0.0,0.0,0.0,0.0,0.0,0.0,0.0,0.0,0.0,0.0,0.0,0.0,0.0,0.0,0.0,0.0,0.0,0.0,0.0,0.0,0.0,0.0,0.0,0.0,0.0,0.0,0.0,0.0,0.0,0.0,0.0,0.0,0.0,0.0,0.0,0.0,6.77,0.0,0.0,6.8208,6.8715,0.0,0.0,0.0,7.0727,7.1534,7.1784,0.0,0.0,0.0,0.0,0.0,0.0,0.0,0.0,0.0,0.0,0.0,0.0,0.0,7.2692,7.2692,7.2692,7.2692,7.2692,7.283,7.3278,7.3578,7.4095,7.4981,7.604,7.6856,7.7166,7.7201,7.7201,7.7201,7.7201,7.7684,7.8936,7.9316,8.0005,8.1212,8.1592,8.181,8.181,8.181,8.181,8.181,8.181,8.181,8.181,8.181,8.181,8.181,8.181,8.181,8.181,8.181,8.181,8.181,8.181,8.181,8.181,8.181,8.181,8.181,8.181,8.181,8.181,8.181,8.181,8.2005,0.0,0.0,0.0,0.0,0.0,0.0,0.0,0.0,0.0,0.0,0.0,0.0,0.0,0.0,0.0,0.0,0.0,0.0,0.0,0.0,0.0,0.0,0.0,0.0,0.0,0.0,0.0,0.0,0.0,0.0,0.0,0.0,0.0,0.0,0.0,0.0,0.0,0.0,0.0,6.7841,6.7841,6.8318,0.0,0.0,6.9516,7.033,7.105,7.1344,7.1527,7.2268,7.2488,0.0,0.0,0.0,0.0,0.0,7.4992,0.0,0.0,0.0,0.0,0.0,0.0,0.0,7.2692,7.2692,7.2692,7.2692,7.2692,7.2692,7.2692,7.3244,7.3681,7.3796,7.4947,7.6143,7.6959,7.7132,7.7201,7.7201,7.7201,7.7511,7.8316,7.8971,7.9729,8.0545,8.135,8.181,8.181,8.181,8.181,8.181,8.181,8.181,8.181,8.181,8.181,8.181,8.181,8.181,8.181,8.181,8.181,8.181,8.181,8.181,8.181,8.181,8.181,8.181,8.181,8.181,8.181,8.181,8.181,8.2005,0.0,0.0,0.0,0.0,0.0,0.0,0.0,0.0,0.0,0.0,0.0,0.0,0.0,0.0,0.0,0.0,0.0,0.0,0.0,0.0,0.0,0.0,0.0,0.0,0.0,0.0,0.0,0.0,0.0,0.0,0.0,0.0,0.0,0.0,0.0,0.0,0.0,0.0,0.0,6.8678,6.8678,0.0,6.9853,6.9853,7.0367,7.1087,7.1233,7.1711,7.2305,7.2459,7.2488,7.2599,0.0,0.0,0.0,0.0,0.0,0.0,0.0,0.0,0.0,0.0,0.0,0.0,7.2692,7.2692,7.2692,7.2692,7.2692,7.2692,7.2692,7.283,7.3106,7.3681,7.4061,7.474,7.6109,7.6822,7.7201,7.7201,7.7201,7.7511,7.8316,7.8522,7.9178,8.0511,8.135,8.181,8.181,8.181,8.181,8.181,8.181,8.181,8.181,8.181,8.181,8.181,8.181,8.181,8.181,8.181,8.181,8.181,8.181,8.181,8.181,8.181,8.181,8.181,8.181,8.181,8.181,8.181,8.181,8.2005,0.0,0.0,0.0,0.0,0.0,0.0,0.0,0.0,0.0,0.0,0.0,0.0,0.0,0.0,0.0,0.0,0.0,0.0,0.0,0.0,0.0,0.0,0.0,0.0,0.0,0.0,0.0,0.0,0.0,0.0,0.0,0.0,0.0,0.0,0.0,0.0,0.0,0.0,6.9736,7.0066,6.9662,0.0,7.069,7.069,7.1204,7.1901,7.1901,7.2158,7.2569,7.2973,7.3083,0.0,0.0,7.4551,7.5065,0.0,7.6379,7.6706,0.0,0.0,0.0,7.4511,0.0,0.0,0.0,7.2692,7.2692,7.2692,7.2692,7.2692,7.2692,7.2692,7.283,7.3209,7.3554,7.4061,7.4843,7.5936,7.6649,7.6649,7.6994,7.7373,7.7764,7.8143,7.9005,8.0476,8.0971,8.1385,8.1776,8.181,8.181,8.181,8.181,8.181,8.181,8.181,8.181,8.181,8.181,8.181,8.181,8.181,8.181,8.181,8.181,8.181,8.181,8.181,8.181,8.181,8.181,8.181,8.181,8.181,8.181,8.2005,0.0,0.0,0.0,0.0,0.0,0.0,0.0,0.0,0.0,0.0,0.0,0.0,0.0,0.0,0.0,0.0,0.0,0.0,0.0,0.0,0.0,0.0,0.0,6.346,0.0,0.0,0.0,0.0,0.0,0.0,0.0,0.0,0.0,0.0,0.0,0.0,0.0,0.0,0.0,7.127,0.0,7.0947,7.1527,7.1527,7.1938,7.2488,7.2488,7.2606,7.2826,7.3494,0.0,7.4074,7.4874,7.5572,0.0,0.0,0.0,0.0,0.0,0.0,0.0,0.0,0.0,7.2692,0.0,0.0,0.0,7.2692,7.2692,7.2692,7.2692,7.2692,7.2692,7.2692,7.3209,7.3589,0.0,7.4774,0.0,7.5856,7.6511,7.6994,7.6994,7.7833,7.8936,8.0281,8.0511,8.0971,8.1776,8.181,8.181,8.181,8.181,8.181,8.181,8.181,8.181,8.181,8.181,8.181,8.181,8.181,8.181,8.181,8.181,8.181,8.181,8.181,8.181,8.181,8.181,8.181,8.181,8.181,8.181,8.2005,0.0,0.0,0.0,0.0,0.0,0.0,0.0,0.0,0.0,0.0,0.0,0.0,0.0,0.0,0.0,0.0,0.0,0.0,6.2646,0.0,0.0,0.0,0.0,0.0,6.5148,0.0,0.0,0.0,0.0,0.0,0.0,0.0,0.0,0.0,6.8855,0.0,0.0,0.0,7.1233,0.0,7.1975,7.2268,0.0,7.2342,7.2415,7.2488,7.2488,7.2973,7.3567,0.0,7.4184,7.4911,0.0,7.6019,7.624,0.0,0.0,0.0,0.0,0.0,0.0,0.0,7.3311,0.0,0.0,0.0,7.2692,7.2692,0.0,7.2692,7.2692,0.0,0.0,0.0,0.0,0.0,7.283,7.3554,7.4292,7.496,7.5753,7.6201,0.0,7.7522,7.8729,7.9557,8.0247,8.0971,8.1776,8.181,8.181,8.181,8.181,8.181,8.181,8.181,8.181,8.181,8.181,8.181,8.181,8.181,8.181,8.181,8.181,8.181,8.181,8.181,8.181,8.181,8.181,8.181,8.181,8.181,8.181,8.2005,0.0,0.0,0.0,0.0,0.0,0.0,0.0,0.0,0.0,0.0,0.0,0.0,0.0,0.0,0.0,0.0,0.0,6.3013,0.0,0.0,0.0,0.0,0.0,0.0,0.0,0.0,0.0,0.0,6.718,0.0,0.0,0.0,0.0,0.0,6.9876,0.0,7.0837,0.0,7.2011,0.0,0.0,0.0,0.0,7.2351,7.2504,7.2619,7.3054,7.3426,7.3882,0.0,7.5322,0.0,0.0,0.0,0.0,0.0,0.0,0.0,0.0,0.0,0.0,0.0,0.0,0.0,7.2692,0.0,7.2692,0.0,0.0,0.0,0.0,0.0,0.0,0.0,7.2692,0.0,0.0,0.0,7.3451,0.0,0.0,0.0,0.0,0.0,0.0,0.0,7.9557,8.0316,8.1074,8.1569,8.181,8.181,8.181,8.181,8.181,8.181,8.181,8.181,8.181,8.181,8.181,8.181,8.181,8.181,8.181,8.181,8.181,8.181,8.181,8.181,8.181,8.181,8.181,8.181,8.181,8.2005,0.0,0.0,0.0,0.0,0.0,0.0,0.0,0.0,0.0,0.0,0.0,0.0,6.2058,6.2518,0.0,0.0,6.3166,6.3533,0.0,0.0,6.4588,0.0,0.0,0.0,0.0,0.0,0.0,0.0,0.0,0.0,0.0,0.0,0.0,0.0,0.0,7.1417,7.1674,0.0,7.2387,7.2197,7.2197,7.1878,7.15,7.2035,7.2273,7.2394,7.3133,7.3563,7.3963,7.5075,7.5615,0.0,7.5851,0.0,0.0,0.0,0.0,0.0,7.5521,0.0,0.0,0.0,0.0,0.0,0.0,0.0,0.0,0.0,0.0,0.0,0.0,0.0,0.0,0.0,0.0,7.2692,0.0,7.2692,0.0,0.0,0.0,0.0,0.0,0.0,0.0,7.8316,7.8902,7.9626,8.0557,8.1143,8.1557,8.181,8.181,8.181,8.181,8.181,8.181,8.181,8.181,8.181,8.181,8.181,8.181,8.181,8.181,8.181,8.181,8.181,8.181,8.181,8.181,8.181,8.181,8.181,8.181,8.2005,6.0745,6.027,0.0,0.0,0.0,0.0,0.0,0.0,0.0,0.0,0.0,0.0,0.0,0.0,0.0,0.0,0.0,6.4383,6.5221,0.0,6.4851,0.0,0.0,6.6108,0.0,0.0,0.0,0.0,0.0,0.0,0.0,0.0,0.0,0.0,0.0,7.1718,7.2452,7.2488,7.21,7.1438,7.1438,7.1454,7.1486,0.0,7.1539,7.1629,7.2379,0.0,0.0,7.3842,7.4378,0.0,0.0,0.0,0.0,0.0,0.0,0.0,0.0,0.0,0.0,7.2734,0.0,0.0,0.0,0.0,7.2692,0.0,0.0,0.0,0.0,0.0,0.0,0.0,0.0,0.0,0.0,0.0,0.0,0.0,0.0,0.0,0.0,7.6109,7.6764,7.8292,7.843,7.9074,8.0511,8.0614,8.1005,8.1776,8.181,8.181,8.181,8.181,8.181,8.181,8.181,8.181,8.181,8.181,8.181,8.181,8.181,8.181,8.181,8.181,8.181,8.181,8.181,8.181,8.181,8.181,8.181,8.2005,0.0,0.0,0.0,0.0,0.0,0.0,0.0,6.2021,0.0,0.0,0.0,0.0,0.0,6.3389,6.3839,0.0,0.0,6.4022,6.5266,6.4706,0.0,0.0,0.0,6.5981,0.0,0.0,0.0,0.0,0.0,0.0,0.0,0.0,0.0,0.0,0.0,7.18,0.0,0.0,0.0,0.0,0.0,7.1478,7.1542,0.0,0.0,7.2319,7.3126,7.3558,0.0,7.4426,7.4787,7.4919,7.4388,7.4586,7.4901,7.4378,7.4014,0.0,0.0,0.0,7.2692,7.2692,0.0,0.0,0.0,0.0,0.0,0.0,0.0,0.0,0.0,0.0,0.0,0.0,0.0,0.0,0.0,0.0,0.0,0.0,0.0,0.0,0.0,0.0,0.0,7.6833,7.7833,7.8626,7.9109,8.0074,8.073,8.1005,8.1523,8.181,8.181,8.181,8.181,8.181,8.181,8.181,8.181,8.181,8.181,8.181,8.181,8.181,8.181,8.181,8.181,8.181,8.181,8.181,8.181,8.181,8.181,8.2005,6.1522,0.0,0.0,0.0,0.0,0.0,0.0,0.0,0.0,0.0,6.3946,0.0,6.3497,0.0,6.3963,0.0,6.3862,6.4159,6.5389,6.4832,0.0,6.5582,6.5357,0.0,0.0,0.0,0.0,0.0,0.0,7.0149,0.0,0.0,0.0,0.0,0.0,7.1777,7.1723,7.1556,7.1632,0.0,0.0,7.1498,0.0,0.0,7.2471,7.2325,0.0,7.3403,7.3477,7.402,7.4194,7.4107,7.3557,7.3765,7.4098,7.3547,7.3422,7.3422,7.3422,7.306,0.0,7.2692,7.2692,0.0,7.2692,0.0,0.0,0.0,0.0,0.0,0.0,0.0,0.0,0.0,0.0,0.0,0.0,7.2692,0.0,0.0,0.0,7.352,0.0,7.4705,7.5522,7.6074,7.7005,7.7833,0.0,0.0,8.035,8.058,8.1385,8.181,8.181,8.181,8.181,8.181,8.181,8.181,8.181,8.181,8.181,8.181,8.181,8.181,8.181,8.181,8.181,8.181,8.181,8.181,8.181,8.181,8.2121,8.273,0.0,0.0,0.0,0.0,6.27,0.0,0.0,0.0,6.4382,0.0,6.463,6.4209,6.4173,6.3623,6.3589,6.4345,6.4393,6.4686,6.5506,6.4914,0.0,0.0,6.4951,6.5313,6.6785,0.0,0.0,0.0,0.0,0.0,0.0,0.0,0.0,0.0,7.179,0.0,7.0564,7.2663,7.2337,7.0523,7.1273,7.1577,7.1646,7.2416,7.2243,7.1646,7.2416,7.2692,7.2692,7.2692,7.2692,7.2692,7.2692,7.2692,7.2692,7.2692,7.2692,7.2692,7.2692,7.2692,7.2692,7.2692,0.0,0.0,0.0,0.0,7.2692,0.0,0.0,0.0,0.0,0.0,0.0,0.0,0.0,0.0,0.0,0.0,0.0,0.0,0.0,7.2968,7.3692,7.3796,7.4406,7.5936,7.6074,7.6764,0.0,0.0,7.9833,8.0511,8.135,8.181,8.181,8.181,8.181,8.181,8.181,8.181,8.181,8.181,8.181,8.181,8.181,8.181,8.181,8.181,8.181,8.181,8.181,8.181,8.181,8.181,8.273,8.4006,6.4664,6.4664,6.461,0.0,6.4594,6.4783,0.0,0.0,0.0,0.0,6.4381,6.4142,6.3662,6.3996,6.4336,6.4512,6.4087,0.0,0.0,0.0,0.0,6.4911,6.4764,6.5366,6.6848,6.7473,0.0,6.9052,0.0,0.0,7.0301,0.0,0.0,0.0,0.0,7.1348,7.1988,7.1477,7.1241,7.1287,7.2085,7.2381,0.0,0.0,7.2588,7.2416,7.2623,7.2692,7.2692,7.2692,7.2692,7.2692,7.2692,7.2692,7.2692,7.2692,7.2692,7.2692,7.2692,7.2692,7.2692,7.2692,7.2692,7.2692,0.0,0.0,0.0,0.0,0.0,0.0,0.0,0.0,0.0,0.0,0.0,0.0,0.0,0.0,0.0,7.2692,0.0,7.2761,7.2968,7.3485,7.4188,7.5132,7.5753,7.6522,0.0,0.0,0.0,7.9764,8.1086,8.181,8.181,8.181,8.181,8.181,8.181,8.181,8.181,8.181,8.181,8.181,8.181,8.181,8.181,8.181,8.181,8.181,8.181,8.181,8.181,8.181,8.273,8.4006,6.5288,0.0,0.0,6.5809,0.0,0.0,6.5385,0.0,0.0,6.4798,6.4607,0.0,6.3977,6.4087,6.4286,6.4635,6.4306,0.0,6.5121,0.0,0.0,6.5196,6.523,6.5748,6.6907,6.7387,0.0,6.9132,0.0,0.0,6.9858,0.0,0.0,0.0,0.0,7.1477,7.1609,7.1121,7.1527,7.2537,7.2641,0.0,0.0,7.2692,7.2692,7.2692,7.2692,7.2692,7.2692,7.2692,7.2692,7.2692,7.2692,7.2692,7.2761,7.3106,7.3175,7.3233,7.3567,7.3671,7.3671,7.3671,7.3671,7.3671,7.3671,7.3671,7.3567,0.0,0.0,0.0,0.0,0.0,0.0,0.0,0.0,0.0,0.0,0.0,0.0,0.0,7.2692,0.0,7.2692,7.3071,7.3612,7.435,7.5143,0.0,0.0,0.0,0.0,7.9488,8.0661,8.1419,8.181,8.181,8.181,8.181,8.181,8.181,8.181,8.181,8.181,8.181,8.181,8.181,8.181,8.181,8.181,8.181,8.181,8.181,8.181,8.181,8.2523,8.3557,6.5625,0.0,0.0,0.0,0.0,0.0,0.0,6.5284,0.0,6.5462,0.0,6.4594,6.4594,6.4183,6.4161,6.4807,0.0,6.5152,6.5851,6.5895,6.593,6.6024,6.6024,6.6403,6.7127,6.7127,0.0,0.0,0.0,0.0,0.0,0.0,0.0,0.0,0.0,0.0,0.0,7.1405,7.2435,7.3607,7.297,7.2692,7.2692,7.2692,7.2761,7.283,7.283,7.2761,7.2726,7.2795,7.283,7.2864,7.2968,7.3002,7.3095,7.375,7.3957,7.4095,7.4718,7.4914,7.4914,7.4914,7.4914,7.4914,7.4914,7.4914,7.4718,7.4085,7.3957,0.0,0.0,0.0,0.0,0.0,0.0,0.0,0.0,0.0,0.0,0.0,0.0,0.0,7.2692,7.2692,7.3002,7.375,0.0,0.0,0.0,0.0,0.0,7.9488,8.0212,0.0,8.181,0.0,8.181,8.181,8.181,8.181,8.181,8.181,8.181,8.181,8.181,8.181,8.181,8.181,8.181,8.181,8.181,8.181,8.181,8.181,8.2224,8.2868,6.729,0.0,0.0,0.0,0.0,6.5546,6.4854,6.4727,6.4756,6.477,6.4731,6.4666,6.4666,6.5177,6.5541,6.5679,6.5688,0.0,0.0,0.0,0.0,6.6782,6.6817,6.7162,6.7876,6.7921,6.8024,0.0,0.0,0.0,0.0,0.0,0.0,0.0,7.1505,7.1925,7.2312,7.2416,0.0,7.2877,7.2755,7.2692,7.2692,7.2692,7.3071,7.3623,7.3623,7.3209,7.2795,7.3416,7.3623,7.3716,7.4315,7.4511,7.4546,7.4684,7.4695,7.4751,7.4856,7.4914,7.4914,7.4914,7.4914,7.4914,7.4914,7.4914,7.4845,7.4718,7.4718,7.4488,7.375,0.0,0.0,0.0,0.0,0.0,0.0,0.0,0.0,0.0,0.0,7.2692,0.0,0.0,0.0,0.0,0.0,0.0,0.0,0.0,0.0,0.0,8.0212,0.0,0.0,0.0,8.181,8.181,8.181,8.181,8.181,8.181,8.181,8.181,8.181,8.181,8.181,8.181,8.181,8.181,8.181,8.181,8.181,8.181,8.1879,8.219,0.0,0.0,0.0,0.0,0.0,0.0,0.0,6.4899,0.0,6.464,6.4694,6.4841,6.5265,6.5688,6.6068,6.6447,6.6472,6.6644,6.7024,6.7024,6.7196,6.7576,6.7576,0.0,6.8083,6.8083,6.83,6.8714,0.0,0.0,0.0,0.0,0.0,7.1508,7.1922,7.2347,0.0,0.0,0.0,7.2692,7.2692,7.2692,7.2726,7.3106,7.3485,7.3854,7.4223,7.4143,7.3912,7.4246,7.435,7.4419,7.4787,7.4914,7.4983,7.5408,7.5522,7.5591,7.5994,7.6097,7.6097,7.6097,7.6097,7.6097,7.6097,7.6097,7.5994,7.5615,7.5511,7.5304,7.4522,7.3785,0.0,0.0,0.0,0.0,0.0,0.0,0.0,0.0,0.0,0.0,0.0,0.0,0.0,0.0,0.0,7.5063,0.0,0.0,0.0,0.0,0.0,0.0,0.0,0.0,0.0,8.181,8.181,8.181,8.181,8.181,8.181,8.181,8.181,8.181,8.181,8.181,8.181,8.181,8.181,8.181,8.181,8.181,8.181,8.1948,0.0,6.5886,0.0,0.0,6.5068,0.0,6.5643,6.5311,6.4945,6.4945,6.5083,6.5428,6.6068,6.6275,6.661,6.7196,6.7231,6.7541,6.83,6.8369,6.8428,6.8576,6.8601,6.8601,6.8601,6.8601,6.8887,0.0,0.0,0.0,0.0,0.0,0.0,0.0,0.0,0.0,0.0,0.0,7.2692,7.2726,7.2864,7.2933,7.3002,7.375,7.413,7.4371,7.4971,7.527,7.5397,7.5397,7.5294,7.519,7.5328,7.5397,7.55,7.6132,7.6339,7.6442,7.7028,7.7201,7.7201,7.7201,7.7201,7.7201,7.7201,7.7201,7.7028,7.6442,7.6212,7.5902,7.5259,7.4557,0.0,0.0,0.0,0.0,0.0,0.0,0.0,0.0,0.0,0.0,7.2692,0.0,0.0,0.0,0.0,7.4891,7.4891,7.6373,0.0,0.0,0.0,8.0247,8.1776,0.0,8.181,0.0,8.181,8.181,8.181,8.181,8.181,8.181,8.181,8.181,8.181,8.181,8.181,8.181,8.181,8.181,8.181,8.181,8.181,8.1879,0.0,0.0,0.0,0.0,0.0,0.0,6.5758,6.5839,6.5792,6.5792,6.6368,6.6817,6.6886,6.7507,6.7921,6.798,6.799,6.8335,6.9138,6.9173,6.9483,7.0163,7.0163,7.0163,7.0163,7.0163,7.0232,0.0,0.0,0.0,0.0,0.0,0.0,0.0,0.0,0.0,0.0,7.2692,7.2692,7.2761,7.3416,7.3692,7.3796,7.4522,7.5235,7.5902,7.596,7.6408,7.6994,7.6994,7.6546,7.6097,7.6753,7.6994,7.6994,7.7063,7.7097,7.7097,7.7166,7.7201,7.7201,7.7201,7.7201,7.7201,7.7201,7.7201,7.7166,7.7097,7.6557,7.6074,7.5994,7.5339,7.4787,0.0,0.0,0.0,0.0,0.0,7.3692,7.3692,0.0,0.0,0.0,7.2692,0.0,0.0,7.4074,7.4891,7.4889,7.635,7.789,7.9454,0.0,8.0247,8.1776,8.181,0.0,8.181,8.181,8.181,8.181,8.181,8.181,8.181,8.181,8.181,8.181,8.181,8.181,8.181,8.181,8.181,8.181,8.181,8.181,8.181,0.0,0.0,0.0,0.0,0.0,0.0,0.0,6.6955,6.7403,6.7896,6.7783,6.7852,6.8345,6.9025,6.9473,6.9473,6.9473,6.9611,6.9932,6.9966,7.0104,7.038,7.0404,7.0404,7.0404,7.0404,7.0611,0.0,0.0,0.0,0.0,0.0,0.0,0.0,0.0,7.2692,7.2692,7.2692,7.2968,7.3382,7.3681,7.4061,7.4557,7.5304,7.5822,7.6177,7.658,7.6959,7.7201,7.7201,7.6994,7.6822,7.7097,7.7201,7.7201,7.7201,7.7201,7.7201,7.7201,7.7201,7.7201,7.7201,7.7201,7.7201,7.7201,7.7201,7.7201,7.7201,7.6959,7.6753,7.6753,7.6132,7.5615,0.0,0.0,0.0,0.0,0.0,0.0,0.0,0.0,7.4005,0.0,0.0,0.0,0.0,0.0,7.4891,7.4902,7.6373,0.0,7.9454,0.0,8.0247,8.1776,8.181,8.181,8.181,8.181,8.181,8.181,8.181,8.181,8.181,8.181,8.181,8.181,8.181,8.181,8.181,8.181,8.181,8.181,8.181,8.181,8.181,6.5704,0.0,6.5299,0.0,6.6231,6.6551,6.7551,6.8128,6.8714,6.9518,6.9335,6.9232,6.9587,7.0104,7.0404,7.0404,7.0404,7.0473,7.0715,7.0715,7.0818,7.107,7.107,0.0,7.107,7.107,7.1336,7.1853,7.1853,0.0,0.0,0.0,0.0,0.0,7.2692,7.2692,7.2726,7.2933,7.3313,7.383,7.4302,7.4798,7.5339,7.6132,7.6408,7.6488,7.6994,7.7201,7.7201,7.7201,7.7201,7.7201,7.7201,7.7201,7.7201,7.7201,7.7201,7.7201,7.7201,7.7201,7.7201,7.7201,7.7201,7.7201,7.7201,7.7201,7.7201,7.7201,7.7201,7.7201,7.7201,7.6753,7.6408,7.6408,0.0,0.0,0.0,0.0,0.0,0.0,7.5052,7.4914,7.4914,7.4419,0.0,0.0,0.0,7.5259,7.5259,0.0,0.0,0.0,0.0,0.0,0.0,8.181,8.181,8.181,8.181,8.181,8.181,8.181,8.181,8.181,8.181,8.181,8.181,8.181,8.181,8.181,8.181,8.181,8.181,8.181,8.181,8.181,6.6022,6.5895,6.6137,6.6851,6.6989,6.7507,6.9035,6.9276,6.9552,7.0301,7.1025,7.1198,7.0473,7.0404,7.0404,7.0404,7.0404,7.0715,7.1439,7.1508,7.1853,0.0,0.0,7.2657,7.2657,7.2657,7.2692,7.2692,0.0,0.0,7.2692,0.0,7.2692,7.2692,7.2692,7.2692,7.2761,7.3485,7.3785,7.3923,7.5453,7.6074,7.6177,7.6891,7.7201,7.7201,7.7201,7.7201,7.7201,7.7201,7.7201,7.7201,7.7201,7.7201,7.7201,7.7201,7.7201,7.7201,7.7201,7.7201,7.7201,7.7201,7.7201,7.7201,7.7201,7.7201,7.7201,7.7201,7.7201,7.7201,7.7201,7.7201,7.7201,7.7201,0.0,0.0,0.0,0.0,0.0,0.0,7.5373,7.4914,7.4914,7.488,0.0,0.0,0.0,0.0,0.0,0.0,0.0,7.9454,7.9488,0.0,8.1776,8.181,8.181,8.181,8.181,8.181,8.181,8.181,8.181,8.181,8.181,8.181,8.181,8.181,8.181,8.181,8.181,8.181,8.181,8.181,8.181,8.181,6.6589,6.6644,6.7068,6.8345,6.8586,6.8887,6.9887,7.0473,7.0887,7.1129,7.1819,7.2243,7.2002,7.1967,7.1967,0.0,7.1967,7.2071,0.0,7.2312,7.245,7.2692,7.2692,7.2692,7.2692,7.2692,7.2692,7.2692,0.0,0.0,0.0,7.2692,7.2692,7.2692,7.2692,7.2968,7.3485,7.3681,7.4406,7.5419,7.5902,7.6419,7.6891,7.7097,7.7201,7.7201,7.7201,7.7201,7.7201,7.7201,7.7201,7.7304,7.7833,7.766,7.7201,7.7201,7.7201,7.7201,7.7201,7.7201,7.7201,7.7201,7.7201,7.7201,7.7201,7.7201,7.7201,7.7201,7.7201,7.7201,7.7201,7.7201,7.7201,7.7201,7.7201,0.0,0.0,0.0,0.0,0.0,7.6615,7.6477,0.0,7.5994,0.0,0.0,0.0,0.0,0.0,0.0,0.0,0.0,8.0005,0.0,8.1776,8.181,8.181,8.181,8.181,8.181,8.181,8.181,8.181,8.181,8.181,8.181,8.181,8.181,8.181,8.181,8.181,8.181,8.181,8.181,8.181,8.181,6.7714,6.7852,6.8231,6.9518,6.9715,6.9966,7.068,7.1198,7.1612,7.1922,7.2381,7.2692,7.2692,7.2692,0.0,7.2692,7.2692,7.2692,7.2692,7.2692,7.2692,7.2692,7.2692,7.2692,7.2692,0.0,0.0,7.2692,7.2692,7.2692,7.2692,7.2692,7.2864,7.3106,7.3106,7.3509,7.4223,7.4544,7.5223,7.6109,7.6419,7.6787,7.7201,7.7201,7.7201,7.7201,7.7201,7.7373,7.7649,7.7649,7.7821,7.8143,7.866,7.8454,7.8063,7.8063,7.8063,7.8063,7.8063,7.8063,7.8063,7.8063,7.8063,7.8063,7.8063,7.7867,7.7649,7.7649,7.7408,7.7201,7.7201,7.7201,7.7201,7.7201,7.7201,7.7201,7.7201,0.0,0.0,0.0,0.0,0.0,0.0,7.6787,0.0,0.0,0.0,0.0,0.0,0.0,0.0,7.9867,8.035,0.0,8.181,8.181,8.181,8.181,8.181,8.181,8.181,8.181,8.181,8.181,8.181,8.181,8.181,8.181,8.181,8.181,8.181,8.181,8.181,8.181,8.181,8.181,6.9207,6.938,0.0,0.0,7.0473,0.0,7.1474,7.1577,7.1853,7.2588,7.2692,7.2692,7.2692,7.2692,7.2692,7.2692,0.0,0.0,0.0,7.2692,7.2692,7.2692,7.2692,7.2692,7.2692,7.2692,7.2692,7.2692,7.2692,7.2692,7.2692,7.2761,7.314,7.3796,7.3854,7.4292,7.5018,7.5787,7.6132,7.6246,7.6925,7.7201,7.7201,7.7201,7.7201,7.7201,7.727,7.7764,7.843,7.8465,7.8936,7.9523,7.9557,7.9592,7.9557,7.9523,7.9488,7.9488,7.9488,7.9488,7.9488,7.9488,7.9488,7.9488,7.9488,7.8971,7.8499,7.8499,7.7867,7.7373,7.7373,7.7373,7.7373,7.7373,7.7373,7.7373,7.7373,0.0,0.0,0.0,0.0,0.0,0.0,7.7373,7.7649,0.0,0.0,0.0,0.0,0.0,7.9178,8.0545,8.0649,8.104,8.181,8.181,8.181,8.181,8.181,8.181,8.181,8.181,8.181,8.181,8.181,8.181,8.181,8.181,8.181,8.181,8.181,8.181,8.181,8.181,8.181,8.181,0.0,0.0,7.037,7.1129,7.1232,7.1508,7.2312,7.2416,7.2485,7.2692,7.2692,7.2692,7.2692,7.2692,7.2692,7.2692,7.2692,7.2692,7.2692,7.2692,7.2692,7.2692,7.2692,7.2692,7.2692,7.2692,7.2692,7.2692,7.2692,7.2692,7.2726,7.3278,7.3623,7.3819,7.4384,7.5063,7.5822,7.604,7.6408,7.6959,7.7132,7.7201,7.7201,7.7201,7.7201,7.727,7.7902,7.8247,7.8488,7.904,7.935,7.9592,8.0178,8.0339,8.0247,7.966,7.9488,7.9488,7.9488,7.9488,7.9488,7.9488,7.9488,7.9488,7.9488,7.935,7.9247,7.9247,7.9074,7.8971,7.8971,7.8971,7.8971,7.8971,7.8971,7.8971,7.8971,7.8971,0.0,0.0,7.8971,7.8971,7.8971,7.8971,7.904,0.0,0.0,0.0,0.0,8.0166,8.0247,8.0592,8.1212,8.1603,8.181,8.181,8.181,8.181,8.181,8.181,8.181,8.181,8.181,8.181,8.181,8.181,8.181,8.181,8.181,8.181,8.181,8.181,8.181,8.181,8.181,8.181,7.0749,7.0887,7.1163,7.1922,7.2071,7.2209,7.2623,7.2692,7.2692,7.2692,7.2692,7.2692,7.2692,7.2692,7.2692,7.2692,7.2692,7.2692,7.2692,7.2692,7.2692,7.2692,7.2692,7.2692,7.2692,7.2692,7.2864,7.3209,7.3209,7.3371,7.3705,7.4119,7.4499,7.4878,7.5281,7.5891,7.658,7.658,7.6822,7.7201,7.7201,7.7201,7.7201,7.7201,7.7419,7.7798,7.8247,7.8833,7.9454,7.9867,8.0247,8.0626,8.1005,8.1143,8.1074,8.0661,8.0557,8.0557,8.0557,8.0557,8.0557,8.0557,8.0557,8.0557,8.0557,8.0281,8.0005,8.0005,7.9729,7.9488,7.9488,7.9488,7.9488,7.9488,7.9488,7.9488,7.9488,7.9488,0.0,7.9488,7.9488,7.9488,7.9488,7.9488,7.9626,7.9971,0.0,0.0,8.1109,8.1143,8.1143,8.1143,8.1557,8.181,8.181,8.181,8.181,8.181,8.181,8.181,8.181,8.181,8.181,8.181,8.181,8.181,8.181,8.181,8.181,8.181,8.181,8.181,8.181,8.181,8.181,8.181,7.1543,7.1681,7.1888,7.2588,7.2692,7.2692,7.2692,7.2692,7.2692,7.2692,7.2692,7.2692,7.2692,7.2692,7.2726,7.2864,7.2832,7.2787,7.2692,7.2692,7.2761,7.2864,7.2864,7.2933,7.3037,7.3026,7.3337,7.3957,7.3957,7.4292,7.4914,7.5018,7.5442,7.6109,7.6212,7.6615,7.7201,7.7201,7.7201,7.7201,7.7201,7.7201,7.7201,7.7339,7.7798,7.8419,7.866,7.9557,8.0614,8.073,8.1247,8.181,8.181,8.181,8.181,8.181,8.181,8.181,8.181,8.181,8.181,8.181,8.181,8.181,8.181,8.1281,8.0798,8.0798,8.0281,7.9833,7.9833,7.9833,7.9833,7.9833,7.9833,7.9833,7.9833,0.0,7.9833,7.9833,7.9833,7.9833,7.9833,7.9833,8.0109,8.073,8.0798,8.1074,0.0,8.181,8.181,8.181,8.181,8.181,8.181,8.181,8.181,8.181,8.181,8.181,8.181,8.181,8.181,8.181,8.181,8.181,8.181,8.181,8.181,8.181,8.181,8.181,8.181,8.181,8.181,8.181,7.2347,7.2519,7.2554,7.2692,7.2692,7.2692,7.2692,7.2692,7.2692,7.2692,7.2692,7.2692,7.2692,7.2692,7.2968,7.3578,7.342,7.3112,7.2716,7.2692,7.2968,7.3589,7.3623,7.3923,7.4546,7.4546,7.4615,7.4718,7.4718,7.4787,7.4914,7.5615,7.596,7.6143,7.6753,7.7097,7.7201,7.7201,7.7201,7.7201,7.7201,7.7201,7.727,7.7936,7.8281,7.8557,7.9798,8.0419,8.0695,8.1385,8.1707,8.181,8.181,8.181,8.181,8.181,8.181,8.181,8.181,8.181,8.181,8.181,8.181,8.181,8.181,8.1707,8.1592,8.1592,8.1523,8.1431,8.1431,8.1431,8.1431,8.1431,8.1431,8.1431,8.1431,0.0,8.1431,8.1431,8.1431,8.1431,8.1431,8.1431,8.15,8.1603,8.1592,8.1672,8.181,8.181,8.181,8.181,8.181,8.181,8.181,8.181,8.181,8.181,8.181,8.181,8.181,8.181,8.181,8.181,8.181,8.181,8.181,8.181,8.181,8.181,8.181,8.181,8.181,8.181,8.181,8.181,7.2623,7.2692,7.2692,7.2692,7.2692,7.2692,7.2692,7.2692,7.2692,7.2692,7.2692,7.2692,7.2692,7.3037,7.3363,7.3568,7.397,7.4073,7.3729,7.374,7.3921,7.4384,7.4384,7.4546,7.488,7.4914,7.5121,7.5546,7.5546,7.5753,7.6166,7.6511,7.6684,7.6718,7.7063,7.7201,7.7201,7.7201,7.7201,7.7201,7.7201,7.7442,7.7902,7.8247,7.8902,7.966,8.035,8.0867,8.1281,8.1661,8.181,8.181,8.181,8.181,8.181,8.181,8.181,8.181,8.181,8.181,8.181,8.181,8.181,8.181,8.181,8.181,8.181,8.181,8.181,8.181,8.181,8.181,8.181,8.181,8.181,0.0,0.0,8.181,8.181,8.181,8.181,8.181,8.181,8.181,8.181,8.181,8.181,8.181,8.181,8.181,8.181,8.181,8.181,8.181,8.181,8.181,8.181,8.181,8.181,8.181,8.181,8.181,8.181,8.181,8.181,8.181,8.181,8.181,8.181,8.181,8.181,8.181,8.181,8.181,8.181,8.181,7.2692,7.2692,7.2692,7.2692,7.2692,7.2692,7.2692,7.2692,7.2692,7.2692,7.2649,7.2676,7.2848,7.3312,7.3686,7.3822,7.4548,7.5016,7.5122,7.5111,7.5142,7.519,7.5328,7.5431,7.5431,7.5431,7.5753,7.635,7.635,7.6649,7.7201,7.7201,7.7201,7.7201,7.7201,7.7201,7.7201,7.7201,7.7201,7.7235,7.7408,7.7833,7.843,7.8764,7.9626,8.0614,8.0821,8.1281,8.181,8.181,8.181,8.181,8.181,8.181,8.181,8.181,8.181,8.181,8.181,8.181,8.181,8.181,8.181,8.181,8.181,8.181,8.181,8.181,8.181,8.181,8.181,8.181,8.181,8.181,0.0,0.0,0.0,8.181,8.181,8.181,8.181,8.181,8.181,8.181,8.181,8.181,8.181,8.181,8.181,8.181,8.181,8.181,8.181,8.181,8.181,8.181,8.181,8.181,8.181,8.181,8.181,8.181,8.181,8.181,8.181,8.181,8.181,8.181,8.181,8.181,8.181,8.181,8.181,8.181,8.181,8.181,7.2692,7.2692,7.2692,7.2692,7.2692,7.2692,7.2692,7.2692,7.2692,7.2692,7.2491,7.2582,7.3268,7.3231,7.3704,7.5026,7.5219,7.5664,7.6576,7.6656,7.6449,7.6029,7.6649,7.7028,7.7028,7.7028,7.7063,7.7132,7.7132,7.7132,7.7201,7.7201,7.7201,7.7201,7.7201,7.7201,7.7201,7.7201,7.7201,7.727,7.8005,7.8361,7.8557,7.9936,8.0523,8.0695,8.1419,8.1741,8.181,8.181,8.181,8.181,8.181,8.181,8.181,8.181,8.181,8.181,8.181,8.181,8.181,8.181,8.181,8.181,8.181,8.181,8.181,8.181,8.181,8.181,8.181,8.181,8.181,8.181,0.0,0.0,8.181,8.181,8.181,8.181,8.181,8.181,8.181,8.181,8.181,8.181,8.181,8.181,8.181,8.181,8.181,8.181,8.181,8.181,8.181,8.181,8.181,8.181,8.181,8.181,8.181,8.181,8.181,8.181,8.181,8.181,8.181,8.181,8.181,8.181,8.181,8.181,8.181,8.181,8.181,8.181,7.2692,7.2692,7.2692,7.2692,7.2692,7.2692,7.2692,7.2554,7.2459,7.2459,7.2256,7.2389,7.3142,7.3544,7.415,7.5025,7.5812,7.6348,7.6599,7.6873,7.6973,7.6787,7.7063,7.7201,7.7201,7.7201,7.7201,7.7201,7.7201,7.7201,7.7201,7.7201,7.7201,7.7201,7.7201,7.7201,7.7235,7.7729,7.7936,7.8005,7.8764,7.935,7.9833,8.0385,8.0902,8.1385,8.1695,8.181,8.181,8.181,8.181,8.181,8.181,8.181,8.181,8.181,8.181,8.181,8.181,8.181,8.181,8.181,8.181,8.181,8.181,8.181,8.181,8.181,8.181,8.181,8.181,8.181,8.181,8.181,0.0,8.181,8.181,8.181,8.181,8.181,8.181,8.181,8.181,8.181,8.181,8.181,8.181,8.181,8.181,8.181,8.181,8.181,8.181,8.181,8.181,8.181,8.181,8.181,8.181,8.181,8.181,8.181,8.181,8.181,8.181,8.181,8.181,8.181,8.181,8.181,8.181,8.181,8.181,8.181,8.181,8.181,7.2692,7.2692,7.2692,7.2692,7.2692,7.2671,7.2586,7.2427,7.2288,7.2223,7.2212,7.2524,7.3286,7.3923,7.4616,7.5294,7.6187,7.6679,7.6588,7.6987,7.7201,7.7201,7.7201,7.7201,7.7201,7.7201,7.7201,7.7201,7.7201,7.7201,7.7201,7.7201,7.7201,7.7201,7.7201,7.7339,7.7615,7.8178,7.8522,7.8798,7.9557,8.0143,8.0626,8.0867,8.1316,8.181,8.181,8.181,8.181,8.181,8.181,8.181,8.181,8.181,8.181,8.181,8.181,8.181,8.181,8.181,8.181,8.181,8.181,8.181,8.181,8.181,8.181,8.181,8.181,8.181,8.181,8.181,8.181,8.181,8.181,8.181,8.181,8.181,8.181,8.181,8.181,8.181,8.181,8.181,8.181,8.181,8.181,8.181,8.181,8.181,8.181,8.181,8.181,8.181,8.181,8.181,8.181,8.181,8.181,8.181,8.181,8.181,8.181,8.181,8.181,8.181,8.181,8.181,8.181,8.181,8.181,8.181,8.181,8.181,8.181,8.181,7.2692,7.2692,7.2692,7.2692,7.2692,7.2607,7.2352,7.2309,7.2234,7.2018,7.2403,7.3006,7.381,7.4327,7.498,7.6019,7.6344,7.6599,7.6782,7.7043,7.7201,7.7201,7.7201,7.7201,7.7201,7.7201,7.7201,7.7201,7.7201,7.7201,7.7201,7.7201,7.7201,7.7201,7.7201,7.766,7.8385,7.843,7.8833,7.9557,8.0316,8.0626,8.0695,8.1488,8.181,8.181,8.181,8.181,8.181,8.181,8.181,8.181,8.181,8.181,8.181,8.181,8.181,8.181,8.181,8.181,8.181,8.181,8.181,8.181,8.181,8.181,8.181,8.181,8.181,8.181,8.181,8.181,8.181,8.181,8.181,8.181,8.181,8.181,8.181,8.181,8.181,8.181,8.181,8.181,8.181,8.181,8.181,8.181,8.181,8.181,8.181,8.181,8.181,8.181,8.181,8.181,8.181,8.181,8.181,8.181,8.181,8.181,8.181,8.181,8.181,8.181,8.181,8.181,8.181,8.181,8.181,8.181,8.181,8.181,8.181,8.181,7.2692,7.2692,7.2639,7.2459,7.2427,7.2352,7.2115,7.1918,7.1981,7.2448,7.2508,7.2971,7.4258,7.4527,7.498,7.6019,7.6344,7.6668,7.7077,7.6986,7.6998,7.7201,7.7201,7.7201,7.7201,7.7201,7.7201,7.7201,7.7201,7.7201,7.7201,7.7201,7.7201,7.7201,7.7201,7.766,7.8419,7.8936,7.9592,8.0339,8.1143,8.1419,8.1466,8.1707,8.181,8.181,8.181,8.181,8.181,8.181,8.181,8.181,8.181,8.181,8.181,8.181,8.181,8.181,8.181,8.181,8.181,8.181,8.181,8.181,8.181,8.181,8.181,8.181,8.181,8.181,8.181,8.181,8.181,8.181,8.181,8.181,8.181,8.181,8.181,8.181,8.181,8.181,8.181,8.181,8.181,8.181,8.181,8.181,8.181,8.181,8.181,8.181,8.181,8.181,8.181,8.181,8.181,8.181,8.181,8.181,8.181,8.181,8.181,8.181,8.181,8.181,8.181,8.181,8.181,8.181,8.181,8.181,8.181,8.181,8.181,8.181,7.2692,7.2607,7.2491,7.2341,7.2245,7.2115,7.1887,7.1961,7.2168,7.2542,7.2982,7.3612,7.4514,7.4852,7.533,7.6053,7.6344,7.6622,7.6907,7.685,7.685,7.702,7.7156,7.7201,7.7201,7.7201,7.7201,7.7201,7.7201,7.7201,7.7201,7.7201,7.7201,7.7201,7.7511,7.8109,7.8867,7.9626,8.0385,8.1109,8.1603,8.181,8.181,8.181,8.181,8.181,8.181,8.181,8.181,8.181,8.181,8.181,8.181,8.181,8.181,8.181,8.181,8.181,8.181,8.181,8.181,8.181,8.181,8.181,8.181,8.181,8.181,8.181,8.181,8.181,8.181,8.181,8.181,8.181,8.181,8.181,8.181,8.181,8.181,8.181,8.181,8.181,8.181,8.181,8.181,8.181,8.181,8.181,8.181,8.181,8.181,8.181,8.181,8.181,8.181,8.181,8.181,8.181,8.181,8.181,8.181,8.181,8.181,8.181,8.181,8.181,8.181,8.181,8.181,8.181,8.181,8.181,8.181,8.181,8.181,8.181,7.2671,7.2469,7.2298,7.2221,7.2094,7.191,7.1713,7.2236,7.2655,7.2586,7.377,7.4615,7.4683,7.5303,7.5805,7.6075,7.6321,7.6483,7.653,7.6679,7.6782,7.6816,7.7054,7.7201,7.7201,7.7201,7.7201,7.7201,7.7201,7.7201,7.7201,7.7201,7.7235,7.7339,7.8074,7.8833,7.9626,8.0316,8.1074,8.181,8.181,8.181,8.181,8.181,8.181,8.181,8.181,8.181,8.181,8.181,8.1787,8.1775,8.1775,8.1775,8.1775,8.1775,8.1787,8.181,8.181,8.181,8.181,8.181,8.181,8.181,8.181,8.181,8.181,8.181,8.181,8.181,8.181,8.181,8.181,8.181,8.181,8.181,8.181,8.181,8.181,8.181,8.181,8.181,8.181,8.181,8.181,8.181,8.181,8.181,8.181,8.181,8.181,8.181,8.181,8.181,8.181,8.181,8.181,8.181,8.181,8.181,8.181,8.181,8.181,8.181,8.181,8.181,8.181,8.181,8.181,8.181,8.181,8.181,8.181,8.181,8.181,8.181,7.2437,7.2352,7.2167,7.182,7.171,7.1804,7.2169,7.2372,7.2846,7.3984,7.4412,7.4818,7.5405,7.5608,7.5805,7.6075,7.6157,7.6322,7.6725,7.6622,7.6748,7.7111,7.7178,7.7201,7.7201,7.7201,7.7201,7.7201,7.7201,7.7201,7.7201,7.7201,7.7546,7.8143,7.8316,7.9143,8.0373,8.0523,8.1074,8.181,8.181,8.181,8.181,8.181,8.181,8.181,8.181,8.181,8.181,8.181,8.1645,8.1478,8.1478,8.1478,8.1478,8.1478,8.1656,8.181,8.181,8.181,8.181,8.181,8.181,8.181,8.181,8.181,8.181,8.181,8.181,8.181,8.181,8.181,8.181,8.181,8.181,8.181,8.181,8.181,8.181,8.181,8.181,8.181,8.181,8.181,8.181,8.181,8.181,8.181,8.181,8.181,8.181,8.181,8.181,8.181,8.181,8.181,8.181,8.181,8.181,8.181,8.181,8.181,8.181,8.181,8.181,8.181,8.181,8.181,8.181,8.181,8.181,8.181,8.181,8.181,8.181,8.181,7.2202,7.2038,7.1886,7.1644,7.1817,7.2067,7.2349,7.3003,7.3747,7.4514,7.492,7.527,7.5676,7.5709,7.5757,7.5888,7.5899,7.6017,7.6253,7.6287,7.6483,7.6851,7.6941,7.7054,7.7201,7.7201,7.7201,7.7201,7.7201,7.7201,7.7201,7.7201,7.7626,7.843,7.8764,7.9557,8.0626,8.1005,8.1419,8.181,8.181,8.181,8.181,8.181,8.181,8.181,8.181,8.181,8.1787,8.1668,8.1502,8.1369,8.1248,8.1297,8.1393,8.1393,8.1573,8.181,8.181,8.181,8.181,8.181,8.181,8.181,8.181,8.181,8.181,8.181,8.181,8.181,8.181,8.181,8.181,8.181,8.181,8.181,8.181,8.181,8.181,8.181,8.181,8.181,8.181,8.181,8.181,8.181,8.181,8.181,8.181,8.181,8.181,8.181,8.181,8.181,8.181,8.181,8.181,8.181,8.181,8.181,8.181,8.181,8.181,8.181,8.181,8.181,8.181,8.181,8.181,8.181,8.181,8.181,8.181,8.181,8.181,8.181,7.1974,7.1743,7.1589,7.1545,7.2022,7.2428,7.2563,7.3747,7.4649,7.4784,7.5337,7.5709,7.5709,7.5709,7.5709,7.5709,7.5709,7.5733,7.5769,7.5992,7.6227,7.6483,7.6702,7.6918,7.7145,7.7178,7.7201,7.7201,7.7201,7.7201,7.7201,7.7201,7.7695,7.8591,7.9212,7.9948,8.0762,8.1511,8.1775,8.1751,8.1787,8.181,8.181,8.181,8.181,8.181,8.181,8.1775,8.1715,8.1514,8.1393,8.1297,8.1127,8.1224,8.1393,8.1393,8.1573,8.181,8.181,8.181,8.181,8.181,8.181,8.181,8.181,8.181,8.181,8.181,8.181,8.181,8.181,8.181,8.181,8.181,8.181,8.181,8.181,8.181,8.181,8.181,8.181,8.181,8.181,8.181,8.181,8.181,8.181,8.181,8.181,8.181,8.181,8.181,8.181,8.181,8.181,8.181,8.181,8.181,8.181,8.181,8.181,8.181,8.181,8.181,8.181,8.181,8.181,8.181,8.181,8.181,8.181,8.181,8.181,8.181,8.181,8.181,7.1699,7.1622,7.1534,7.1356,7.1932,7.2631,7.3251,7.4052,7.4818,7.5473,7.5642,7.5709,7.5709,7.5709,7.5709,7.5709,7.5709,7.5805,7.604,7.6087,7.6227,7.6483,7.6702,7.6805,7.6839,7.7065,7.7201,7.7201,7.7201,7.7201,7.7201,7.7201,7.7959,7.935,7.9454,8.0164,8.1316,8.1646,8.168,8.1466,8.1727,8.181,8.181,8.181,8.181,8.181,8.181,8.1668,8.1478,8.1691,8.143,8.109,8.1285,8.1369,8.1393,8.1393,8.1573,8.181,8.181,8.181,8.181,8.181,8.181,8.181,8.181,8.181,8.181,8.181,8.181,8.181,8.181,8.181,8.181,8.181,8.181,8.181,8.181,8.181,8.181,8.181,8.181,8.181,8.181,8.181,8.181,8.181,8.181,8.181,8.181,8.181,8.181,8.181,8.181,8.181,8.181,8.181,8.181,8.181,8.181,8.181,8.181,8.181,8.181,8.181,8.181,8.181,8.181,8.181,8.181,8.181,8.181,8.181,8.181,8.181,8.181,8.181,7.1479,7.1773,7.2011,7.1932,7.2868,7.3736,7.4052,7.4728,7.5337,7.5676,7.5709,7.5709,7.5709,7.5709,7.5709,7.5709,7.5709,7.5757,7.5864,7.5864,7.6041,7.6483,7.6599,7.6748,7.7009,7.7156,7.7201,7.7201,7.7201,7.7201,7.7201,7.766,7.8374,7.928,7.9715,8.0375,8.1188,8.1454,8.1502,8.1417,8.1703,8.181,8.181,8.181,8.181,8.1787,8.1644,8.149,8.1393,8.1357,8.12,8.1029,8.1139,8.1273,8.1393,8.1393,8.1573,8.181,8.181,8.181,8.181,8.181,8.181,8.181,8.181,8.181,8.181,8.181,8.181,8.181,8.181,8.181,8.181,8.181,8.181,8.181,8.181,8.181,8.181,8.181,8.181,8.181,8.181,8.181,8.181,8.181,8.181,8.181,8.181,8.181,8.181,8.181,8.181,8.181,8.181,8.181,8.181,8.181,8.181,8.181,8.181,8.181,8.181,8.181,8.181,8.181,8.181,8.181,8.181,8.181,8.181,8.181,8.181,8.181,8.181,8.181]},{"header":{"parameterUnit":"m.s-1","parameterCategory":1,"la1":30.6,"la2":28.766,"lo1":-90.7593,"lo2":-88.6598,"dx":0.0162,"dy":0.0183,"nx":116,"ny":114,"refTime":"2023-01-31T06:00:00:Z","depth":0,"parameterNumber":3,"parameterNumberName":"V-component_of_WINDS"},"data":[0.0,0.0,0.0,0.0,0.0,0.0,0.0,0.0,0.0,0.0,0.0,0.0,0.0,0.0,0.0,0.0,0.0,0.0,0.0,0.0,0.0,0.0,0.0,0.0,0.0,0.0,0.0,0.0,0.0,0.0,0.0,0.0,0.0,0.0,0.0,0.0,0.0,0.0,0.0,0.0,0.0,0.0,0.0,0.0,0.0,0.0,0.0,0.0,0.0,0.0,0.0,0.0,0.0,0.0,0.0,0.0,0.0,0.0,0.0,0.0,0.0,0.0,0.0,0.0,0.0,0.0,0.0,0.0,0.0,0.0,0.0,0.0,0.0,0.0,0.0,0.0,0.0,0.0,0.0,0.0,0.0,0.0,0.0,0.0,0.0,0.0,0.0,0.0,0.0,0.0,0.0,0.0,0.0,0.0,0.0,0.0,0.0,0.0,0.0,0.0,0.0,0.0,0.0,0.0,0.0,0.0,0.0,0.0,0.0,0.0,0.0,0.0,0.0,0.0,0.0,0.0,0.0,0.0,0.0,0.0,0.0,0.0,0.0,0.0,0.0,0.0,0.0,0.0,0.0,0.0,0.0,0.0,0.0,0.0,0.0,0.0,0.0,0.0,0.0,0.0,0.0,0.0,0.0,0.0,0.0,0.0,0.0,0.0,0.0,0.0,0.0,0.0,0.0,0.0,0.0,0.0,0.0,0.0,0.0,0.0,0.0,0.0,0.0,0.0,0.0,0.0,0.0,0.0,0.0,0.0,0.0,0.0,0.0,0.0,0.0,0.0,0.0,0.0,0.0,0.0,0.0,0.0,0.0,0.0,0.0,0.0,0.0,0.0,0.0,0.0,0.0,0.0,0.0,0.0,0.0,0.0,0.0,0.0,0.0,0.0,0.0,0.0,0.0,0.0,0.0,0.0,0.0,0.0,0.0,0.0,0.0,0.0,0.0,0.0,0.0,0.0,0.0,0.0,0.0,0.0,0.0,0.0,0.0,0.0,0.0,0.0,0.0,0.0,0.0,0.0,0.0,0.0,0.0,0.0,0.0,0.0,0.0,0.0,0.0,0.0,0.0,0.0,0.0,0.0,0.0,0.0,0.0,0.0,0.0,0.0,0.0,0.0,0.0,0.0,0.0,0.0,0.0,0.0,0.0,0.0,0.0,0.0,0.0,0.0,0.0,0.0,0.0,0.0,0.0,0.0,0.0,0.0,0.0,0.0,0.0,0.0,0.0,0.0,0.0,0.0,0.0,0.0,0.0,0.0,0.0,0.0,0.0,0.0,0.0,0.0,0.0,0.0,0.0,0.0,0.0,0.0,0.0,0.0,0.0,0.0,0.0,0.0,0.0,0.0,0.0,0.0,0.0,0.0,0.0,0.0,0.0,0.0,0.0,0.0,0.0,0.0,0.0,0.0,0.0,0.0,0.0,0.0,0.0,0.0,0.0,0.0,0.0,0.0,0.0,0.0,0.0,0.0,0.0,0.0,0.0,0.0,0.0,0.0,0.0,0.0,0.0,0.0,0.0,0.0,0.0,0.0,0.0,0.0,0.0,0.0,0.0,0.0,0.0,0.0,0.0,0.0,0.0,0.0,0.0,0.0,0.0,0.0,0.0,0.0,0.0,0.0,0.0,0.0,0.0,0.0,0.0,0.0,0.0,0.0,0.0,0.0,0.0,0.0,0.0,0.0,0.0,0.0,0.0,0.0,0.0,0.0,0.0,0.0,0.0,0.0,0.0,0.0,0.0,0.0,0.0,0.0,0.0,0.0,0.0,0.0,0.0,0.0,0.0,0.0,0.0,0.0,0.0,0.0,0.0,0.0,0.0,0.0,0.0,0.0,0.0,0.0,0.0,0.0,0.0,0.0,0.0,0.0,0.0,0.0,0.0,0.0,0.0,0.0,0.0,0.0,0.0,0.0,0.0,0.0,0.0,0.0,0.0,0.0,0.0,0.0,0.0,0.0,0.0,0.0,0.0,0.0,0.0,0.0,0.0,0.0,0.0,0.0,0.0,0.0,0.0,0.0,0.0,0.0,0.0,0.0,0.0,0.0,0.0,0.0,0.0,0.0,0.0,0.0,0.0,0.0,0.0,0.0,0.0,0.0,0.0,0.0,0.0,0.0,0.0,0.0,0.0,0.0,0.0,0.0,0.0,0.0,0.0,0.0,0.0,0.0,0.0,0.0,0.0,0.0,0.0,0.0,0.0,0.0,0.0,0.0,0.0,0.0,0.0,0.0,0.0,0.0,0.0,0.0,0.0,0.0,0.0,0.0,0.0,0.0,0.0,0.0,0.0,0.0,0.0,0.0,0.0,0.0,0.0,0.0,0.0,0.0,0.0,0.0,0.0,0.0,0.0,0.0,0.0,0.0,0.0,0.0,0.0,0.0,0.0,0.0,0.0,0.0,0.0,0.0,0.0,0.0,0.0,0.0,0.0,0.0,0.0,0.0,0.0,0.0,0.0,0.0,0.0,0.0,0.0,0.0,0.0,0.0,0.0,0.0,0.0,0.0,0.0,0.0,0.0,0.0,0.0,0.0,0.0,0.0,0.0,0.0,0.0,0.0,0.0,0.0,0.0,0.0,0.0,0.0,0.0,0.0,0.0,0.0,0.0,0.0,0.0,0.0,0.0,0.0,0.0,0.0,0.0,0.0,0.0,0.0,0.0,0.0,0.0,0.0,0.0,0.0,0.0,0.0,0.0,0.0,0.0,0.0,0.0,0.0,0.0,0.0,0.0,0.0,0.0,0.0,0.0,0.0,0.0,0.0,0.0,0.0,0.0,0.0,0.0,0.0,0.0,0.0,0.0,0.0,0.0,0.0,0.0,0.0,0.0,0.0,0.0,0.0,0.0,0.0,0.0,0.0,0.0,0.0,0.0,0.0,0.0,0.0,0.0,0.0,0.0,0.0,0.0,0.0,0.0,0.0,0.0,0.0,0.0,0.0,0.0,0.0,0.0,0.0,0.0,0.0,0.0,0.0,0.0,0.0,0.0,0.0,0.0,0.0,0.0,0.0,0.0,0.0,0.0,0.0,0.0,0.0,0.0,0.0,0.0,0.0,0.0,0.0,0.0,0.0,0.0,0.0,0.0,0.0,0.0,0.0,0.0,0.0,0.0,0.0,0.0,0.0,0.0,0.0,0.0,0.0,0.0,0.0,0.0,0.0,0.0,0.0,0.0,0.0,0.0,0.0,0.0,0.0,0.0,0.0,0.0,0.0,0.0,0.0,0.0,0.0,0.0,0.0,0.0,0.0,0.0,0.0,0.0,0.0,0.0,0.0,0.0,0.0,0.0,0.0,0.0,0.0,0.0,0.0,0.0,0.0,0.0,0.0,0.0,0.0,0.0,0.0,0.0,0.0,0.0,0.0,0.0,0.0,0.0,0.0,0.0,0.0,0.0,0.0,0.0,0.0,0.0,0.0,0.0,0.0,0.0,0.0,0.0,0.0,0.0,0.0,0.0,0.0,0.0,0.0,0.0,0.0,0.0,0.0,0.0,0.0,0.0,0.0,0.0,0.0,0.0,0.0,0.0,0.0,0.0,0.0,0.0,0.0,0.0,0.0,0.0,0.0,0.0,0.0,0.0,0.0,0.0,0.0,0.0,0.0,0.0,0.0,0.0,0.0,0.0,0.0,0.0,0.0,0.0,0.0,0.0,0.0,0.0,0.0,0.0,0.0,0.0,0.0,0.0,0.0,0.0,0.0,0.0,0.0,0.0,0.0,0.0,0.0,0.0,0.0,0.0,0.0,0.0,0.0,0.0,0.0,0.0,0.0,0.0,0.0,0.0,0.0,0.0,0.0,0.0,0.0,0.0,0.0,0.0,0.0,0.0,0.0,0.0,0.0,0.0,0.0,0.0,0.0,0.0,0.0,0.0,0.0,0.0,0.0,0.0,0.0,0.0,0.0,0.0,0.0,0.0,0.0,0.0,0.0,0.0,0.0,0.0,0.0,0.0,0.0,0.0,0.0,0.0,0.0,0.0,0.0,0.0,0.0,0.0,0.0,0.0,0.0,0.0,0.0,0.0,0.0,0.0,0.0,0.0,0.0,0.0,0.0,0.0,0.0,0.0,0.0,0.0,0.0,0.0,0.0,0.0,0.0,0.0,0.0,0.0,0.0,0.0,0.0,0.0,0.0,0.0,0.0,0.0,0.0,0.0,0.0,0.0,0.0,0.0,0.0,0.0,0.0,0.0,0.0,0.0,0.0,0.0,0.0,0.0,0.0,0.0,0.0,0.0,0.0,0.0,0.0,0.0,0.0,0.0,0.0,0.0,0.0,0.0,0.0,0.0,0.0,0.0,0.0,0.0,0.0,0.0,0.0,0.0,0.0,0.0,0.0,0.0,0.0,0.0,0.0,0.0,0.0,0.0,0.0,0.0,0.0,0.0,0.0,0.0,0.0,0.0,0.0,0.0,0.0,0.0,0.0,0.0,0.0,0.0,0.0,0.0,0.0,0.0,0.0,0.0,0.0,0.0,0.0,0.0,0.0,0.0,0.0,0.0,0.0,0.0,0.0,0.0,0.0,0.0,0.0,0.0,0.0,0.0,0.0,0.0,0.0,0.0,0.0,0.0,0.0,0.0,0.0,0.0,0.0,0.0,0.0,0.0,0.0,0.0,0.0,0.0,0.0,0.0,0.0,0.0,0.0,0.0,0.0,0.0,0.0,0.0,0.0,0.0,0.0,0.0,0.0,0.0,0.0,0.0,0.0,0.0,0.0,0.0,0.0,0.0,0.0,0.0,0.0,0.0,0.0,0.0,0.0,0.0,0.0,0.0,0.0,0.0,0.0,0.0,0.0,0.0,0.0,0.0,0.0,0.0,0.0,0.0,0.0,0.0,0.0,0.0,0.0,0.0,0.0,0.0,0.0,0.0,0.0,0.0,0.0,0.0,0.0,0.0,0.0,0.0,0.0,0.0,0.0,0.0,0.0,0.0,0.0,0.0,0.0,0.0,0.0,0.0,0.0,0.0,0.0,0.0,0.0,0.0,0.0,0.0,0.0,0.0,0.0,0.0,0.0,0.0,0.0,0.0,0.0,0.0,0.0,0.0,0.0,0.0,0.0,0.0,0.0,0.0,0.0,0.0,0.0,0.0,0.0,0.0,0.0,0.0,0.0,0.0,0.0,0.0,0.0,0.0,0.0,0.0,0.0,0.0,0.0,0.0,0.0,0.0,0.0,0.0,0.0,0.0,0.0,0.0,0.0,0.0,0.0,0.0,0.0,0.0,0.0,0.0,0.0,0.0,0.0,0.0,0.0,0.0,0.0,0.0,0.0,0.0,0.0,0.0,0.0,0.0,0.0,0.0,0.0,0.0,0.0,0.0,0.0,0.0,0.0,0.0,0.0,0.0,0.0,0.0,0.0,0.0,0.0,0.0,0.0,0.0,0.0,0.0,0.0,0.0,0.0,0.0,0.0,0.0,0.0,0.0,0.0,0.0,0.0,0.0,0.0,0.0,0.0,0.0,0.0,0.0,0.0,0.0,0.0,0.0,0.0,0.0,0.0,0.0,0.0,0.0,0.0,0.0,0.0,0.0,0.0,0.0,0.0,0.0,0.0,0.0,0.0,0.0,0.0,0.0,0.0,0.0,0.0,0.0,0.0,0.0,0.0,0.0,0.0,0.0,0.0,0.0,0.0,0.0,0.0,0.0,0.0,0.0,0.0,0.0,0.0,0.0,0.0,0.0,0.0,0.0,0.0,0.0,0.0,0.0,0.0,0.0,0.0,0.0,0.0,0.0,0.0,0.0,0.0,0.0,0.0,0.0,0.0,0.0,0.0,0.0,0.0,0.0,0.0,0.0,0.0,0.0,0.0,0.0,0.0,0.0,0.0,0.0,0.0,0.0,0.0,0.0,0.0,0.0,0.0,0.0,0.0,0.0,0.0,0.0,0.0,0.0,0.0,0.0,0.0,0.0,0.0,0.0,0.0,0.0,0.0,0.0,0.0,0.0,0.0,0.0,0.0,0.0,0.0,0.0,0.0,0.0,0.0,0.0,0.0,0.0,0.0,0.0,0.0,0.0,0.0,0.0,0.0,0.0,0.0,0.0,0.0,0.0,0.0,0.0,0.0,0.0,0.0,0.0,0.0,0.0,0.0,0.0,0.0,2.078,0.0,0.0,0.0,0.0,0.0,0.0,0.0,0.0,0.0,0.0,0.0,0.0,0.0,0.0,0.0,0.0,0.0,0.0,0.0,0.0,0.0,0.0,0.0,0.0,0.0,0.0,0.0,0.0,0.0,0.0,0.0,0.0,0.0,0.0,0.0,0.0,0.0,0.0,0.0,0.0,0.0,0.0,0.0,0.0,0.0,0.0,0.0,0.0,0.0,0.0,0.0,0.0,0.0,0.0,0.0,0.0,0.0,0.0,0.0,0.0,0.0,0.0,0.0,0.0,0.0,0.0,0.0,0.0,0.0,0.0,0.0,0.0,0.0,0.0,0.0,0.0,0.0,0.0,0.0,0.0,0.0,0.0,0.0,0.0,0.0,0.0,0.0,0.0,0.0,0.0,0.0,0.0,0.0,0.0,0.0,0.0,0.0,0.0,0.0,0.0,0.0,0.0,0.0,0.0,0.0,0.0,0.0,0.0,0.0,0.0,0.0,0.0,0.0,0.0,0.0,0.0,2.134,0.0,0.0,0.0,0.0,0.0,0.0,0.0,0.0,0.0,0.0,0.0,0.0,0.0,0.0,0.0,0.0,0.0,0.0,0.0,0.0,0.0,0.0,0.0,0.0,0.0,0.0,0.0,0.0,0.0,0.0,0.0,0.0,0.0,0.0,0.0,0.0,0.0,0.0,0.0,0.0,0.0,0.0,0.0,0.0,0.0,0.0,0.0,0.0,0.0,0.0,0.0,0.0,0.0,0.0,0.0,0.0,0.0,0.0,0.0,0.0,0.0,0.0,0.0,0.0,0.0,0.0,0.0,0.0,0.0,0.0,0.0,0.0,0.0,0.0,0.0,0.0,0.0,0.0,0.0,0.0,0.0,0.0,0.0,0.0,0.0,0.0,0.0,0.0,0.0,0.0,0.0,0.0,0.0,0.0,0.0,0.0,0.0,0.0,0.0,0.0,0.0,0.0,0.0,0.0,0.0,0.0,0.0,0.0,2.1242,2.1422,2.1744,2.2019,2.2444,2.2933,2.2151,2.1949,2.2181,0.0,0.0,0.0,0.0,0.0,0.0,0.0,0.0,0.0,0.0,0.0,0.0,0.0,0.0,0.0,0.0,0.0,0.0,0.0,0.0,0.0,0.0,0.0,0.0,0.0,0.0,0.0,0.0,0.0,0.0,0.0,0.0,0.0,0.0,0.0,0.0,0.0,0.0,0.0,0.0,0.0,0.0,0.0,0.0,0.0,0.0,0.0,0.0,0.0,0.0,0.0,0.0,0.0,0.0,0.0,0.0,0.0,0.0,0.0,0.0,0.0,0.0,0.0,0.0,0.0,0.0,0.0,0.0,0.0,0.0,0.0,0.0,0.0,0.0,0.0,0.0,0.0,0.0,0.0,0.0,0.0,0.0,0.0,0.0,0.0,0.0,0.0,1.9104,1.9104,0.0,0.0,0.0,0.0,0.0,0.0,0.0,0.0,0.0,0.0,0.0,0.0,0.0,2.0749,2.1361,2.1378,2.164,2.2231,2.2231,2.2506,2.305,2.3102,2.3323,2.3665,2.3546,0.0,2.3541,2.3563,0.0,0.0,0.0,0.0,0.0,0.0,0.0,0.0,0.0,0.0,0.0,0.0,0.0,0.0,0.0,0.0,0.0,0.0,0.0,0.0,0.0,0.0,0.0,0.0,0.0,0.0,0.0,0.0,0.0,0.0,0.0,0.0,0.0,0.0,0.0,0.0,0.0,0.0,0.0,0.0,0.0,0.0,0.0,0.0,0.0,0.0,0.0,0.0,0.0,0.0,0.0,0.0,0.0,0.0,0.0,0.0,0.0,0.0,0.0,0.0,0.0,0.0,0.0,0.0,0.0,0.0,0.0,0.0,0.0,0.0,0.0,0.0,0.0,0.0,0.0,0.0,0.0,0.0,0.0,0.0,0.0,0.0,0.0,0.0,0.0,1.9264,1.9376,1.9376,1.9679,1.9807,0.0,0.0,0.0,0.0,0.0,0.0,0.0,0.0,0.0,2.1333,2.1333,2.1559,2.1998,2.2015,2.232,2.2909,2.2909,2.3136,2.3581,2.3581,2.3741,2.4008,2.4008,2.4102,2.4249,2.4075,2.3918,2.3787,0.0,0.0,0.0,0.0,2.4262,2.4262,0.0,0.0,0.0,0.0,0.0,0.0,0.0,0.0,0.0,0.0,0.0,0.0,0.0,0.0,0.0,0.0,0.0,0.0,0.0,0.0,0.0,0.0,0.0,0.0,0.0,0.0,0.0,0.0,0.0,0.0,0.0,0.0,0.0,0.0,0.0,0.0,0.0,0.0,0.0,0.0,0.0,0.0,0.0,0.0,0.0,0.0,0.0,0.0,0.0,0.0,0.0,0.0,0.0,0.0,0.0,0.0,0.0,0.0,0.0,0.0,0.0,0.0,0.0,0.0,0.0,0.0,0.0,0.0,0.0,0.0,0.0,0.0,0.0,0.0,0.0,0.0,0.0,1.9568,1.9727,1.9727,2.0014,2.0186,0.0,0.0,0.0,0.0,0.0,0.0,2.1267,2.1739,2.2034,2.2098,2.2098,2.2231,2.2525,2.2588,2.2869,2.3292,2.3389,2.3594,2.3906,2.3906,2.4035,2.4297,2.4297,2.4417,2.4586,2.4377,2.4297,2.4324,2.4519,2.4599,2.4599,2.4599,2.4599,2.4599,0.0,0.0,0.0,0.0,0.0,0.0,0.0,0.0,0.0,0.0,0.0,0.0,0.0,0.0,0.0,0.0,0.0,0.0,0.0,0.0,0.0,0.0,0.0,0.0,0.0,0.0,0.0,0.0,0.0,0.0,0.0,0.0,0.0,0.0,0.0,0.0,0.0,0.0,0.0,0.0,0.0,0.0,0.0,0.0,0.0,0.0,0.0,0.0,0.0,0.0,0.0,0.0,0.0,0.0,0.0,0.0,0.0,0.0,0.0,0.0,0.0,0.0,0.0,0.0,0.0,0.0,0.0,0.0,0.0,0.0,0.0,0.0,0.0,0.0,0.0,0.0,0.0,0.0,0.0,2.0074,2.0377,0.0,0.0,0.0,0.0,2.0974,2.1578,2.1964,2.1948,2.1977,2.2111,2.2375,2.2375,2.2539,2.2867,2.314,2.3265,2.3292,2.3607,2.3919,2.4182,2.4182,2.4324,2.4572,2.4572,2.4586,2.4599,2.4586,2.4572,2.4572,2.4586,2.4599,2.4599,2.4599,2.4599,2.4599,0.0,0.0,0.0,0.0,0.0,0.0,0.0,0.0,0.0,0.0,0.0,0.0,0.0,0.0,0.0,0.0,0.0,0.0,0.0,0.0,0.0,0.0,0.0,0.0,0.0,0.0,0.0,0.0,0.0,0.0,0.0,0.0,0.0,0.0,0.0,0.0,0.0,0.0,0.0,0.0,0.0,0.0,0.0,0.0,0.0,0.0,0.0,0.0,0.0,0.0,0.0,0.0,0.0,0.0,0.0,0.0,0.0,0.0,0.0,0.0,0.0,0.0,0.0,0.0,0.0,0.0,0.0,0.0,0.0,0.0,0.0,0.0,0.0,0.0,0.0,0.0,0.0,0.0,0.0,2.0425,2.0916,0.0,2.1082,2.1543,2.1798,2.165,2.2015,2.2258,2.2258,2.2462,2.2609,2.2716,2.2882,2.3042,2.3153,2.346,2.3701,2.387,2.3995,2.4195,2.4457,2.4457,2.4506,2.4599,2.4599,2.4599,2.4599,2.4599,2.4599,2.4599,2.4599,2.4599,2.4599,2.4599,2.4599,2.4599,0.0,0.0,0.0,0.0,0.0,0.0,0.0,0.0,0.0,0.0,0.0,0.0,0.0,0.0,0.0,0.0,0.0,0.0,0.0,0.0,0.0,0.0,0.0,0.0,0.0,0.0,0.0,0.0,0.0,0.0,0.0,0.0,0.0,0.0,0.0,0.0,0.0,0.0,0.0,0.0,0.0,0.0,2.1452,0.0,0.0,0.0,0.0,0.0,0.0,0.0,0.0,0.0,0.0,0.0,0.0,0.0,0.0,0.0,0.0,0.0,0.0,0.0,0.0,0.0,0.0,0.0,0.0,0.0,0.0,0.0,0.0,0.0,0.0,0.0,0.0,0.0,0.0,0.0,2.095,2.095,2.141,2.1729,2.1729,2.1981,2.2124,2.2124,2.2405,2.2565,2.2565,2.2876,2.3037,2.3037,2.3313,2.3474,2.3474,2.3785,2.4008,2.4209,2.4284,2.4431,2.4599,2.4599,2.4599,2.4599,2.4599,2.4599,2.4599,2.4599,2.4599,2.4599,2.4599,2.4599,2.4599,2.4599,2.4599,2.4599,0.0,0.0,0.0,0.0,0.0,0.0,0.0,0.0,0.0,0.0,0.0,0.0,0.0,0.0,0.0,0.0,0.0,0.0,0.0,0.0,0.0,0.0,0.0,0.0,0.0,0.0,0.0,0.0,0.0,0.0,0.0,0.0,0.0,0.0,0.0,0.0,0.0,0.0,0.0,0.0,0.0,0.0,2.2304,0.0,0.0,0.0,0.0,0.0,0.0,0.0,0.0,0.0,0.0,0.0,0.0,0.0,0.0,0.0,0.0,0.0,0.0,0.0,0.0,0.0,0.0,0.0,0.0,0.0,0.0,0.0,0.0,0.0,0.0,0.0,0.0,0.0,2.1162,2.1392,2.1612,2.1612,2.185,2.2021,2.2021,2.2258,2.2415,2.2415,2.2729,2.2907,2.2907,2.3201,2.3358,2.3323,2.3687,2.3852,2.3799,2.4075,2.4235,2.4235,2.4511,2.4626,2.4626,2.4626,2.4626,2.4626,2.4626,2.4626,2.4626,2.4626,2.4626,2.4626,2.4613,2.4599,2.4599,2.4599,2.4613,2.4613,0.0,0.0,0.0,0.0,0.0,0.0,0.0,0.0,0.0,0.0,0.0,0.0,0.0,0.0,0.0,0.0,0.0,0.0,0.0,0.0,0.0,0.0,0.0,0.0,0.0,0.0,0.0,0.0,0.0,0.0,0.0,0.0,0.0,0.0,0.0,0.0,0.0,0.0,0.0,0.0,0.0,0.0,2.4738,0.0,0.0,0.0,0.0,0.0,0.0,0.0,0.0,0.0,0.0,0.0,0.0,0.0,0.0,0.0,0.0,0.0,0.0,0.0,0.0,0.0,0.0,0.0,0.0,0.0,0.0,0.0,0.0,0.0,0.0,0.0,0.0,2.1796,2.1502,2.1716,2.1887,2.1887,2.2124,2.2281,2.2281,2.2582,2.2756,2.2756,2.302,2.3193,2.3193,2.4498,2.4771,2.3701,2.5044,2.5216,2.4106,2.4601,2.4855,2.4855,2.5112,2.5258,2.5258,2.5258,2.5258,2.5258,2.5258,2.5258,2.5258,2.5258,2.5258,2.5205,2.4773,2.4599,2.4599,2.4599,2.4751,2.4983,0.0,0.0,0.0,0.0,0.0,0.0,0.0,0.0,0.0,0.0,0.0,0.0,0.0,0.0,0.0,0.0,0.0,0.0,0.0,0.0,0.0,0.0,0.0,0.0,0.0,0.0,0.0,0.0,0.0,0.0,0.0,0.0,0.0,0.0,0.0,0.0,0.0,0.0,0.0,0.0,0.0,0.0,2.6265,2.4765,2.396,2.3428,2.2165,2.181,2.1853,2.1299,0.0,0.0,0.0,0.0,0.0,0.0,0.0,0.0,0.0,0.0,0.0,0.0,0.0,0.0,0.0,0.0,0.0,0.0,0.0,0.0,0.0,0.0,0.0,0.0,2.1994,2.2111,2.1954,2.2074,2.2164,2.2164,2.2418,2.2605,2.2605,2.3475,2.4034,2.4034,2.4881,2.5105,2.4473,2.6181,2.6558,2.5218,2.6276,2.6837,2.6801,2.579,2.561,2.6312,2.5767,2.5499,2.5499,2.5499,2.5499,0.0,2.5499,2.5499,2.5499,2.5499,2.5499,0.0,0.0,0.0,0.0,0.0,2.5098,2.5291,0.0,0.0,0.0,0.0,0.0,0.0,0.0,0.0,0.0,0.0,0.0,0.0,0.0,0.0,0.0,0.0,0.0,0.0,0.0,0.0,0.0,0.0,0.0,0.0,0.0,0.0,0.0,0.0,0.0,0.0,0.0,0.0,0.0,0.0,0.0,0.0,0.0,0.0,0.0,0.0,0.0,0.0,2.7203,2.7067,2.6171,2.4825,2.3558,2.2998,2.2686,2.149,0.0,0.0,0.0,0.0,0.0,0.0,0.0,0.0,0.0,0.0,0.0,0.0,0.0,0.0,0.0,0.0,0.0,0.0,0.0,0.0,0.0,0.0,0.0,0.0,2.2285,2.2455,2.2455,2.2633,2.2684,2.2472,2.2896,2.3191,2.3191,2.483,2.5899,2.5899,2.7425,2.7766,2.6451,0.0,0.0,0.0,0.0,2.8767,3.0381,2.7557,2.6752,2.8025,2.6607,2.5824,2.5646,2.5692,2.5705,2.5705,2.5705,2.5705,2.5705,2.5705,2.5705,2.5705,2.5539,2.5499,2.5499,2.5545,2.5558,0.0,0.0,0.0,0.0,0.0,0.0,0.0,0.0,0.0,0.0,0.0,0.0,0.0,0.0,0.0,0.0,0.0,0.0,0.0,0.0,0.0,0.0,0.0,0.0,0.0,0.0,0.0,0.0,0.0,0.0,0.0,0.0,0.0,0.0,0.0,0.0,0.0,0.0,0.0,0.0,0.0,0.0,0.0,2.8498,2.7414,2.6171,2.4825,2.3558,2.2404,2.1443,2.1188,2.1093,2.1093,2.1093,0.0,0.0,0.0,0.0,0.0,0.0,0.0,0.0,0.0,0.0,0.0,0.0,0.0,0.0,0.0,0.0,0.0,0.0,0.0,0.0,2.2308,2.2579,2.2796,2.2796,2.405,2.4445,2.2977,2.414,2.508,2.508,2.672,2.7766,2.7766,2.8357,2.8708,2.8745,3.0473,3.0945,2.9805,3.1023,3.1254,3.0399,3.0047,2.9336,2.8324,0.0,0.0,2.6553,2.6834,2.6941,2.6941,2.6941,2.6941,2.6941,2.6941,2.6941,2.6847,2.5879,2.5499,2.5525,2.5804,2.5885,2.5925,0.0,0.0,0.0,0.0,0.0,0.0,0.0,0.0,0.0,0.0,0.0,0.0,0.0,0.0,0.0,0.0,0.0,0.0,0.0,0.0,0.0,0.0,0.0,0.0,0.0,0.0,0.0,0.0,0.0,0.0,0.0,0.0,0.0,0.0,0.0,0.0,0.0,0.0,0.0,0.0,0.0,0.0,2.8931,2.8256,2.7579,2.6823,2.5514,2.4193,2.2951,2.2325,2.1648,2.1093,2.1093,2.1093,2.1093,0.0,0.0,0.0,0.0,0.0,0.0,0.0,0.0,0.0,0.0,0.0,0.0,0.0,0.0,2.2047,2.2178,0.0,2.2455,2.2619,2.2783,2.3221,2.4117,2.5031,2.5263,2.4365,2.5847,2.6955,2.6955,2.863,2.9772,2.9989,3.1005,3.1449,3.1066,3.264,3.3026,3.1882,3.2767,3.3363,3.3589,3.2334,3.1705,3.1705,3.1155,3.0454,2.9633,2.8904,2.8604,2.8543,2.7683,2.7309,2.7309,2.7309,2.7309,2.7242,2.6633,2.6406,2.6433,2.66,2.6653,2.6667,0.0,0.0,0.0,0.0,0.0,0.0,0.0,0.0,0.0,0.0,0.0,0.0,0.0,0.0,0.0,0.0,0.0,0.0,0.0,0.0,0.0,0.0,0.0,0.0,0.0,0.0,0.0,0.0,0.0,0.0,0.0,0.0,0.0,0.0,0.0,0.0,0.0,0.0,0.0,0.0,0.0,0.0,2.899,2.899,2.8841,2.8484,2.7383,2.614,2.481,2.3527,2.2388,2.1427,2.1188,2.1093,2.1093,2.1093,2.1093,0.0,0.0,0.0,0.0,0.0,0.0,0.0,0.0,2.1716,2.1823,2.2034,2.2128,2.2248,2.2458,2.2498,2.2694,2.3314,2.342,2.4065,2.5864,2.6435,2.67,2.6778,2.8,2.8868,2.895,3.0648,3.1914,3.2315,3.3677,3.4144,3.3307,3.4522,3.4866,3.4005,3.4313,3.5267,3.6915,3.4611,3.3981,3.4976,3.3674,3.2916,3.2559,3.1198,3.0564,3.0483,2.8746,2.7982,2.7962,2.7613,2.7483,2.7483,2.7483,2.7483,2.7469,2.7349,2.7309,2.7309,0.0,0.0,0.0,0.0,0.0,0.0,0.0,0.0,0.0,0.0,0.0,0.0,0.0,0.0,0.0,0.0,0.0,0.0,0.0,0.0,0.0,0.0,0.0,0.0,0.0,0.0,0.0,0.0,0.0,0.0,0.0,0.0,0.0,0.0,0.0,0.0,0.0,0.0,0.0,0.0,0.0,0.0,2.899,2.899,2.8256,2.7203,2.7052,2.614,2.481,2.3527,2.2998,2.2671,2.1475,2.1093,2.1093,2.1093,0.0,2.1093,2.1093,2.1312,2.1542,2.1542,2.1713,2.1914,0.0,2.2138,2.2321,2.2348,2.2596,2.2813,2.284,2.2853,2.3379,2.5031,2.5312,2.5931,2.7749,2.9432,3.0614,3.0988,3.0889,3.0925,3.1267,3.2967,3.421,3.4593,3.4828,3.5047,3.5267,3.5778,3.6163,3.6395,3.6795,3.7109,3.7318,3.7008,3.6237,3.4996,3.5046,3.4326,3.2945,3.3,3.302,3.2918,3.1167,3.0416,3.0292,2.8742,2.8106,2.8106,2.8106,2.8106,2.8018,2.7496,2.7309,2.7309,0.0,0.0,0.0,0.0,0.0,0.0,0.0,0.0,0.0,0.0,0.0,0.0,0.0,0.0,0.0,0.0,0.0,0.0,0.0,0.0,0.0,0.0,0.0,0.0,0.0,0.0,0.0,0.0,0.0,0.0,0.0,0.0,0.0,0.0,0.0,0.0,0.0,0.0,0.0,0.0,0.0,0.0,2.899,2.899,2.8648,2.8152,2.8152,2.681,0.0,0.0,2.3185,2.1837,2.1283,2.1093,2.1093,2.1093,2.1093,0.0,2.1339,2.1609,2.1836,2.1836,2.1914,2.2047,2.2205,2.2321,2.2472,2.2662,2.2796,2.2947,2.31,2.3873,2.477,2.5678,2.6588,2.7816,2.9671,3.0803,3.1896,3.3126,3.3339,3.3446,3.3607,3.4304,3.4917,3.5321,3.5577,3.587,3.6292,3.6677,3.697,3.7134,3.7538,3.774,3.774,3.7997,3.7754,3.7107,3.7209,3.6903,3.6246,3.5322,3.4355,3.3315,3.1561,3.0809,3.0663,2.8915,2.82,2.82,2.82,2.82,2.8173,2.7932,2.7817,2.7817,0.0,0.0,0.0,0.0,0.0,0.0,0.0,0.0,0.0,0.0,0.0,0.0,0.0,0.0,0.0,0.0,0.0,0.0,0.0,0.0,0.0,0.0,0.0,0.0,0.0,0.0,0.0,0.0,0.0,0.0,0.0,0.0,0.0,0.0,0.0,0.0,0.0,0.0,0.0,0.0,0.0,0.0,2.899,2.899,2.899,2.899,2.899,2.7744,0.0,0.0,2.4054,2.212,2.1758,2.1409,2.1122,2.1203,2.1283,2.1403,2.1649,2.1917,2.2111,2.2111,2.2181,2.2301,2.2498,2.2539,2.2605,2.2853,2.296,2.3198,2.3817,2.4907,2.6092,2.7207,2.8347,2.9756,3.1722,3.2263,3.3021,3.4554,3.4991,3.5247,3.5467,3.5302,3.5394,3.5889,3.62,3.6549,3.6933,3.7355,3.7575,3.7575,3.796,3.8162,3.8162,3.8453,3.86,3.86,3.86,3.86,3.856,3.7399,3.6257,3.508,3.3332,3.258,3.2435,3.0695,2.9958,2.9958,2.9958,2.9958,2.9958,2.9958,2.9221,2.82,0.0,0.0,0.0,0.0,0.0,0.0,0.0,0.0,0.0,0.0,0.0,0.0,0.0,0.0,0.0,0.0,0.0,0.0,0.0,2.6605,0.0,0.0,0.0,0.0,0.0,0.0,0.0,0.0,0.0,0.0,0.0,0.0,0.0,0.0,0.0,0.0,0.0,0.0,0.0,0.0,0.0,0.0,2.899,2.899,2.899,2.899,2.899,0.0,0.0,0.0,2.6019,2.4671,2.3434,2.2153,0.0,2.1489,2.177,0.0,2.1994,2.2178,2.2388,2.2388,2.2619,2.2867,2.288,2.288,2.288,2.2893,2.31,2.3753,2.5252,2.5777,2.7083,3.039,3.0977,3.1774,3.3992,3.4296,3.4625,3.5467,3.5577,3.5889,0.0,3.6054,3.5925,3.6695,3.6768,3.6951,3.7373,3.7758,3.7978,3.7978,3.8362,3.8582,3.8582,3.86,3.86,3.86,3.86,3.86,3.8618,3.8963,3.9327,3.9591,3.7791,3.7007,3.6862,3.5129,3.4414,3.4414,3.4414,3.4414,3.4414,3.4414,3.1764,2.82,0.0,0.0,0.0,0.0,0.0,0.0,0.0,0.0,0.0,0.0,0.0,0.0,0.0,0.0,0.0,0.0,0.0,0.0,0.0,2.6163,2.6898,0.0,0.0,0.0,0.0,0.0,0.0,0.0,0.0,0.0,0.0,0.0,0.0,0.0,0.0,0.0,0.0,0.0,0.0,0.0,0.0,0.0,2.899,2.899,2.899,2.899,0.0,0.0,0.0,0.0,0.0,0.0,2.2708,0.0,0.0,2.2027,0.0,0.0,2.2271,2.2485,2.2729,2.2729,2.2827,2.2893,2.2893,2.3037,2.3448,2.4473,2.4904,2.5627,2.7393,2.8631,2.9818,3.1146,3.2438,3.3548,3.4296,3.4862,3.5302,3.5577,3.6072,0.0,0.0,0.0,0.0,3.7172,3.7447,3.7667,3.7795,3.818,3.8398,3.8398,3.8527,3.86,3.86,3.86,3.8728,3.9003,3.9318,3.9467,3.9467,3.9595,3.9762,3.9791,3.7991,3.7187,3.7062,3.5329,3.4593,3.4593,3.4593,3.4593,3.4593,3.4593,3.3692,3.227,0.0,0.0,0.0,0.0,0.0,0.0,0.0,0.0,0.0,0.0,0.0,0.0,0.0,0.0,0.0,0.0,0.0,0.0,0.0,0.0,2.7114,0.0,0.0,0.0,0.0,0.0,0.0,0.0,0.0,0.0,0.0,0.0,0.0,0.0,0.0,0.0,0.0,0.0,0.0,0.0,0.0,0.0,2.899,2.899,2.8707,0.0,0.0,0.0,0.0,0.0,0.0,0.0,0.0,0.0,0.0,0.0,2.2352,2.2579,2.2579,2.2729,2.2893,2.2893,2.2893,2.3074,2.3718,2.3565,2.3916,2.6106,2.6372,2.6884,2.9205,3.0506,3.153,3.2403,3.3569,3.4495,3.4788,3.5394,3.587,3.6017,3.6603,3.7061,0.0,0.0,0.0,3.7593,3.785,3.807,3.8217,3.8453,3.86,3.86,3.8747,3.882,3.882,3.8968,3.919,3.9447,3.9762,3.9985,4.0111,4.0111,4.0185,4.0251,3.9096,3.8578,3.8515,3.7367,3.6926,3.6926,3.6926,3.6926,3.6926,3.6926,3.6926,3.6534,0.0,0.0,0.0,0.0,0.0,0.0,0.0,0.0,0.0,0.0,0.0,0.0,0.0,0.0,0.0,0.0,0.0,0.0,0.0,0.0,0.0,2.7775,2.8183,0.0,0.0,0.0,0.0,0.0,0.0,0.0,0.0,0.0,0.0,0.0,0.0,0.0,0.0,0.0,0.0,0.0,0.0,0.0,2.899,2.899,0.0,0.0,0.0,0.0,0.0,0.0,0.0,0.0,0.0,2.3033,2.2428,2.2428,2.2662,2.2893,2.2893,2.2945,2.2979,2.2937,2.2972,2.3485,2.5226,2.4442,2.4313,2.7725,2.7474,2.7578,3.0665,3.1443,3.2227,3.4101,3.4422,3.4715,3.5522,3.5981,3.6384,3.6786,3.719,3.7575,3.796,3.8015,0.0,3.8033,0.0,3.8198,3.8582,3.8618,3.8637,3.8637,3.9021,3.9243,3.9243,3.9707,3.993,3.993,3.9948,4.0148,4.0531,4.0531,4.0754,4.1102,4.1102,4.1102,4.1102,4.1102,4.1102,4.1102,4.1102,4.1102,4.1102,4.1102,4.1121,4.0548,0.0,0.0,0.0,0.0,0.0,0.0,0.0,0.0,0.0,0.0,0.0,0.0,0.0,0.0,0.0,0.0,0.0,0.0,0.0,0.0,0.0,0.0,0.0,0.0,0.0,0.0,0.0,0.0,0.0,0.0,0.0,0.0,0.0,0.0,0.0,0.0,0.0,0.0,0.0,0.0,0.0,0.0,2.899,0.0,0.0,0.0,0.0,0.0,0.0,0.0,2.3872,2.3304,2.3963,2.3521,2.2769,2.2769,2.284,2.2893,2.2893,2.3665,2.4266,2.34,2.3994,2.4965,2.5719,2.49,2.5185,2.9492,2.9383,2.9449,3.2524,3.317,3.3473,3.426,3.4642,3.5137,3.5925,3.6402,3.6805,3.7208,3.7612,3.7887,3.7978,3.8272,0.0,0.0,3.8435,3.849,3.86,3.8875,3.904,3.904,3.9485,3.9726,3.9726,4.0148,4.035,4.035,4.0644,4.0845,4.0956,4.0956,4.1011,4.1102,4.1102,4.1102,4.1102,4.1102,4.1102,4.1102,4.1102,4.1102,4.1102,4.1102,4.1283,4.1394,0.0,0.0,0.0,0.0,0.0,0.0,0.0,0.0,0.0,0.0,0.0,0.0,0.0,0.0,0.0,0.0,0.0,0.0,0.0,0.0,0.0,0.0,0.0,0.0,0.0,0.0,0.0,0.0,0.0,0.0,0.0,0.0,0.0,0.0,0.0,0.0,0.0,0.0,0.0,0.0,0.0,0.0,0.0,0.0,0.0,0.0,0.0,0.0,0.0,2.3227,2.2737,2.2563,2.3459,2.3354,2.2893,2.2893,2.2893,2.2893,2.2893,2.3571,2.4104,2.3448,2.4002,2.5152,2.6846,2.6186,2.6557,3.1305,3.1178,3.0994,3.3581,3.4056,3.4239,3.4826,3.5119,3.5541,3.6347,3.6824,3.7208,3.7612,3.8015,3.8252,3.8252,3.8472,3.8673,0.0,3.8856,3.8856,3.8856,3.9281,3.9522,3.9522,3.9925,4.024,4.0423,4.0662,4.0772,4.0772,4.0992,4.1102,4.1102,4.1102,4.1194,4.1357,0.0,4.1448,4.1635,4.1635,4.1635,4.1635,4.1635,4.1635,4.1635,4.1635,4.176,4.1962,0.0,0.0,0.0,0.0,0.0,0.0,0.0,0.0,0.0,0.0,0.0,0.0,0.0,0.0,0.0,0.0,0.0,0.0,0.0,0.0,0.0,0.0,0.0,0.0,0.0,0.0,0.0,0.0,0.0,0.0,0.0,0.0,0.0,0.0,0.0,0.0,0.0,0.0,0.0,0.0,0.0,0.0,0.0,0.0,0.0,0.0,0.0,0.0,0.0,0.0,2.2472,2.2525,2.2813,2.2893,2.2893,2.2893,2.2893,2.2907,2.2947,2.3252,2.355,2.3455,2.3776,2.4909,2.7866,2.7342,2.7575,3.2228,3.2175,3.1838,3.3747,3.4299,3.4733,3.5485,3.5595,3.5907,3.675,3.7171,3.7575,3.8033,3.838,3.8618,3.8673,3.8692,3.8838,3.9261,3.9335,3.9353,3.9298,3.9724,4.0003,4.0058,4.0405,4.0754,4.1102,4.1102,4.1102,4.1102,4.1102,4.1139,4.1194,4.1194,4.1393,4.1797,0.0,0.0,4.2292,4.2292,4.2292,4.2292,4.2292,4.2292,4.2292,4.2292,4.2329,4.2384,0.0,0.0,0.0,0.0,0.0,0.0,0.0,0.0,0.0,0.0,0.0,0.0,0.0,0.0,0.0,0.0,0.0,0.0,0.0,0.0,0.0,0.0,0.0,0.0,0.0,0.0,0.0,0.0,0.0,0.0,0.0,0.0,0.0,0.0,0.0,0.0,0.0,0.0,0.0,0.0,0.0,0.0,0.0,0.0,0.0,0.0,0.0,0.0,0.0,0.0,2.2813,2.2809,2.288,2.2893,2.2893,2.2893,2.2893,2.296,2.318,2.4112,2.4877,2.4201,2.4961,2.6117,2.7031,2.6048,2.5898,2.931,3.0035,3.0585,3.2199,3.3822,3.5064,3.5522,3.5595,3.5999,3.7153,3.7355,3.7666,3.8417,3.8563,3.8728,3.9058,3.9095,3.928,0.0,4.0091,4.0127,3.9799,4.0166,4.0552,4.0882,4.0956,4.1029,4.1102,4.1102,4.1102,4.1102,4.1102,4.1265,4.1595,4.1595,4.1815,4.2201,4.2201,0.0,4.2292,4.2292,4.2292,4.2292,4.2292,4.2292,4.2292,4.2292,4.2513,4.281,0.0,0.0,0.0,0.0,0.0,0.0,0.0,0.0,0.0,0.0,0.0,0.0,0.0,0.0,0.0,0.0,0.0,0.0,0.0,0.0,0.0,0.0,0.0,0.0,0.0,0.0,0.0,0.0,0.0,0.0,0.0,0.0,0.0,0.0,0.0,0.0,0.0,0.0,0.0,0.0,0.0,0.0,0.0,0.0,0.0,0.0,0.0,0.0,0.0,0.0,2.2893,2.2893,2.2893,2.2893,2.2893,2.2893,2.2997,2.314,2.3269,2.4034,2.4676,2.4291,2.4811,2.5695,2.6674,2.6334,2.6491,2.8935,3.0267,3.1328,3.2477,3.4123,3.5449,3.5834,3.5907,3.6255,3.7263,3.741,3.7703,3.8508,3.86,3.8765,3.915,3.9186,3.9463,4.0166,4.0405,4.0423,4.0221,4.0588,4.0901,4.1102,4.1102,4.1102,4.1102,4.1302,4.1412,4.1412,4.1613,4.1815,4.2017,4.2017,4.2237,4.2604,4.2604,0.0,4.2913,4.2913,4.2913,4.2913,4.2913,4.2913,4.2913,4.2913,4.3045,4.321,0.0,0.0,0.0,0.0,0.0,0.0,0.0,0.0,0.0,0.0,0.0,0.0,0.0,0.0,0.0,0.0,0.0,0.0,0.0,0.0,0.0,0.0,0.0,0.0,0.0,0.0,0.0,2.8137,0.0,0.0,0.0,0.0,0.0,0.0,0.0,0.0,0.0,0.0,0.0,0.0,0.0,0.0,0.0,0.0,0.0,0.0,0.0,0.0,0.0,0.0,2.2893,2.2893,2.2893,2.2893,2.2907,2.2974,2.314,2.3336,2.347,2.383,2.4222,2.4257,2.4444,2.4918,2.6133,2.645,2.6932,2.8416,3.0383,3.2029,3.2601,3.4364,3.5834,3.6164,3.6201,3.6475,3.7282,3.741,3.7703,3.8508,3.8673,3.8893,3.9298,3.9426,3.9795,4.0568,4.0623,4.0623,4.0623,4.0937,4.1102,4.1102,4.1194,4.1231,4.1231,4.1632,4.1834,4.1834,4.2146,4.2347,4.2421,4.2421,4.2641,4.3026,4.3026,0.0,0.0,4.3499,4.3499,4.3499,4.3499,4.3499,4.3499,4.3499,4.3499,4.3499,0.0,0.0,0.0,0.0,0.0,0.0,0.0,0.0,0.0,0.0,0.0,0.0,0.0,0.0,0.0,0.0,0.0,0.0,0.0,0.0,0.0,0.0,0.0,0.0,0.0,0.0,0.0,2.5377,2.6598,0.0,0.0,0.0,0.0,0.0,0.0,0.0,0.0,0.0,0.0,0.0,0.0,0.0,0.0,0.0,0.0,0.0,0.0,0.0,2.2087,2.2693,2.2893,2.2893,2.2893,2.2893,2.296,2.3189,2.3283,2.3429,2.3981,2.4168,2.4262,2.4492,2.4586,2.4636,2.4784,2.5041,2.5299,2.5495,2.8458,3.1031,3.1095,3.387,3.6164,3.6182,3.6201,3.6475,3.7282,3.741,3.7703,3.8508,3.8911,3.9336,3.9781,4.0166,4.0568,4.1011,4.1047,4.1047,4.1047,4.1084,4.1102,4.1102,4.1448,4.1629,4.1629,4.2054,4.2237,4.2237,4.2274,4.2494,4.2824,4.2824,4.3063,4.3444,4.3444,0.0,0.0,4.3499,4.3499,4.3499,4.3499,4.3499,4.3499,4.3499,4.3499,4.3499,0.0,0.0,0.0,0.0,0.0,0.0,0.0,0.0,0.0,0.0,0.0,0.0,0.0,0.0,0.0,0.0,0.0,0.0,0.0,0.0,0.0,0.0,0.0,0.0,0.0,0.0,0.0,0.0,2.553,0.0,0.0,0.0,0.0,0.0,0.0,2.7489,0.0,0.0,0.0,0.0,0.0,0.0,0.0,0.0,0.0,0.0,0.0,0.0,2.2087,2.2693,2.2893,2.2893,2.2893,2.301,2.3166,2.3269,2.3563,2.3883,2.4124,2.4311,2.4471,2.4572,2.4599,2.4599,2.4599,2.4863,2.5149,2.5304,2.8297,3.0949,3.1118,3.3911,3.6201,3.6201,3.6201,3.6475,3.7282,3.741,3.7703,3.8508,3.8948,3.9371,3.9836,4.0258,4.068,4.1066,4.132,4.1467,4.1467,4.1467,4.1467,4.1467,4.1852,4.2072,4.2072,4.2457,4.2659,4.2659,4.2916,4.3118,4.3265,4.3265,4.3357,4.3499,4.3499,0.0,0.0,4.3499,4.3499,4.3499,4.3499,4.3499,4.3499,4.3499,4.3499,4.3499,0.0,0.0,0.0,0.0,0.0,0.0,0.0,0.0,0.0,0.0,0.0,0.0,0.0,0.0,0.0,0.0,0.0,0.0,0.0,0.0,0.0,0.0,0.0,0.0,0.0,0.0,0.0,0.0,0.0,0.0,0.0,0.0,2.5148,2.6399,0.0,0.0,0.0,0.0,0.0,0.0,0.0,0.0,0.0,0.0,0.0,0.0,0.0,0.0,0.0,0.0,0.0,2.292,2.2983,0.0,0.0,2.346,2.379,2.4222,2.4302,2.4457,2.4599,2.4599,2.4599,2.4599,2.4599,2.4911,2.5264,2.5464,2.8456,3.1071,3.1271,3.3977,3.6201,3.6201,3.6292,3.6622,3.7318,3.7502,3.7812,3.8527,3.9078,3.954,3.9875,4.0368,4.0825,4.1268,4.154,4.1739,4.187,4.1999,4.1999,4.1889,4.2274,4.2476,4.2476,4.2879,4.3081,4.3081,4.3353,4.3499,4.3499,4.3499,4.3499,4.3499,4.3499,0.0,0.0,4.3499,4.3499,4.3499,4.3499,4.3499,4.3499,4.3499,4.3499,4.3499,0.0,0.0,0.0,0.0,0.0,0.0,0.0,0.0,0.0,0.0,0.0,0.0,0.0,0.0,0.0,0.0,0.0,0.0,0.0,0.0,0.0,0.0,0.0,0.0,0.0,0.0,0.0,0.0,0.0,0.0,0.0,0.0,0.0,2.5025,0.0,0.0,0.0,0.0,0.0,0.0,0.0,0.0,0.0,0.0,0.0,0.0,0.0,0.0,0.0,0.0,0.0,0.0,0.0,0.0,0.0,0.0,2.3986,2.4262,2.4519,2.4599,2.4599,2.4599,2.4599,2.4599,2.4599,2.5053,2.5504,2.5499,2.858,3.13,3.13,3.3977,3.6201,3.6201,3.653,3.6933,3.7336,3.774,3.8143,3.8545,3.9375,3.9893,3.9911,4.0625,4.1268,4.1647,4.1705,0.0,4.2274,4.2659,4.2718,4.2311,4.2678,4.2879,4.2879,4.3279,4.3481,4.3481,4.3499,4.3499,4.3499,4.3499,4.3499,0.0,0.0,0.0,0.0,4.3499,4.3499,4.3499,4.3499,4.3499,4.3499,4.3499,4.3499,4.3499,0.0,0.0,0.0,0.0,0.0,0.0,0.0,0.0,0.0,0.0,0.0,0.0,0.0,0.0,0.0,0.0,0.0,0.0,0.0,0.0,0.0,0.0,0.0,0.0,0.0,0.0,0.0,0.0,0.0,0.0,0.0,0.0,0.0,0.0,2.3698,0.0,0.0,0.0,0.0,0.0,0.0,0.0,0.0,0.0,0.0,0.0,0.0,0.0,0.0,0.0,0.0,0.0,0.0,0.0,0.0,0.0,0.0,2.4479,2.4572,2.4599,2.4599,2.4599,2.4599,2.4653,2.489,2.5237,2.5571,2.5791,2.8742,3.13,3.13,3.3977,3.6201,3.6201,3.6549,3.6933,3.7336,3.774,3.8253,3.893,3.9797,4.0423,4.068,4.1191,4.1558,4.1705,4.2201,4.2568,4.2696,4.31,4.3136,4.2714,4.31,4.332,4.332,4.3448,4.3499,4.3499,4.3499,4.3499,4.3499,4.3499,4.3499,0.0,0.0,0.0,0.0,4.3499,4.3499,4.3499,4.3499,4.3499,4.3499,4.3499,4.3499,4.3499,0.0,0.0,0.0,0.0,0.0,0.0,0.0,0.0,0.0,0.0,0.0,0.0,0.0,0.0,0.0,0.0,0.0,0.0,0.0,0.0,0.0,0.0,0.0,0.0,0.0,0.0,0.0,0.0,0.0,0.0,0.0,0.0,0.0,0.0,0.0,0.0,0.0,0.0,0.0,0.0,0.0,0.0,2.1093,0.0,0.0,0.0,0.0,0.0,0.0,0.0,0.0,0.0,0.0,0.0,0.0,0.0,0.0,0.0,2.4599,2.4599,2.4599,2.4599,2.4599,2.4698,2.501,2.5304,2.5598,2.5931,2.8835,3.13,3.13,3.3977,3.6201,3.6201,3.6659,3.7116,3.7354,3.7887,3.8528,3.9373,4.0072,4.0714,4.1265,4.1558,4.1834,4.2127,4.2604,4.2975,4.3118,4.3353,4.3393,4.3136,4.3375,4.3499,4.3499,4.3499,4.3499,4.3499,4.3499,4.3499,4.3499,4.3499,4.3499,0.0,0.0,0.0,0.0,4.3499,4.3499,4.3499,4.3499,4.3499,4.3499,4.3499,4.3499,4.3499,0.0,0.0,0.0,0.0,0.0,0.0,0.0,0.0,0.0,0.0,0.0,0.0,0.0,0.0,0.0,0.0,0.0,0.0,0.0,0.0,0.0,0.0,0.0,0.0,0.0,0.0,0.0,0.0,2.0962,2.1093,2.1093,0.0,0.0,0.0,0.0,0.0,0.0,0.0,0.0,0.0,0.0,0.0,0.0,0.0,0.0,0.0,0.0,0.0,0.0,0.0,0.0,0.0,0.0,0.0,0.0,0.0,0.0,0.0,0.0,2.4599,2.4599,2.4599,2.4599,2.4679,2.5056,2.5317,0.0,2.5957,2.8753,3.1165,3.128,3.3883,3.6089,3.6219,3.6897,3.741,3.7447,3.816,3.8986,3.9799,4.0276,4.0843,4.161,4.1742,4.2072,4.2846,4.2938,4.31,4.3481,4.3499,4.3499,4.3499,4.3499,4.3499,4.3499,4.3499,4.3499,4.3499,4.3499,4.3499,4.3499,4.3499,4.3499,0.0,0.0,0.0,0.0,4.3499,4.3499,4.3499,4.3499,4.3499,4.3499,4.3499,4.3499,4.3499,0.0,0.0,0.0,0.0,0.0,0.0,0.0,0.0,0.0,0.0,0.0,0.0,0.0,0.0,0.0,0.0,0.0,0.0,0.0,0.0,0.0,0.0,0.0,0.0,0.0,0.0,0.0,2.0319,2.084,2.1093,2.1093,2.1093,0.0,0.0,0.0,0.0,0.0,0.0,0.0,0.0,0.0,0.0,0.0,0.0,0.0,0.0,2.1777,2.2007,0.0,0.0,0.0,0.0,0.0,0.0,0.0,0.0,2.4599,0.0,0.0,0.0,2.4599,2.4599,2.4599,2.4733,0.0,0.0,0.0,2.6186,2.7994,2.9851,3.1069,3.2975,3.4871,3.6397,3.708,3.752,3.7813,3.8861,3.965,3.9813,4.0494,4.1136,4.1647,4.198,4.2366,4.2843,4.3191,4.3389,4.3481,4.3499,4.3499,4.3499,4.3499,4.3499,4.3499,4.3499,4.3499,4.3499,4.3499,4.3499,4.3499,4.3499,4.3499,0.0,0.0,0.0,4.3499,4.3499,4.3499,4.3499,4.3499,4.3499,4.3499,4.3499,4.3499,4.3499,0.0,0.0,0.0,0.0,0.0,0.0,0.0,0.0,0.0,0.0,0.0,0.0,0.0,0.0,0.0,0.0,0.0,0.0,0.0,0.0,0.0,0.0,0.0,0.0,0.0,0.0,0.0,0.0,0.0,2.1093,0.0,0.0,0.0,0.0,0.0,0.0,0.0,0.0,0.0,0.0,2.1093,0.0,0.0,0.0,0.0,0.0,2.1833,2.2071,0.0,2.2746,2.309,2.3363,0.0,0.0,0.0,0.0,2.4599,0.0,0.0,0.0,2.4599,0.0,0.0,0.0,0.0,0.0,0.0,2.7301,2.8856,3.0492,3.2141,3.3789,3.532,3.6599,3.7134,3.7667,3.8437,3.932,3.9946,4.0088,4.0861,4.1522,4.1944,4.2329,4.2733,4.3155,4.3393,4.3499,4.3499,4.3499,4.3499,4.3499,4.3499,4.3499,4.3499,4.3499,4.3499,4.3499,4.3499,4.3499,4.3499,4.3499,4.3499,0.0,0.0,0.0,4.3499,4.3499,4.3499,4.3499,4.3499,4.3499,4.3499,4.3499,4.3499,4.3499,0.0,0.0,0.0,0.0,0.0,0.0,0.0,0.0,0.0,0.0,0.0,0.0,0.0,0.0,0.0,0.0,0.0,0.0,0.0,0.0,0.0,0.0,0.0,0.0,0.0,0.0,0.0,0.0,0.0,0.0,0.0,0.0,0.0,0.0,0.0,0.0,0.0,0.0,0.0,0.0,2.1093,0.0,0.0,0.0,0.0,0.0,0.0,0.0,0.0,2.28,2.3117,2.3434,2.3705,0.0,0.0,0.0,0.0,0.0,0.0,0.0,0.0,0.0,0.0,0.0,0.0,0.0,0.0,2.8175,2.9812,3.1434,3.3108,3.4781,3.614,3.6785,3.7281,3.796,3.906,3.9595,4.0038,4.046,4.121,4.187,4.2256,4.2659,4.3063,4.3463,4.3499,4.3499,4.3499,4.3499,4.3499,4.3499,4.3499,4.3499,4.3499,4.3499,4.3499,4.3499,4.3499,4.3499,4.3499,4.3499,4.3499,0.0,0.0,0.0,4.3499,4.3499,4.3499,4.3499,4.3499,4.3499,4.3499,4.3499,4.3499,4.3499,0.0,0.0,0.0,0.0,0.0,0.0,0.0,0.0,0.0,0.0,0.0,0.0,0.0,0.0,0.0,0.0,0.0,0.0,0.0,0.0,0.0,0.0,0.0,0.0,0.0,0.0,0.0,0.0,0.0,0.0,2.1093,2.1093,2.1093,0.0,0.0,0.0,0.0,0.0,0.0,0.0,0.0,0.0,0.0,0.0,0.0,0.0,0.0,0.0,0.0,2.28,2.3268,2.3732,2.3772,0.0,0.0,0.0,0.0,0.0,2.4599,2.4599,0.0,0.0,0.0,0.0,0.0,0.0,0.0,2.6674,2.8095,2.9754,3.1395,3.3319,3.5247,3.7016,3.7922,3.86,3.9133,3.9555,3.9978,4.046,4.121,4.187,4.2256,4.2659,4.3063,4.3463,4.3499,4.3499,4.3499,4.3499,4.3499,4.3499,4.3499,4.3499,4.3499,4.3499,4.3499,4.3499,4.3499,4.3499,4.3499,4.3499,4.3499,0.0,0.0,4.3499,4.3499,4.3499,4.3499,4.3499,4.3499,4.3499,4.3499,4.3499,4.3499,4.3499,0.0,0.0,0.0,0.0,0.0,0.0,0.0,0.0,0.0,0.0,0.0,0.0,0.0,0.0,0.0,0.0,0.0,0.0,0.0,0.0,0.0,0.0,0.0,0.0,0.0,0.0,0.0,0.0,0.0,2.1093,2.1093,2.1093,2.1093,2.1093,0.0,0.0,0.0,0.0,0.0,0.0,0.0,0.0,0.0,0.0,0.0,0.0,0.0,0.0,0.0,0.0,2.3295,2.3803,2.3803,0.0,0.0,0.0,0.0,0.0,2.4599,2.4599,0.0,0.0,0.0,0.0,0.0,0.0,0.0,0.0,3.0377,3.2043,3.3657,3.4911,3.6131,3.7496,3.8418,3.9078,3.9522,3.9905,4.0347,4.0772,4.154,4.2109,4.2274,4.2861,4.3302,4.3481,4.3499,4.3499,4.3499,4.3499,4.3499,4.3499,4.3499,4.3499,4.3499,4.3499,4.3499,4.3499,4.3499,4.3499,4.3499,4.3499,4.3499,4.3499,0.0,4.3499,4.3499,4.3499,4.3499,4.3499,4.3499,4.3499,4.3499,4.3499,4.3499,4.3499,0.0,0.0,0.0,0.0,0.0,0.0,0.0,0.0,0.0,0.0,0.0,0.0,0.0,0.0,0.0,0.0,0.0,0.0,0.0,0.0,0.0,0.0,0.0,0.0,0.0,0.0,0.0,2.0197,2.0799,2.1093,2.1093,2.1093,2.1093,0.0,0.0,0.0,0.0,0.0,0.0,0.0,0.0,0.0,0.0,0.0,0.0,0.0,0.0,0.0,0.0,0.0,0.0,0.0,0.0,0.0,0.0,0.0,0.0,2.4599,2.4599,2.4599,2.4684,0.0,0.0,0.0,0.0,0.0,0.0,0.0,0.0,3.3748,3.5451,3.6505,3.7299,3.8033,3.8748,3.9353,3.9817,4.024,4.0662,4.1047,4.1797,4.2292,4.2292,4.3045,4.3499,4.3499,4.3499,4.3499,4.3499,4.3499,4.3499,4.3499,4.3499,4.3499,4.3499,4.3499,4.3499,4.3499,4.3499,4.3499,4.3499,4.3499,4.3499,4.3499,4.3499,4.3499,4.3499,4.3499,4.3499,4.3499,4.3499,4.3499,4.3499,4.3499,4.3499,4.3499,0.0,0.0,0.0,0.0,0.0,0.0,0.0,0.0,0.0,0.0,0.0,0.0,0.0,0.0,0.0,0.0,0.0,0.0,0.0,0.0,0.0,0.0,0.0,0.0,0.0,1.9545,2.0151,2.0197,2.0799,2.1093,2.1093,2.1093,2.1093,0.0,0.0,0.0,0.0,0.0,0.0,0.0,0.0,0.0,0.0,0.0,0.0,0.0,0.0,0.0,0.0,0.0,0.0,0.0,0.0,0.0,0.0,0.0,0.0,2.4599,2.4599,2.4599,0.0,0.0,0.0,0.0,0.0,0.0,0.0,2.8739,0.0,0.0,3.4154,3.6392,3.8052,3.849,3.8911,3.9353,3.9817,4.024,4.0662,4.1047,4.1797,4.2292,4.2292,4.3045,4.3499,4.3499,4.3499,4.3499,4.3499,4.3499,4.3499,4.3499,4.3499,4.3499,4.3499,4.3499,4.3499,4.3499,4.3499,4.3499,4.3499,4.3499,4.3499,4.3499,4.3499,4.3499,4.3499,4.3499,4.3499,4.3499,4.3499,4.3499,4.3499,4.3499,4.3499,4.3499,0.0,0.0,0.0,0.0,0.0,0.0,0.0,0.0,0.0,0.0,0.0,0.0,0.0,0.0,0.0,0.0,0.0,0.0,0.0,0.0,0.0,0.0,0.0,1.8003,1.8386,1.9214,1.9924,2.0508,2.0909,2.1093,2.1093,2.1093,0.0,0.0,0.0,0.0,0.0,0.0,0.0,0.0,0.0,0.0,0.0,0.0,0.0,0.0,0.0,0.0,0.0,0.0,0.0,0.0,0.0,0.0,0.0,0.0,0.0,2.4599,2.4599,2.4599,2.4706,0.0,0.0,0.0,0.0,0.0,0.0,3.1587,3.3426,0.0,0.0,3.7369,3.8217,3.8856,3.9355,3.9779,4.0221,4.0625,4.0937,4.1084,4.1797,4.2292,4.2292,4.3045,4.3499,4.3499,4.3499,4.3499,4.3499,4.3499,4.3499,4.3499,4.3499,4.3499,4.3499,4.3499,4.3499,4.3499,4.3499,4.3499,4.3499,4.3499,4.3499,4.3499,4.3499,4.3499,4.3499,4.3499,4.3499,4.3499,4.3499,4.3499,4.3499,4.3499,4.3499,4.3499,0.0,0.0,0.0,0.0,0.0,0.0,0.0,0.0,0.0,0.0,0.0,0.0,0.0,0.0,0.0,0.0,0.0,0.0,0.0,0.0,0.0,0.0,0.0,1.8146,1.8523,1.912,1.9791,2.0542,2.0928,2.1093,2.1093,0.0,0.0,0.0,0.0,0.0,0.0,0.0,0.0,0.0,0.0,0.0,0.0,0.0,0.0,0.0,0.0,0.0,0.0,0.0,0.0,0.0,0.0,0.0,0.0,0.0,0.0,0.0,2.4599,2.4684,2.4871,0.0,0.0,0.0,0.0,0.0,0.0,3.3523,3.5687,3.7355,3.7887,0.0,3.8418,3.9096,3.9595,4.0058,4.0439,4.0845,4.1102,4.1102,4.1797,4.2292,4.2292,4.3045,4.3499,4.3499,4.3499,0.0,0.0,4.3499,4.3499,4.3499,4.3499,4.3499,4.3499,4.3499,4.3499,4.3499,4.3499,4.3499,4.3499,4.3499,4.3499,4.3499,4.3499,4.3499,4.3499,4.3499,4.3499,4.3499,4.3499,4.3499,4.3499,4.3499,4.3499,4.3499,0.0,0.0,0.0,0.0,0.0,0.0,0.0,0.0,0.0,0.0,0.0,0.0,0.0,0.0,0.0,0.0,0.0,0.0,0.0,0.0,0.0,0.0,0.0,1.8179,1.8793,1.9395,1.9861,2.02,2.0818,2.1093,2.1093,0.0,0.0,0.0,0.0,0.0,0.0,0.0,0.0,0.0,0.0,0.0,0.0,0.0,0.0,0.0,0.0,0.0,0.0,0.0,0.0,0.0,0.0,0.0,0.0,0.0,0.0,2.4599,2.4599,2.4831,2.5163,0.0,0.0,0.0,3.0856,0.0,2.9996,3.367,3.6348,3.7997,3.7997,3.8325,0.0,3.9131,3.9595,4.0058,4.046,4.0864,4.1102,4.1102,4.1797,4.2292,4.2292,4.3045,4.3499,4.3499,4.3499,0.0,0.0,4.3499,4.3499,4.3499,4.3499,4.3499,4.3499,4.3499,4.3499,4.3499,4.3499,4.3499,4.3499,4.3499,4.3499,4.3499,4.3499,4.3499,4.3499,4.3499,4.3499,4.3499,4.3499,4.3499,4.3499,4.3499,4.3499,4.3499,0.0,0.0,0.0,0.0,0.0,0.0,0.0,0.0,0.0,0.0,0.0,0.0,0.0,0.0,0.0,0.0,0.0,0.0,0.0,0.0,0.0,0.0,0.0,0.0,0.0,0.0,2.0264,2.0818,2.1006,2.1093,0.0,0.0,0.0,2.1093,0.0,0.0,0.0,0.0,0.0,0.0,0.0,2.1994,0.0,0.0,0.0,0.0,0.0,0.0,0.0,0.0,0.0,0.0,0.0,0.0,0.0,0.0,2.4599,2.4599,2.4599,2.4831,2.5163,2.5419,2.6953,0.0,0.0,3.2065,0.0,0.0,3.7483,3.8088,3.8362,3.8747,0.0,3.9614,4.0056,4.046,4.0864,4.1029,4.1102,4.1102,4.1797,4.2292,4.2292,4.3045,4.3499,4.3499,0.0,0.0,0.0,4.3499,4.3499,4.3499,4.3499,4.3499,4.3499,4.3499,4.3499,4.3499,4.3499,4.3499,4.3499,4.3499,4.3499,4.3499,4.3499,4.3499,4.3499,4.3499,4.3499,4.3499,4.3499,4.3499,4.3499,4.3499,4.3499,4.3499,0.0,0.0,0.0,0.0,0.0,0.0,0.0,0.0,0.0,0.0,0.0,0.0,0.0,0.0,0.0,0.0,0.0,0.0,0.0,0.0,0.0,0.0,0.0,0.0,0.0,1.9811,2.044,0.0,0.0,0.0,0.0,0.0,0.0,2.1093,0.0,0.0,0.0,0.0,0.0,2.1783,2.2061,2.2258,2.2415,0.0,0.0,0.0,0.0,0.0,0.0,0.0,0.0,0.0,0.0,0.0,0.0,2.4599,2.4599,2.4626,2.4764,2.5024,2.5488,2.6421,2.8119,3.0284,3.3101,3.4673,0.0,0.0,3.8125,3.8327,3.8563,3.893,0.0,3.9797,4.0219,4.0623,4.1047,4.1102,4.1102,4.1102,4.1797,4.2292,4.2292,4.3045,4.3499,0.0,0.0,0.0,0.0,4.3499,4.3499,4.3499,4.3499,4.3499,4.3499,4.3499,4.3499,4.3499,4.3499,4.3499,4.3499,4.3499,4.3499,4.3499,4.3499,4.3499,4.3499,4.3499,4.3499,4.3499,4.3499,4.3499,4.3499,4.3499,4.3499,4.3499,0.0,0.0,0.0,0.0,0.0,0.0,0.0,0.0,0.0,0.0,0.0,0.0,0.0,0.0,0.0,0.0,0.0,0.0,0.0,0.0,0.0,0.0,0.0,0.0,0.0,0.0,0.0,0.0,0.0,0.0,0.0,0.0,2.1093,2.1093,0.0,2.1312,0.0,2.1649,2.181,2.2061,2.2338,2.2442,2.2468,2.2809,0.0,0.0,0.0,0.0,0.0,0.0,0.0,0.0,0.0,0.0,2.4599,2.4599,2.4613,2.4711,2.5029,2.5418,2.6192,2.7956,3.0008,3.26,3.6519,3.7428,3.7575,3.7978,3.8363,3.8618,3.8655,3.9005,3.939,3.9793,4.0235,4.068,4.1047,4.1102,4.1102,4.1102,4.1797,4.2292,4.2292,4.3045,4.3499,0.0,0.0,0.0,0.0,4.3499,4.3499,4.3499,4.3499,4.3499,4.3499,4.3499,4.3499,0.0,4.3499,4.3499,4.3499,4.3499,4.3499,4.3499,4.3499,4.3499,4.3499,4.3499,4.3499,4.3499,4.3499,4.3499,4.3499,4.3499,4.3499,4.3499,0.0,0.0,0.0,0.0,0.0,0.0,0.0,0.0,0.0,0.0,0.0,0.0,0.0,0.0,0.0,0.0,0.0,0.0,0.0,0.0,0.0,0.0,0.0,0.0,0.0,0.0,0.0,0.0,0.0,0.0,0.0,0.0,0.0,2.1107,0.0,2.1529,0.0,2.2061,2.2271,2.2335,2.2662,2.2783,2.2823,2.3113,2.3256,0.0,0.0,0.0,0.0,0.0,0.0,0.0,2.4599,2.4599,2.4599,2.4599,2.4778,2.5016,2.5082,2.6407,2.7884,2.8301,3.1095,3.4372,3.6841,3.7648,3.7997,3.838,3.8545,3.8692,3.9003,3.9447,3.9891,4.0274,4.0717,4.1011,4.1084,4.1102,4.1102,4.1102,4.1797,4.2292,4.2292,4.3045,0.0,0.0,0.0,0.0,4.3499,4.3499,4.3499,4.3499,4.3499,4.3499,4.3499,4.3499,4.3499,0.0,4.3499,4.3499,4.3499,4.3499,4.3499,4.3499,4.3499,4.3499,4.3499,4.3499,4.3499,4.3499,4.3499,4.3499,4.3499,4.3499,4.3499,4.3499,0.0,0.0,0.0,0.0,0.0,0.0,0.0,0.0,0.0,0.0,0.0,0.0,0.0,0.0,0.0,0.0,0.0,0.0,0.0,0.0,0.0,0.0,0.0,0.0,0.0,0.0,0.0,0.0,0.0,0.0,0.0,0.0,0.0,2.1107,0.0,2.1679,2.1823,2.2231,2.2482,2.2645,2.284,2.2987,2.31,2.3243,2.3483,2.3763,0.0,0.0,0.0,0.0,0.0,0.0,0.0,0.0,2.4626,2.4791,2.4957,2.5163,2.5443,2.6939,2.8824,3.056,3.3297,3.587,3.7127,3.7703,3.8107,3.8508,3.86,3.8728,3.9133,3.9577,4.004,4.0421,4.0845,4.1102,4.1102,4.1102,4.1102,4.1102,4.1797,4.2292,4.2292,4.3045,0.0,0.0,0.0,4.3499,4.3499,4.3499,4.3499,4.3499,4.3499,4.3499,4.3499,4.3499,4.3499,4.3499,4.3499,4.3499,4.3499,4.3499,4.3499,4.3499,4.3499,4.3499,4.3499,4.3499,4.3499,4.3499,4.3499,4.3499,4.3499,4.3499,4.3499,4.3499,0.0,0.0,0.0,0.0,0.0,0.0,0.0,0.0,0.0,0.0,0.0,0.0,0.0,0.0,0.0,0.0,0.0,0.0,0.0,0.0,0.0,0.0,0.0,0.0,0.0,0.0,0.0,0.0,0.0,0.0,0.0,0.0,0.0,2.1203,0.0,0.0,2.2101,2.2378,2.2672,2.2974,2.2974,2.3144,2.3389,2.3443,2.3763,0.0,0.0,0.0,0.0,0.0,0.0,0.0,0.0,0.0,2.4671,2.4997,2.5136,2.5296,2.585,2.7412,2.977,3.3307,3.5571,3.6988,3.7318,3.7758,3.8198,3.8527,3.86,3.8747,3.9225,3.9632,4.0038,4.0533,4.0882,4.1102,4.1102,4.1102,4.1102,4.1102,4.1797,4.2292,4.2292,4.3045,0.0,0.0,0.0,4.3499,4.3499,4.3499,4.3499,4.3499,4.3499,4.3499,4.3499,4.3499,4.3499,4.3499,4.3499,4.3499,4.3499,4.3499,4.3499,4.3499,4.3499,4.3499,4.3499,4.3499,4.3499,4.3499,4.3499,4.3499,4.3499,4.3499,4.3499,4.3499,0.0,0.0,0.0,0.0,0.0,0.0,0.0,0.0,0.0,0.0,0.0,0.0,0.0,0.0,0.0,0.0,0.0,0.0,0.0,0.0,0.0,0.0,0.0,0.0,0.0,0.0,0.0,0.0,0.0,0.0,0.0,0.0,0.0,0.0,0.0,0.0,0.0,2.2689,2.2979,2.3243,2.3243,2.3447,2.3759,2.3995,0.0,0.0,0.0,0.0,0.0,0.0,2.4599,0.0,0.0,0.0,2.4671,2.4997,2.5251,2.5531,2.5904,2.8405,3.1714,3.5046,3.6617,3.7318,3.7392,3.7977,3.8545,3.86,3.86,3.8858,3.9671,3.9856,4.015,4.0901,4.1066,4.1102,4.1102,4.1102,4.1102,4.1102,4.1797,4.2292,4.2292,4.3045,0.0,0.0,4.3499,4.3499,4.3499,4.3499,4.3499,4.3499,4.3499,4.3499,4.3499,4.3499,4.3499,4.3499,4.3499,4.3499,4.3499,4.3499,4.3499,4.3499,4.3499,4.3499,4.3499,4.3499,4.3499,4.3499,4.3499,4.3499,4.3499,4.3499,4.3499,4.3536,0.0,0.0,0.0,0.0,0.0,0.0,0.0,0.0,0.0,0.0,0.0,0.0,0.0,0.0,0.0,0.0,0.0,0.0,0.0,0.0,0.0,0.0,0.0,0.0,0.0,0.0,0.0,0.0,0.0,0.0,0.0,2.1379,2.1462,0.0,0.0,0.0,0.0,0.0,0.0,2.3323,2.3514,2.3772,2.404,0.0,0.0,0.0,0.0,0.0,0.0,0.0,0.0,2.4599,2.4599,0.0,0.0,0.0,2.555,2.6057,2.7281,2.9417,3.1922,3.4536,3.6286,3.7465,3.7685,3.8179,3.86,3.86,3.86,3.8876,3.9744,3.9911,4.0168,4.0974,4.1102,4.1102,4.1102,4.1102,4.1102,4.1102,4.1797,4.2292,4.2292,4.3045,0.0,0.0,4.3499,4.3499,4.3499,4.3499,4.3499,4.3499,4.3499,4.3499,4.3499,4.3499,4.3499,4.3499,4.3499,4.3499,4.3499,4.3499,4.3499,4.3499,4.3499,4.3499,4.3499,4.3499,4.3499,4.3499,4.3499,4.3499,4.3499,4.3499,4.3499,4.3554,0.0,0.0,0.0,0.0,0.0,0.0,0.0,0.0,0.0,0.0,0.0,0.0,0.0,0.0,0.0,0.0,0.0,0.0,0.0,0.0,0.0,0.0,0.0,0.0,0.0,0.0,0.0,0.0,0.0,0.0,2.1598,2.1679,2.1729,0.0,2.2218,0.0,0.0,0.0,0.0,0.0,0.0,2.4062,0.0,0.0,0.0,0.0,0.0,0.0,0.0,0.0,0.0,0.0,0.0,2.4957,0.0,0.0,0.0,2.6516,2.8389,3.0144,3.193,3.39,3.5985,3.763,3.7923,3.8327,3.86,3.86,3.86,3.8876,3.9744,3.9911,4.0168,4.0974,4.1102,4.1102,4.1102,4.1102,4.1102,4.1102,4.1797,4.2292,4.2292,4.3045,0.0,0.0,4.3499,4.3499,4.3499,4.3499,4.3499,4.3499,4.3499,4.3499,4.3499,4.3499,4.3499,4.3499,4.3499,4.3499,4.3499,4.3499,4.3499,4.3499,4.3499,4.3499,4.3499,4.3499,4.3499,4.3499,4.3499,4.3499,4.3499,4.3499,4.3499,4.3573,0.0,0.0,0.0,0.0,0.0,0.0,0.0,0.0,0.0,0.0,0.0,0.0,0.0,0.0,0.0,0.0,0.0,0.0,0.0,0.0,0.0,0.0,0.0,0.0,0.0,0.0,0.0,0.0,0.0,0.0,2.1612,2.1863,2.2111,2.2361,2.2388,2.2722,2.3269,0.0,0.0,0.0,0.0,0.0,0.0,0.0,0.0,0.0,0.0,0.0,0.0,0.0,0.0,0.0,0.0,0.0,0.0,0.0,0.0,0.0,2.8447,3.0347,3.2272,3.3987,3.6198,3.796,3.8016,3.8327,3.86,3.86,3.86,3.8876,3.9744,3.9911,4.0168,4.0974,4.1102,4.1102,4.1102,4.1102,4.1102,4.1102,4.1797,4.2292,4.2292,4.3045,0.0,0.0,4.3499,4.3499,4.3499,4.3499,4.3499,4.3499,4.3499,4.3499,4.3499,4.3499,4.3499,4.3499,4.3499,4.3499,4.3499,4.3499,4.3499,4.3499,4.3499,4.3499,4.3499,4.3499,4.3499,4.3499,4.3499,4.3499,4.3499,4.3499,4.3499,4.3609,0.0,0.0,0.0,0.0,0.0,0.0,0.0,0.0,0.0,0.0,0.0,0.0,0.0,0.0,0.0,0.0,0.0,0.0,0.0,0.0,0.0,0.0,0.0,0.0,0.0,0.0,0.0,0.0,0.0,2.166,2.2111,2.2218,2.2508,2.2989,2.2989,2.3109,2.3336,2.371,0.0,0.0,0.0,0.0,0.0,0.0,0.0,0.0,0.0,0.0,0.0,0.0,0.0,0.0,0.0,0.0,0.0,0.0,2.6326,2.6565,2.7336,2.967,3.2166,3.3227,3.577,3.807,3.8345,3.849,3.86,3.86,3.86,3.8876,3.9744,3.9911,4.0168,4.0974,4.1102,4.1102,4.1102,4.1102,4.1102,4.1102,4.1577,4.2017,4.2274,4.2788,0.0,0.0,0.0,4.3499,4.3499,4.3499,4.3499,4.3499,4.3499,4.3499,4.3499,4.3499,4.3499,4.3499,4.3499,4.3499,4.3499,4.3499,4.3499,4.3499,4.3499,4.3499,4.3499,4.3499,4.3499,4.3499,4.3499,4.3499,4.3499,4.3499,4.3499,4.3632,0.0,0.0,0.0,0.0,0.0,0.0,0.0,0.0,0.0,0.0,0.0,0.0,0.0,0.0,0.0,0.0,0.0,0.0,0.0,0.0,0.0,0.0,0.0,0.0,0.0,0.0,0.0,0.0,0.0,0.0,0.0,0.0,2.2722,2.3292,2.3416,2.351,0.0,0.0,0.0,2.4351,0.0,0.0,2.4599,0.0,0.0,0.0,0.0,0.0,0.0,0.0,0.0,0.0,0.0,0.0,0.0,0.0,0.0,2.6573,2.6754,2.9466,3.238,3.2882,3.5629,3.8272,3.8545,3.86,3.86,3.86,3.86,3.8821,3.954,3.9781,4.0168,4.0974,4.1102,4.1102,4.1102,4.1102,4.1102,4.1102,4.1448,4.187,4.2256,4.2659,0.0,0.0,0.0,0.0,4.3499,4.3499,4.3499,4.3499,4.3499,4.3499,4.3499,4.3499,4.3499,4.3499,4.3499,4.3499,4.3499,4.3499,4.3499,4.3499,4.3499,4.3499,4.3499,4.3499,4.3499,4.3499,4.3499,4.3499,4.3499,4.3499,4.3499,4.3632,0.0,0.0,0.0,0.0,0.0,0.0,0.0,0.0,0.0,0.0,0.0,0.0,0.0,0.0,0.0,0.0,0.0,0.0,0.0,0.0,0.0,0.0,0.0,0.0,0.0,0.0,0.0,0.0,0.0,0.0,0.0,0.0,2.2749,0.0,2.3647,2.3959,2.4222,0.0,2.4364,2.4599,0.0,2.4599,2.4599,0.0,0.0,0.0,2.497,2.5109,0.0,2.5424,0.0,0.0,0.0,0.0,0.0,0.0,0.0,0.0,0.0,0.0,0.0,3.307,3.5874,3.86,3.86,3.86,3.86,3.86,3.86,3.8728,3.9133,3.9577,4.0129,4.0956,4.1102,4.1102,4.1102,4.1102,4.1102,4.1102,4.1448,4.1852,4.2256,4.2641,0.0,0.0,4.3499,4.3499,4.3499,4.3499,4.3499,4.3499,4.3499,4.3499,4.3499,4.3499,4.3499,4.3499,4.3499,4.3499,4.3499,4.3499,4.3499,4.3499,4.3499,4.3499,4.3499,4.3499,4.3499,4.3499,4.3499,4.3499,4.3499,4.3499,4.3499,4.3632,0.0,0.0,0.0,0.0,0.0,0.0,0.0,0.0,0.0,0.0,0.0,0.0,0.0,0.0,0.0,0.0,0.0,0.0,0.0,0.0,0.0,0.0,0.0,0.0,0.0,0.0,0.0,0.0,0.0,0.0,0.0,0.0,0.0,0.0,2.3955,2.4249,2.4497,2.4497,0.0,0.0,2.4599,2.4599,0.0,0.0,0.0,0.0,0.0,2.5211,2.5438,0.0,2.5931,2.6038,0.0,0.0,0.0,0.0,0.0,0.0,2.8871,0.0,0.0,0.0,0.0,0.0,3.86,3.86,3.86,3.86,3.86,3.8728,3.9133,3.9298,3.9667,4.0533,4.0919,4.1102,4.1102,4.1102,4.1102,4.1102,4.1213,4.1522,4.2237,4.2402,0.0,0.0,4.3499,4.3499,4.3499,4.3499,4.3499,4.3499,4.3499,4.3499,4.3499,4.3499,4.3499,4.3499,4.3499,4.3499,4.3499,4.3499,4.3499,4.3499,4.3499,4.3499,4.3499,4.3499,4.3499,4.3499,4.3499,4.3499,4.3499,4.3499,4.3499,4.3632,0.0,0.0,0.0,0.0,0.0,0.0,0.0,0.0,0.0,0.0,0.0,0.0,0.0,0.0,0.0,0.0,0.0,0.0,0.0,0.0,0.0,0.0,0.0,0.0,0.0,0.0,0.0,0.0,0.0,0.0,0.0,0.0,0.0,0.0,0.0,0.0,0.0,0.0,0.0,0.0,2.4599,0.0,0.0,2.4805,2.501,0.0,0.0,0.0,2.5764,2.6058,2.6172,0.0,0.0,0.0,0.0,0.0,0.0,0.0,0.0,0.0,0.0,0.0,0.0,0.0,3.86,3.86,3.86,3.86,3.86,3.8673,3.8911,3.9096,3.9371,3.9868,4.0458,4.0919,4.1084,4.1102,4.1102,4.1102,4.1102,4.1359,4.1999,4.2201,4.2568,4.321,4.3412,4.3499,4.3499,4.3499,4.3499,4.3499,4.3499,4.3499,4.3499,4.3499,4.3499,4.3499,4.3499,4.3499,4.3499,4.3499,4.3499,4.3499,4.3499,4.3499,4.3499,4.3499,4.3499,4.3499,4.3499,4.3499,4.3499,4.3499,4.3499,4.3632,0.0,0.0,0.0,0.0,0.0,0.0,0.0,0.0,0.0,0.0,0.0,0.0,0.0,0.0,0.0,0.0,0.0,0.0,0.0,0.0,0.0,0.0,0.0,0.0,0.0,0.0,0.0,0.0,0.0,0.0,0.0,0.0,0.0,0.0,0.0,0.0,0.0,0.0,0.0,2.4671,2.4671,2.4845,0.0,0.0,2.5323,2.5598,2.5904,2.6011,2.6078,2.6326,2.6406,0.0,0.0,0.0,0.0,0.0,2.7295,0.0,0.0,0.0,0.0,0.0,0.0,0.0,3.86,3.86,3.86,3.86,3.86,3.86,3.86,3.8893,3.9151,3.9186,3.985,4.0513,4.0974,4.1066,4.1102,4.1102,4.1102,4.1268,4.1669,4.2017,4.2421,4.2883,4.3283,4.3499,4.3499,4.3499,4.3499,4.3499,4.3499,4.3499,4.3499,4.3499,4.3499,4.3499,4.3499,4.3499,4.3499,4.3499,4.3499,4.3499,4.3499,4.3499,4.3499,4.3499,4.3499,4.3499,4.3499,4.3499,4.3499,4.3499,4.3499,4.3632,0.0,0.0,0.0,0.0,0.0,0.0,0.0,0.0,0.0,0.0,0.0,0.0,0.0,0.0,0.0,0.0,0.0,0.0,0.0,0.0,0.0,0.0,0.0,0.0,0.0,0.0,0.0,0.0,0.0,0.0,0.0,0.0,0.0,0.0,0.0,0.0,0.0,0.0,0.0,2.4997,2.4997,0.0,2.5424,2.5424,2.5611,2.5917,2.5971,2.6145,2.6339,2.6373,2.6406,2.6446,0.0,0.0,0.0,0.0,0.0,0.0,0.0,0.0,0.0,0.0,0.0,0.0,3.86,3.86,3.86,3.86,3.86,3.86,3.86,3.8673,3.882,3.9151,3.9353,3.974,4.0494,4.0901,4.1102,4.1102,4.1102,4.1268,4.1669,4.1779,4.2127,4.2865,4.3283,4.3499,4.3499,4.3499,4.3499,4.3499,4.3499,4.3499,4.3499,4.3499,4.3499,4.3499,4.3499,4.3499,4.3499,4.3499,4.3499,4.3499,4.3499,4.3499,4.3499,4.3499,4.3499,4.3499,4.3499,4.3499,4.3499,4.3499,4.3499,4.3632,0.0,0.0,0.0,0.0,0.0,0.0,0.0,0.0,0.0,0.0,0.0,0.0,0.0,0.0,0.0,0.0,0.0,0.0,0.0,0.0,0.0,0.0,0.0,0.0,0.0,0.0,0.0,0.0,0.0,0.0,0.0,0.0,0.0,0.0,0.0,0.0,0.0,0.0,2.5403,2.5524,2.5377,0.0,2.5751,2.5751,2.5938,2.6192,2.6192,2.6286,2.6413,2.656,2.66,0.0,0.0,2.7134,2.7321,0.0,2.7823,2.818,0.0,0.0,0.0,3.4498,0.0,0.0,0.0,3.86,3.86,3.86,3.86,3.86,3.86,3.86,3.8673,3.8875,3.9058,3.9353,3.9795,4.0403,4.0809,4.0809,4.0992,4.1194,4.1375,4.1577,4.2035,4.2846,4.3081,4.3302,4.3481,4.3499,4.3499,4.3499,4.3499,4.3499,4.3499,4.3499,4.3499,4.3499,4.3499,4.3499,4.3499,4.3499,4.3499,4.3499,4.3499,4.3499,4.3499,4.3499,4.3499,4.3499,4.3499,4.3499,4.3499,4.3499,4.3499,4.3632,0.0,0.0,0.0,0.0,0.0,0.0,0.0,0.0,0.0,0.0,0.0,0.0,0.0,0.0,0.0,0.0,0.0,0.0,0.0,0.0,0.0,0.0,0.0,2.3117,0.0,0.0,0.0,0.0,0.0,0.0,0.0,0.0,0.0,0.0,0.0,0.0,0.0,0.0,0.0,2.5984,0.0,2.5844,2.6078,2.6078,2.6205,2.6406,2.6406,2.6426,2.6507,2.6727,0.0,2.6961,2.7275,2.7529,0.0,0.0,0.0,0.0,0.0,0.0,0.0,0.0,0.0,3.86,0.0,0.0,0.0,3.86,3.86,3.86,3.86,3.86,3.86,3.86,3.8875,3.9076,0.0,3.9758,0.0,4.0387,4.0735,4.0992,4.0992,4.1412,4.1999,4.2714,4.2865,4.3081,4.3481,4.3499,4.3499,4.3499,4.3499,4.3499,4.3499,4.3499,4.3499,4.3499,4.3499,4.3499,4.3499,4.3499,4.3499,4.3499,4.3499,4.3499,4.3499,4.3499,4.3499,4.3499,4.3499,4.3499,4.3499,4.3499,4.3499,4.3632,0.0,0.0,0.0,0.0,0.0,0.0,0.0,0.0,0.0,0.0,0.0,0.0,0.0,0.0,0.0,0.0,0.0,0.0,2.284,0.0,0.0,0.0,0.0,0.0,2.3732,0.0,0.0,0.0,0.0,0.0,0.0,0.0,0.0,0.0,2.5082,0.0,0.0,0.0,2.5971,0.0,2.6219,2.6326,0.0,2.6353,2.6379,2.6406,2.6406,2.656,2.6754,0.0,2.7001,2.7288,0.0,2.7669,2.7749,0.0,0.0,0.0,0.0,0.0,0.0,0.0,3.7152,0.0,0.0,0.0,3.86,3.86,0.0,3.86,3.86,0.0,0.0,0.0,0.0,0.0,3.8673,3.9058,3.9502,3.9909,4.0331,4.057,0.0,4.1247,4.1889,4.2329,4.2696,4.3081,4.3481,4.3499,4.3499,4.3499,4.3499,4.3499,4.3499,4.3499,4.3499,4.3499,4.3499,4.3499,4.3499,4.3499,4.3499,4.3499,4.3499,4.3499,4.3499,4.3499,4.3499,4.3499,4.3499,4.3499,4.3499,4.3499,4.3499,4.3632,0.0,0.0,0.0,0.0,0.0,0.0,0.0,0.0,0.0,0.0,0.0,0.0,0.0,0.0,0.0,0.0,0.0,2.2974,0.0,0.0,0.0,0.0,0.0,0.0,0.0,0.0,0.0,0.0,2.4431,0.0,0.0,0.0,0.0,0.0,2.5476,0.0,2.5804,0.0,2.6232,0.0,0.0,0.0,0.0,2.6781,2.7153,2.8058,2.7019,2.7476,2.8476,0.0,2.7415,0.0,0.0,0.0,0.0,0.0,0.0,0.0,0.0,0.0,0.0,0.0,0.0,0.0,3.86,0.0,3.86,0.0,0.0,0.0,0.0,0.0,0.0,0.0,3.86,0.0,0.0,0.0,3.9003,0.0,0.0,0.0,0.0,0.0,0.0,0.0,4.2329,4.2733,4.3136,4.3371,4.3499,4.3499,4.3499,4.3499,4.3499,4.3499,4.3499,4.3499,4.3499,4.3499,4.3499,4.3499,4.3499,4.3499,4.3499,4.3499,4.3499,4.3499,4.3499,4.3499,4.3499,4.3499,4.3499,4.3499,4.3499,4.3632,0.0,0.0,0.0,0.0,0.0,0.0,0.0,0.0,0.0,0.0,0.0,0.0,2.2167,2.262,0.0,0.0,2.301,2.3144,0.0,0.0,2.4008,0.0,0.0,0.0,0.0,0.0,0.0,0.0,0.0,0.0,0.0,0.0,0.0,0.0,0.0,2.6038,2.6131,0.0,2.6683,2.7083,2.7083,2.8133,2.9594,2.8375,2.8834,2.9987,2.8785,2.9395,3.0589,2.9502,2.9192,0.0,3.1031,0.0,0.0,0.0,0.0,0.0,3.2227,0.0,0.0,0.0,0.0,0.0,0.0,0.0,0.0,0.0,0.0,0.0,0.0,0.0,0.0,0.0,0.0,3.86,0.0,3.86,0.0,0.0,0.0,0.0,0.0,0.0,0.0,4.1669,4.198,4.2366,4.2861,4.3173,4.3393,4.3499,4.3499,4.3499,4.3499,4.3499,4.3499,4.3499,4.3499,4.3499,4.3499,4.3499,4.3499,4.3499,4.3499,4.3499,4.3499,4.3499,4.3499,4.3499,4.3499,4.3499,4.3499,4.3499,4.3499,4.3632,2.0953,2.0166,0.0,0.0,0.0,0.0,0.0,0.0,0.0,0.0,0.0,0.0,0.0,0.0,0.0,0.0,0.0,2.3434,2.3759,0.0,2.5402,0.0,0.0,2.5833,0.0,0.0,0.0,0.0,0.0,0.0,0.0,0.0,0.0,0.0,0.0,2.6125,2.6393,2.6406,2.7339,2.8817,2.8817,3.0009,3.1804,0.0,3.1781,3.1868,3.2201,0.0,0.0,3.2852,3.2994,0.0,0.0,0.0,0.0,0.0,0.0,0.0,0.0,0.0,0.0,3.8521,0.0,0.0,0.0,0.0,3.86,0.0,0.0,0.0,0.0,0.0,0.0,0.0,0.0,0.0,0.0,0.0,0.0,0.0,0.0,0.0,0.0,4.0494,4.0843,4.1629,4.1702,4.2072,4.2865,4.292,4.31,4.3481,4.3499,4.3499,4.3499,4.3499,4.3499,4.3499,4.3499,4.3499,4.3499,4.3499,4.3499,4.3499,4.3499,4.3499,4.3499,4.3499,4.3499,4.3499,4.3499,4.3499,4.3499,4.3499,4.3499,4.3632,0.0,0.0,0.0,0.0,0.0,0.0,0.0,2.2153,0.0,0.0,0.0,0.0,0.0,2.485,2.4986,0.0,0.0,2.6314,2.5627,2.7009,0.0,0.0,0.0,2.7605,0.0,0.0,0.0,0.0,0.0,0.0,0.0,0.0,0.0,0.0,0.0,2.7359,0.0,0.0,0.0,0.0,0.0,3.3331,3.3837,0.0,0.0,3.4204,3.3205,3.3765,0.0,3.3649,3.3322,3.3601,3.4762,3.4335,3.3642,3.4782,3.5551,0.0,0.0,0.0,3.86,3.86,0.0,0.0,0.0,0.0,0.0,0.0,0.0,0.0,0.0,0.0,0.0,0.0,0.0,0.0,0.0,0.0,0.0,0.0,0.0,0.0,0.0,0.0,0.0,4.088,4.1412,4.1834,4.2091,4.2604,4.2953,4.31,4.3375,4.3499,4.3499,4.3499,4.3499,4.3499,4.3499,4.3499,4.3499,4.3499,4.3499,4.3499,4.3499,4.3499,4.3499,4.3499,4.3499,4.3499,4.3499,4.3499,4.3499,4.3499,4.3499,4.3632,2.1692,0.0,0.0,0.0,0.0,0.0,0.0,0.0,0.0,0.0,2.3829,0.0,2.5634,0.0,2.6863,0.0,2.7892,2.8189,2.7504,2.8886,0.0,2.922,2.972,0.0,0.0,0.0,0.0,0.0,0.0,2.6534,0.0,0.0,0.0,0.0,0.0,2.807,2.8207,2.9252,3.0291,0.0,0.0,3.6062,0.0,0.0,3.542,3.6331,0.0,3.5826,3.6735,3.5628,3.5265,3.5447,3.6574,3.6152,3.5467,3.6594,3.6932,3.6932,3.6932,3.7729,0.0,3.86,3.86,0.0,3.86,0.0,0.0,0.0,0.0,0.0,0.0,0.0,0.0,0.0,0.0,0.0,0.0,3.86,0.0,0.0,0.0,3.904,0.0,3.9722,4.0182,4.0476,4.0971,4.1412,0.0,0.0,4.2751,4.2901,4.3302,4.3499,4.3499,4.3499,4.3499,4.3499,4.3499,4.3499,4.3499,4.3499,4.3499,4.3499,4.3499,4.3499,4.3499,4.3499,4.3499,4.3499,4.3499,4.3499,4.3499,4.3499,4.3664,4.4017,0.0,0.0,0.0,0.0,2.1992,0.0,0.0,0.0,2.3552,0.0,2.5215,2.6166,2.6254,2.7561,2.8603,2.8922,2.9007,2.9118,2.9294,3.0767,0.0,0.0,3.0871,3.1109,2.9975,0.0,0.0,0.0,0.0,0.0,0.0,0.0,0.0,0.0,2.8143,0.0,3.1187,2.8485,3.0125,3.4778,3.7102,3.8033,3.807,3.8453,3.8362,3.807,3.8453,3.86,3.86,3.86,3.86,3.86,3.86,3.86,3.86,3.86,3.86,3.86,3.86,3.86,3.86,3.86,0.0,0.0,0.0,0.0,3.86,0.0,0.0,0.0,0.0,0.0,0.0,0.0,0.0,0.0,0.0,0.0,0.0,0.0,0.0,3.8747,3.9131,3.9186,3.9536,4.0403,4.0476,4.0843,0.0,0.0,4.2476,4.2865,4.3283,4.3499,4.3499,4.3499,4.3499,4.3499,4.3499,4.3499,4.3499,4.3499,4.3499,4.3499,4.3499,4.3499,4.3499,4.3499,4.3499,4.3499,4.3499,4.3499,4.3499,4.3499,4.4017,4.4696,2.3576,2.3576,2.3496,0.0,2.3311,2.3479,0.0,0.0,0.0,0.0,2.6977,2.8516,2.9665,3.0332,3.0708,3.0792,3.1844,0.0,0.0,0.0,0.0,3.3074,3.3445,3.3126,3.1974,3.2206,0.0,3.0159,0.0,0.0,3.0522,0.0,0.0,0.0,0.0,3.2304,3.231,3.3973,3.5617,3.7159,3.8076,3.8435,0.0,0.0,3.8545,3.8453,3.8563,3.86,3.86,3.86,3.86,3.86,3.86,3.86,3.86,3.86,3.86,3.86,3.86,3.86,3.86,3.86,3.86,3.86,0.0,0.0,0.0,0.0,0.0,0.0,0.0,0.0,0.0,0.0,0.0,0.0,0.0,0.0,0.0,3.86,0.0,3.8637,3.8747,3.9021,3.9447,4.0001,4.0331,4.0714,0.0,0.0,0.0,4.2439,4.3114,4.3499,4.3499,4.3499,4.3499,4.3499,4.3499,4.3499,4.3499,4.3499,4.3499,4.3499,4.3499,4.3499,4.3499,4.3499,4.3499,4.3499,4.3499,4.3499,4.3499,4.3499,4.4017,4.4696,2.3803,0.0,0.0,2.3973,0.0,0.0,2.4997,0.0,0.0,2.7297,2.8913,0.0,3.1182,3.2018,3.2579,3.2756,3.3565,0.0,3.3091,0.0,0.0,3.4642,3.4661,3.4432,3.3976,3.4151,0.0,3.2168,0.0,0.0,3.2367,0.0,0.0,0.0,0.0,3.3973,3.4781,3.6801,3.7458,3.7209,3.8193,0.0,0.0,3.86,3.86,3.86,3.86,3.86,3.86,3.86,3.86,3.86,3.86,3.86,3.8637,3.882,3.8856,3.8913,3.9116,3.9171,3.9171,3.9171,3.9171,3.9171,3.9171,3.9171,3.9116,0.0,0.0,0.0,0.0,0.0,0.0,0.0,0.0,0.0,0.0,0.0,0.0,0.0,3.86,0.0,3.86,3.8801,3.9115,3.9558,3.9981,0.0,0.0,0.0,0.0,4.2292,4.2916,4.332,4.3499,4.3499,4.3499,4.3499,4.3499,4.3499,4.3499,4.3499,4.3499,4.3499,4.3499,4.3499,4.3499,4.3499,4.3499,4.3499,4.3499,4.3499,4.3499,4.3499,4.3907,4.4457,2.3906,0.0,0.0,0.0,0.0,0.0,0.0,2.7146,0.0,2.9296,0.0,3.1876,3.1876,3.3123,3.4092,3.4458,0.0,3.4642,3.4991,3.4991,3.5009,3.5082,3.5082,3.5284,3.5669,3.5669,0.0,0.0,0.0,0.0,0.0,0.0,0.0,0.0,0.0,0.0,0.0,3.7942,3.7406,3.6474,3.7986,3.86,3.86,3.86,3.8637,3.8673,3.8673,3.8637,3.8618,3.8655,3.8673,3.8692,3.8747,3.8765,3.884,3.9188,3.9298,3.9371,3.9781,3.9911,3.9911,3.9911,3.9911,3.9911,3.9911,3.9911,3.9781,3.9392,3.9298,0.0,0.0,0.0,0.0,0.0,0.0,0.0,0.0,0.0,0.0,0.0,0.0,0.0,3.86,3.86,3.8765,3.9188,0.0,0.0,0.0,0.0,0.0,4.2292,4.2678,0.0,4.3499,0.0,4.3499,4.3499,4.3499,4.3499,4.3499,4.3499,4.3499,4.3499,4.3499,4.3499,4.3499,4.3499,4.3499,4.3499,4.3499,4.3499,4.3499,4.3499,4.3719,4.409,2.4471,0.0,0.0,0.0,0.0,2.9204,3.0436,3.0614,3.0735,3.1067,3.2738,3.3888,3.3888,3.4427,3.4826,3.4899,3.4881,0.0,0.0,0.0,0.0,3.5485,3.5504,3.5687,3.6091,3.609,3.5979,0.0,0.0,0.0,0.0,0.0,0.0,0.0,3.7248,3.7541,3.8398,3.8453,0.0,3.8165,3.8481,3.86,3.86,3.86,3.8801,3.9095,3.9095,3.8875,3.8655,3.8985,3.9095,3.917,3.954,3.9671,3.9689,3.9762,3.9742,3.972,3.9854,3.9911,3.9911,3.9911,3.9911,3.9911,3.9911,3.9911,3.9875,3.9781,3.9781,3.9632,3.9188,0.0,0.0,0.0,0.0,0.0,0.0,0.0,0.0,0.0,0.0,3.86,0.0,0.0,0.0,0.0,0.0,0.0,0.0,0.0,0.0,0.0,4.2678,0.0,0.0,0.0,4.3499,4.3499,4.3499,4.3499,4.3499,4.3499,4.3499,4.3499,4.3499,4.3499,4.3499,4.3499,4.3499,4.3499,4.3499,4.3499,4.3499,4.3499,4.3536,4.3701,0.0,0.0,0.0,0.0,0.0,0.0,0.0,3.249,0.0,3.3003,3.3835,3.4477,3.4679,3.4881,3.5083,3.5284,3.5321,3.5412,3.5614,3.5614,3.5705,3.5907,3.5907,0.0,3.6201,3.6201,3.6292,3.6512,0.0,0.0,0.0,0.0,0.0,3.7997,3.8217,3.8417,0.0,0.0,0.0,3.86,3.86,3.86,3.8618,3.882,3.9021,3.9243,3.9465,3.9448,3.93,3.9503,3.9558,3.9595,3.9817,3.9911,3.9948,4.0148,4.0182,4.0219,4.046,4.0515,4.0515,4.0515,4.0515,4.0515,4.0515,4.0515,4.046,4.0258,4.0203,4.0093,3.965,3.9206,0.0,0.0,0.0,0.0,0.0,0.0,0.0,0.0,0.0,0.0,0.0,0.0,0.0,0.0,0.0,3.9964,0.0,0.0,0.0,0.0,0.0,0.0,0.0,0.0,0.0,4.3499,4.3499,4.3499,4.3499,4.3499,4.3499,4.3499,4.3499,4.3499,4.3499,4.3499,4.3499,4.3499,4.3499,4.3499,4.3499,4.3499,4.3499,4.3573,0.0,2.8626,0.0,0.0,3.1079,0.0,3.2662,3.375,3.4532,3.4532,3.4605,3.4788,3.5083,3.5192,3.5394,3.5705,3.5724,3.5889,3.6292,3.6329,3.6384,3.6439,3.6476,3.6476,3.6476,3.6476,3.6604,0.0,0.0,0.0,0.0,0.0,0.0,0.0,0.0,0.0,0.0,0.0,3.86,3.8618,3.8692,3.8728,3.8765,3.9188,3.939,3.9518,3.9889,4.0074,4.0168,4.0168,4.0113,4.0058,4.0132,4.0168,4.0224,4.0533,4.0644,4.0699,4.1011,4.1102,4.1102,4.1102,4.1102,4.1102,4.1102,4.1102,4.1011,4.0699,4.0549,4.0384,4.0095,3.9669,0.0,0.0,0.0,0.0,0.0,0.0,0.0,0.0,0.0,0.0,3.86,0.0,0.0,0.0,0.0,3.9872,3.9872,4.0662,0.0,0.0,0.0,4.2696,4.3481,0.0,4.3499,0.0,4.3499,4.3499,4.3499,4.3499,4.3499,4.3499,4.3499,4.3499,4.3499,4.3499,4.3499,4.3499,4.3499,4.3499,4.3499,4.3499,4.3499,4.3536,0.0,0.0,0.0,0.0,0.0,0.0,3.4666,3.4846,3.4936,3.4936,3.5266,3.5504,3.554,3.587,3.609,3.6146,3.6127,3.631,3.6713,3.6731,3.6896,3.7282,3.7282,3.7282,3.7282,3.7282,3.7318,0.0,0.0,0.0,0.0,0.0,0.0,0.0,0.0,0.0,0.0,3.86,3.86,3.8637,3.8985,3.9131,3.9186,3.965,4.0056,4.0384,4.0442,4.068,4.0992,4.0992,4.0754,4.0515,4.0864,4.0992,4.0992,4.1029,4.1047,4.1047,4.1084,4.1102,4.1102,4.1102,4.1102,4.1102,4.1102,4.1102,4.1084,4.1047,4.0733,4.0476,4.046,4.0111,3.9817,0.0,0.0,0.0,0.0,0.0,3.9131,3.9131,0.0,0.0,0.0,3.86,0.0,0.0,3.9412,3.9872,3.9793,4.0623,4.147,4.2274,0.0,4.2696,4.3481,4.3499,0.0,4.3499,4.3499,4.3499,4.3499,4.3499,4.3499,4.3499,4.3499,4.3499,4.3499,4.3499,4.3499,4.3499,4.3499,4.3499,4.3499,4.3499,4.3499,4.3499,0.0,0.0,0.0,0.0,0.0,0.0,0.0,3.5577,3.5815,3.6054,3.6017,3.6054,3.6292,3.6677,3.6915,3.6915,3.6915,3.6988,3.7134,3.7153,3.7226,3.7373,3.741,3.741,3.741,3.741,3.752,0.0,0.0,0.0,0.0,0.0,0.0,0.0,0.0,3.86,3.86,3.86,3.8747,3.8966,3.9151,3.9353,3.9669,4.0093,4.0368,4.0531,4.0772,4.0974,4.1102,4.1102,4.0992,4.0901,4.1047,4.1102,4.1102,4.1102,4.1102,4.1102,4.1102,4.1102,4.1102,4.1102,4.1102,4.1102,4.1102,4.1102,4.1102,4.1102,4.0974,4.0864,4.0864,4.0533,4.0258,0.0,0.0,0.0,0.0,0.0,0.0,0.0,0.0,3.9375,0.0,0.0,0.0,0.0,0.0,3.9872,3.9852,4.0662,0.0,4.2274,0.0,4.2696,4.3481,4.3499,4.3499,4.3499,4.3499,4.3499,4.3499,4.3499,4.3499,4.3499,4.3499,4.3499,4.3499,4.3499,4.3499,4.3499,4.3499,4.3499,4.3499,4.3499,4.3499,4.3499,3.2803,0.0,3.4697,0.0,3.5192,3.5339,3.587,3.62,3.6512,3.6915,3.6842,3.6787,3.6951,3.7226,3.741,3.741,3.741,3.7447,3.7575,3.7575,3.763,3.7739,3.7739,0.0,3.7739,3.7739,3.7905,3.818,3.818,0.0,0.0,0.0,0.0,0.0,3.86,3.86,3.8618,3.8728,3.893,3.9205,3.9481,3.9797,4.0111,4.0533,4.068,4.0696,4.0992,4.1102,4.1102,4.1102,4.1102,4.1102,4.1102,4.1102,4.1102,4.1102,4.1102,4.1102,4.1102,4.1102,4.1102,4.1102,4.1102,4.1102,4.1102,4.1102,4.1102,4.1102,4.1102,4.1102,4.1102,4.0864,4.068,4.068,0.0,0.0,0.0,0.0,0.0,0.0,3.9985,3.9911,3.9911,3.9595,0.0,0.0,0.0,4.0095,4.0095,0.0,0.0,0.0,0.0,0.0,0.0,4.3499,4.3499,4.3499,4.3499,4.3499,4.3499,4.3499,4.3499,4.3499,4.3499,4.3499,4.3499,4.3499,4.3499,4.3499,4.3499,4.3499,4.3499,4.3499,4.3499,4.3499,3.4667,3.4991,3.5119,3.5522,3.5595,3.587,3.6658,3.6786,3.6933,3.7355,3.774,3.7832,3.7447,3.741,3.741,3.741,3.741,3.7575,3.796,3.7997,3.818,0.0,0.0,3.8582,3.8582,3.8582,3.86,3.86,0.0,0.0,3.86,0.0,3.86,3.86,3.86,3.86,3.8637,3.9021,3.9206,3.928,4.0146,4.0476,4.0531,4.0937,4.1102,4.1102,4.1102,4.1102,4.1102,4.1102,4.1102,4.1102,4.1102,4.1102,4.1102,4.1102,4.1102,4.1102,4.1102,4.1102,4.1102,4.1102,4.1102,4.1102,4.1102,4.1102,4.1102,4.1102,4.1102,4.1102,4.1102,4.1102,4.1102,4.1102,0.0,0.0,0.0,0.0,0.0,0.0,4.0129,3.9911,3.9911,3.9893,0.0,0.0,0.0,0.0,0.0,0.0,0.0,4.2274,4.2292,0.0,4.3481,4.3499,4.3499,4.3499,4.3499,4.3499,4.3499,4.3499,4.3499,4.3499,4.3499,4.3499,4.3499,4.3499,4.3499,4.3499,4.3499,4.3499,4.3499,4.3499,4.3499,4.3499,3.5266,3.5412,3.5614,3.6292,3.642,3.6604,3.7135,3.7447,3.7667,3.7795,3.8162,3.8362,3.8234,3.8215,3.8215,0.0,3.8215,3.827,0.0,3.8398,3.8472,3.86,3.86,3.86,3.86,3.86,3.86,3.86,0.0,0.0,0.0,3.86,3.86,3.86,3.86,3.8747,3.9021,3.9151,3.9536,4.0127,4.0384,4.0659,4.0937,4.1047,4.1102,4.1102,4.1102,4.1102,4.1102,4.1102,4.1102,4.1158,4.1412,4.132,4.1102,4.1102,4.1102,4.1102,4.1102,4.1102,4.1102,4.1102,4.1102,4.1102,4.1102,4.1102,4.1102,4.1102,4.1102,4.1102,4.1102,4.1102,4.1102,4.1102,4.1102,0.0,0.0,0.0,0.0,0.0,4.079,4.0717,0.0,4.046,0.0,0.0,0.0,0.0,0.0,0.0,0.0,0.0,4.2568,0.0,4.3481,4.3499,4.3499,4.3499,4.3499,4.3499,4.3499,4.3499,4.3499,4.3499,4.3499,4.3499,4.3499,4.3499,4.3499,4.3499,4.3499,4.3499,4.3499,4.3499,4.3499,4.3499,3.598,3.6054,3.6255,3.6915,3.7043,3.7153,3.7557,3.7832,3.8052,3.8217,3.8435,3.86,3.86,3.86,0.0,3.86,3.86,3.86,3.86,3.86,3.86,3.86,3.86,3.86,3.86,0.0,0.0,3.86,3.86,3.86,3.86,3.86,3.8692,3.882,3.882,3.906,3.9465,3.961,3.9997,4.0494,4.0659,4.0882,4.1102,4.1102,4.1102,4.1102,4.1102,4.1194,4.1341,4.1341,4.1433,4.1577,4.1852,4.1742,4.1561,4.1561,4.1561,4.1561,4.1561,4.1561,4.1561,4.1561,4.1561,4.1561,4.1561,4.143,4.1341,4.1341,4.1213,4.1102,4.1102,4.1102,4.1102,4.1102,4.1102,4.1102,4.1102,0.0,0.0,0.0,0.0,0.0,0.0,4.0882,0.0,0.0,0.0,0.0,0.0,0.0,0.0,4.2494,4.2751,0.0,4.3499,4.3499,4.3499,4.3499,4.3499,4.3499,4.3499,4.3499,4.3499,4.3499,4.3499,4.3499,4.3499,4.3499,4.3499,4.3499,4.3499,4.3499,4.3499,4.3499,4.3499,4.3499,3.675,3.6841,0.0,0.0,3.7447,0.0,3.7978,3.8033,3.818,3.8545,3.86,3.86,3.86,3.86,3.86,3.86,0.0,0.0,0.0,3.86,3.86,3.86,3.86,3.86,3.86,3.86,3.86,3.86,3.86,3.86,3.86,3.8637,3.8838,3.9186,3.9243,3.9502,3.9966,4.035,4.0533,4.0568,4.0956,4.1102,4.1102,4.1102,4.1102,4.1102,4.1139,4.1375,4.1702,4.1721,4.1999,4.2311,4.2329,4.2347,4.2329,4.2311,4.2292,4.2292,4.2292,4.2292,4.2292,4.2292,4.2292,4.2292,4.2292,4.2017,4.1739,4.1739,4.143,4.1194,4.1194,4.1194,4.1194,4.1194,4.1194,4.1194,4.1194,0.0,0.0,0.0,0.0,0.0,0.0,4.1194,4.1341,0.0,0.0,0.0,0.0,0.0,4.2127,4.2883,4.2938,4.3118,4.3499,4.3499,4.3499,4.3499,4.3499,4.3499,4.3499,4.3499,4.3499,4.3499,4.3499,4.3499,4.3499,4.3499,4.3499,4.3499,4.3499,4.3499,4.3499,4.3499,4.3499,4.3499,0.0,0.0,3.7392,3.7795,3.785,3.7997,3.8398,3.8453,3.849,3.86,3.86,3.86,3.86,3.86,3.86,3.86,3.86,3.86,3.86,3.86,3.86,3.86,3.86,3.86,3.86,3.86,3.86,3.86,3.86,3.86,3.8618,3.8911,3.9095,3.9225,3.9577,3.9964,4.0368,4.0458,4.068,4.0974,4.1066,4.1102,4.1102,4.1102,4.1102,4.1139,4.1448,4.1632,4.176,4.2054,4.2219,4.2347,4.2659,4.2773,4.2696,4.2384,4.2292,4.2292,4.2292,4.2292,4.2292,4.2292,4.2292,4.2292,4.2292,4.2219,4.2164,4.2164,4.2072,4.2017,4.2017,4.2017,4.2017,4.2017,4.2017,4.2017,4.2017,4.2017,0.0,0.0,4.2017,4.2017,4.2017,4.2017,4.2054,0.0,0.0,0.0,0.0,4.2681,4.2696,4.2879,4.321,4.3389,4.3499,4.3499,4.3499,4.3499,4.3499,4.3499,4.3499,4.3499,4.3499,4.3499,4.3499,4.3499,4.3499,4.3499,4.3499,4.3499,4.3499,4.3499,4.3499,4.3499,4.3499,4.3499,3.7593,3.7667,3.7813,3.8217,3.827,3.8343,3.8563,3.86,3.86,3.86,3.86,3.86,3.86,3.86,3.86,3.86,3.86,3.86,3.86,3.86,3.86,3.86,3.86,3.86,3.86,3.86,3.8692,3.8875,3.8875,3.8986,3.919,3.941,3.9612,3.9813,4.0054,4.0405,4.0772,4.0772,4.0901,4.1102,4.1102,4.1102,4.1102,4.1102,4.1191,4.1393,4.1632,4.1944,4.2274,4.2494,4.2696,4.2898,4.31,4.3173,4.3136,4.2916,4.2861,4.2861,4.2861,4.2861,4.2861,4.2861,4.2861,4.2861,4.2861,4.2714,4.2568,4.2568,4.2421,4.2292,4.2292,4.2292,4.2292,4.2292,4.2292,4.2292,4.2292,4.2292,0.0,4.2292,4.2292,4.2292,4.2292,4.2292,4.2366,4.2549,0.0,0.0,4.3155,4.3173,4.3173,4.3173,4.3393,4.3499,4.3499,4.3499,4.3499,4.3499,4.3499,4.3499,4.3499,4.3499,4.3499,4.3499,4.3499,4.3499,4.3499,4.3499,4.3499,4.3499,4.3499,4.3499,4.3499,4.3499,4.3499,4.3499,3.8015,3.8088,3.8198,3.8545,3.86,3.86,3.86,3.86,3.86,3.86,3.86,3.86,3.86,3.86,3.8618,3.8692,3.8751,3.8753,3.86,3.86,3.8637,3.8692,3.8692,3.8728,3.8783,3.8803,3.8968,3.9298,3.9298,3.9502,3.9911,3.9966,4.0166,4.0494,4.0549,4.079,4.1102,4.1102,4.1102,4.1102,4.1102,4.1102,4.1102,4.1176,4.1393,4.1724,4.1852,4.2329,4.292,4.2953,4.3228,4.3499,4.3499,4.3499,4.3499,4.3499,4.3499,4.3499,4.3499,4.3499,4.3499,4.3499,4.3499,4.3499,4.3499,4.3246,4.299,4.299,4.2714,4.2476,4.2476,4.2476,4.2476,4.2476,4.2476,4.2476,4.2476,0.0,4.2476,4.2476,4.2476,4.2476,4.2476,4.2476,4.2623,4.2953,4.299,4.3136,0.0,4.3499,4.3499,4.3499,4.3499,4.3499,4.3499,4.3499,4.3499,4.3499,4.3499,4.3499,4.3499,4.3499,4.3499,4.3499,4.3499,4.3499,4.3499,4.3499,4.3499,4.3499,4.3499,4.3499,4.3499,4.3499,4.3499,4.3499,3.8417,3.8508,3.8527,3.86,3.86,3.86,3.86,3.86,3.86,3.86,3.86,3.86,3.86,3.86,3.8747,3.9096,3.9476,3.9387,3.8638,3.86,3.8747,3.9076,3.9095,3.928,3.9689,3.9689,3.9726,3.9781,3.9781,3.9817,3.9911,4.0258,4.0442,4.0513,4.0864,4.1047,4.1102,4.1102,4.1102,4.1102,4.1102,4.1102,4.1139,4.1467,4.165,4.1797,4.2457,4.2788,4.2935,4.3302,4.3444,4.3499,4.3499,4.3499,4.3499,4.3499,4.3499,4.3499,4.3499,4.3499,4.3499,4.3499,4.3499,4.3499,4.3499,4.3444,4.3412,4.3412,4.3375,4.3298,4.3298,4.3298,4.3298,4.3298,4.3298,4.3298,4.3298,0.0,4.3298,4.3298,4.3298,4.3298,4.3298,4.3298,4.3334,4.3389,4.3412,4.3426,4.3499,4.3499,4.3499,4.3499,4.3499,4.3499,4.3499,4.3499,4.3499,4.3499,4.3499,4.3499,4.3499,4.3499,4.3499,4.3499,4.3499,4.3499,4.3499,4.3499,4.3499,4.3499,4.3499,4.3499,4.3499,4.3499,4.3499,4.3499,3.8563,3.86,3.86,3.86,3.86,3.86,3.86,3.86,3.86,3.86,3.86,3.86,3.86,3.8783,3.9085,3.9529,3.9772,3.9827,3.9642,3.9622,3.9615,3.9577,3.9577,3.9689,3.9893,3.9911,4.0021,4.0221,4.0221,4.0331,4.0552,4.0735,4.0827,4.0845,4.1029,4.1102,4.1102,4.1102,4.1102,4.1102,4.1102,4.1231,4.1448,4.1632,4.198,4.2384,4.2751,4.3026,4.3246,4.3448,4.3499,4.3499,4.3499,4.3499,4.3499,4.3499,4.3499,4.3499,4.3499,4.3499,4.3499,4.3499,4.3499,4.3499,4.3499,4.3499,4.3499,4.3499,4.3499,4.3499,4.3499,4.3499,4.3499,4.3499,4.3499,0.0,0.0,4.3499,4.3499,4.3499,4.3499,4.3499,4.3499,4.3499,4.3499,4.3499,4.3499,4.3499,4.3499,4.3499,4.3499,4.3499,4.3499,4.3499,4.3499,4.3499,4.3499,4.3499,4.3499,4.3499,4.3499,4.3499,4.3499,4.3499,4.3499,4.3499,4.3499,4.3499,4.3499,4.3499,4.3499,4.3499,4.3499,4.3499,4.3499,4.3499,3.86,3.86,3.86,3.86,3.86,3.86,3.86,3.86,3.86,3.86,3.8679,3.8795,3.8887,3.9263,3.9722,4.0291,4.0345,4.0466,4.0762,4.0782,4.056,4.0058,4.0132,4.0187,4.0187,4.0187,4.0331,4.0623,4.0623,4.0809,4.1102,4.1102,4.1102,4.1102,4.1102,4.1102,4.1102,4.1102,4.1102,4.1121,4.1213,4.1412,4.1702,4.1907,4.2366,4.292,4.303,4.3246,4.3499,4.3499,4.3499,4.3499,4.3499,4.3499,4.3499,4.3499,4.3499,4.3499,4.3499,4.3499,4.3499,4.3499,4.3499,4.3499,4.3499,4.3499,4.3499,4.3499,4.3499,4.3499,4.3499,4.3499,4.3499,4.3499,0.0,0.0,0.0,4.3499,4.3499,4.3499,4.3499,4.3499,4.3499,4.3499,4.3499,4.3499,4.3499,4.3499,4.3499,4.3499,4.3499,4.3499,4.3499,4.3499,4.3499,4.3499,4.3499,4.3499,4.3499,4.3499,4.3499,4.3499,4.3499,4.3499,4.3499,4.3499,4.3499,4.3499,4.3499,4.3499,4.3499,4.3499,4.3499,4.3499,4.3499,4.3499,3.86,3.86,3.86,3.86,3.86,3.86,3.86,3.86,3.86,3.86,3.8976,3.9383,3.9756,4.015,4.075,4.1587,4.1641,4.1645,4.1604,4.1621,4.1266,4.0478,4.0809,4.1011,4.1011,4.1011,4.1029,4.1066,4.1066,4.1066,4.1102,4.1102,4.1102,4.1102,4.1102,4.1102,4.1102,4.1102,4.1102,4.1139,4.1503,4.1666,4.1797,4.2531,4.2843,4.2935,4.332,4.3463,4.3499,4.3499,4.3499,4.3499,4.3499,4.3499,4.3499,4.3499,4.3499,4.3499,4.3499,4.3499,4.3499,4.3499,4.3499,4.3499,4.3499,4.3499,4.3499,4.3499,4.3499,4.3499,4.3499,4.3499,4.3499,4.3499,0.0,0.0,4.3499,4.3499,4.3499,4.3499,4.3499,4.3499,4.3499,4.3499,4.3499,4.3499,4.3499,4.3499,4.3499,4.3499,4.3499,4.3499,4.3499,4.3499,4.3499,4.3499,4.3499,4.3499,4.3499,4.3499,4.3499,4.3499,4.3499,4.3499,4.3499,4.3499,4.3499,4.3499,4.3499,4.3499,4.3499,4.3499,4.3499,4.3499,4.3499,4.3499,3.86,3.86,3.86,3.86,3.86,3.86,3.86,3.8857,3.9035,3.9035,3.941,3.9817,4.0231,4.0635,4.1234,4.215,4.1942,4.1859,4.2132,4.163,4.1197,4.0882,4.1029,4.1102,4.1102,4.1102,4.1102,4.1102,4.1102,4.1102,4.1102,4.1102,4.1102,4.1102,4.1102,4.1102,4.1121,4.1357,4.1467,4.1503,4.1907,4.2219,4.2476,4.2769,4.3045,4.3302,4.3467,4.3499,4.3499,4.3499,4.3499,4.3499,4.3499,4.3499,4.3499,4.3499,4.3499,4.3499,4.3499,4.3499,4.3499,4.3499,4.3499,4.3499,4.3499,4.3499,4.3499,4.3499,4.3499,4.3499,4.3499,4.3499,4.3499,4.3499,0.0,4.3499,4.3499,4.3499,4.3499,4.3499,4.3499,4.3499,4.3499,4.3499,4.3499,4.3499,4.3499,4.3499,4.3499,4.3499,4.3499,4.3499,4.3499,4.3499,4.3499,4.3499,4.3499,4.3499,4.3499,4.3499,4.3499,4.3499,4.3499,4.3499,4.3499,4.3499,4.3499,4.3499,4.3499,4.3499,4.3499,4.3499,4.3499,4.3499,4.3499,4.3499,3.86,3.86,3.86,3.86,3.86,3.864,3.8798,3.9095,3.9351,3.9469,3.9976,4.046,4.0858,4.1399,4.2001,4.2627,4.2231,4.1986,4.2153,4.1502,4.1102,4.1102,4.1102,4.1102,4.1102,4.1102,4.1102,4.1102,4.1102,4.1102,4.1102,4.1102,4.1102,4.1102,4.1102,4.1176,4.1323,4.1595,4.1779,4.1925,4.2329,4.2641,4.2898,4.3026,4.3265,4.3499,4.3499,4.3499,4.3499,4.3499,4.3499,4.3499,4.3499,4.3499,4.3499,4.3499,4.3499,4.3499,4.3499,4.3499,4.3499,4.3499,4.3499,4.3499,4.3499,4.3499,4.3499,4.3499,4.3499,4.3499,4.3499,4.3499,4.3499,4.3499,4.3499,4.3499,4.3499,4.3499,4.3499,4.3499,4.3499,4.3499,4.3499,4.3499,4.3499,4.3499,4.3499,4.3499,4.3499,4.3499,4.3499,4.3499,4.3499,4.3499,4.3499,4.3499,4.3499,4.3499,4.3499,4.3499,4.3499,4.3499,4.3499,4.3499,4.3499,4.3499,4.3499,4.3499,4.3499,4.3499,4.3499,4.3499,4.3499,4.3499,4.3499,4.3499,3.86,3.86,3.86,3.86,3.86,3.8758,3.9233,3.9312,3.945,3.9843,4.0677,4.1357,4.176,4.2589,4.3099,4.3091,4.2673,4.2214,4.1716,4.1315,4.1102,4.1102,4.1102,4.1102,4.1102,4.1102,4.1102,4.1102,4.1102,4.1102,4.1102,4.1102,4.1102,4.1102,4.1102,4.132,4.1705,4.1702,4.1944,4.2329,4.2733,4.2898,4.2935,4.3357,4.3499,4.3499,4.3499,4.3499,4.3499,4.3499,4.3499,4.3499,4.3499,4.3499,4.3499,4.3499,4.3499,4.3499,4.3499,4.3499,4.3499,4.3499,4.3499,4.3499,4.3499,4.3499,4.3499,4.3499,4.3499,4.3499,4.3499,4.3499,4.3499,4.3499,4.3499,4.3499,4.3499,4.3499,4.3499,4.3499,4.3499,4.3499,4.3499,4.3499,4.3499,4.3499,4.3499,4.3499,4.3499,4.3499,4.3499,4.3499,4.3499,4.3499,4.3499,4.3499,4.3499,4.3499,4.3499,4.3499,4.3499,4.3499,4.3499,4.3499,4.3499,4.3499,4.3499,4.3499,4.3499,4.3499,4.3499,4.3499,4.3499,4.3499,4.3499,4.3499,3.86,3.86,3.8699,3.9035,3.9095,3.9233,3.9666,3.9942,4.0311,4.0755,4.1284,4.1891,4.263,4.2947,4.3099,4.3091,4.2673,4.2089,4.1334,4.142,4.1399,4.1102,4.1102,4.1102,4.1102,4.1102,4.1102,4.1102,4.1102,4.1102,4.1102,4.1102,4.1102,4.1102,4.1102,4.132,4.1724,4.1999,4.2347,4.2773,4.3173,4.332,4.3316,4.3444,4.3499,4.3499,4.3499,4.3499,4.3499,4.3499,4.3499,4.3499,4.3499,4.3499,4.3499,4.3499,4.3499,4.3499,4.3499,4.3499,4.3499,4.3499,4.3499,4.3499,4.3499,4.3499,4.3499,4.3499,4.3499,4.3499,4.3499,4.3499,4.3499,4.3499,4.3499,4.3499,4.3499,4.3499,4.3499,4.3499,4.3499,4.3499,4.3499,4.3499,4.3499,4.3499,4.3499,4.3499,4.3499,4.3499,4.3499,4.3499,4.3499,4.3499,4.3499,4.3499,4.3499,4.3499,4.3499,4.3499,4.3499,4.3499,4.3499,4.3499,4.3499,4.3499,4.3499,4.3499,4.3499,4.3499,4.3499,4.3499,4.3499,4.3499,4.3499,4.3499,3.86,3.8758,3.8976,3.9253,3.943,3.9666,4.0079,4.0506,4.0934,4.1382,4.1951,4.25,4.3048,4.3243,4.3273,4.3111,4.2673,4.2172,4.1649,4.1672,4.1591,4.1357,4.1187,4.1102,4.1102,4.1102,4.1102,4.1102,4.1102,4.1102,4.1102,4.1102,4.1102,4.1102,4.1268,4.1558,4.1962,4.2366,4.2769,4.3155,4.3389,4.3499,4.3499,4.3499,4.3499,4.3499,4.3499,4.3499,4.3499,4.3499,4.3499,4.3499,4.3499,4.3499,4.3499,4.3499,4.3499,4.3499,4.3499,4.3499,4.3499,4.3499,4.3499,4.3499,4.3499,4.3499,4.3499,4.3499,4.3499,4.3499,4.3499,4.3499,4.3499,4.3499,4.3499,4.3499,4.3499,4.3499,4.3499,4.3499,4.3499,4.3499,4.3499,4.3499,4.3499,4.3499,4.3499,4.3499,4.3499,4.3499,4.3499,4.3499,4.3499,4.3499,4.3499,4.3499,4.3499,4.3499,4.3499,4.3499,4.3499,4.3499,4.3499,4.3499,4.3499,4.3499,4.3499,4.3499,4.3499,4.3499,4.3499,4.3499,4.3499,4.3499,4.3499,4.3499,3.864,3.9016,3.9331,3.9392,3.9706,4.0117,4.0548,4.0973,4.1421,4.1855,4.2618,4.3106,4.3145,4.3476,4.3546,4.3151,4.2714,4.2423,4.2339,4.1986,4.1716,4.1653,4.1294,4.1102,4.1102,4.1102,4.1102,4.1102,4.1102,4.1102,4.1102,4.1102,4.1121,4.1176,4.154,4.1944,4.2366,4.2733,4.3136,4.3499,4.3499,4.3499,4.3499,4.3499,4.3499,4.3499,4.3499,4.3499,4.3499,4.3499,4.3544,4.3566,4.3566,4.3566,4.3566,4.3566,4.3544,4.3499,4.3499,4.3499,4.3499,4.3499,4.3499,4.3499,4.3499,4.3499,4.3499,4.3499,4.3499,4.3499,4.3499,4.3499,4.3499,4.3499,4.3499,4.3499,4.3499,4.3499,4.3499,4.3499,4.3499,4.3499,4.3499,4.3499,4.3499,4.3499,4.3499,4.3499,4.3499,4.3499,4.3499,4.3499,4.3499,4.3499,4.3499,4.3499,4.3499,4.3499,4.3499,4.3499,4.3499,4.3499,4.3499,4.3499,4.3499,4.3499,4.3499,4.3499,4.3499,4.3499,4.3499,4.3499,4.3499,4.3499,4.3499,4.3499,3.9075,3.9233,3.949,4.0118,4.0314,4.0625,4.1405,4.16,4.1952,4.2715,4.2989,4.3223,4.3535,4.3652,4.3546,4.3151,4.3005,4.2633,4.1902,4.2091,4.1942,4.1271,4.1145,4.1102,4.1102,4.1102,4.1102,4.1102,4.1102,4.1102,4.1102,4.1102,4.1286,4.1577,4.1669,4.2109,4.2791,4.2843,4.3136,4.3499,4.3499,4.3499,4.3499,4.3499,4.3499,4.3499,4.3499,4.3499,4.3499,4.3499,4.3726,4.4038,4.4038,4.4038,4.4038,4.4038,4.3789,4.3499,4.3499,4.3499,4.3499,4.3499,4.3499,4.3499,4.3499,4.3499,4.3499,4.3499,4.3499,4.3499,4.3499,4.3499,4.3499,4.3499,4.3499,4.3499,4.3499,4.3499,4.3499,4.3499,4.3499,4.3499,4.3499,4.3499,4.3499,4.3499,4.3499,4.3499,4.3499,4.3499,4.3499,4.3499,4.3499,4.3499,4.3499,4.3499,4.3499,4.3499,4.3499,4.3499,4.3499,4.3499,4.3499,4.3499,4.3499,4.3499,4.3499,4.3499,4.3499,4.3499,4.3499,4.3499,4.3499,4.3499,4.3499,4.3499,3.9509,3.9726,4.0001,4.0431,4.0839,4.1268,4.1718,4.2148,4.2578,4.3048,4.3282,4.3457,4.3691,4.3711,4.3628,4.3401,4.338,4.3173,4.2676,4.2695,4.2423,4.1754,4.1504,4.1294,4.1102,4.1102,4.1102,4.1102,4.1102,4.1102,4.1102,4.1102,4.1302,4.1702,4.1907,4.2329,4.2898,4.31,4.332,4.3499,4.3499,4.3499,4.3499,4.3499,4.3499,4.3499,4.3499,4.3499,4.3544,4.3767,4.3993,4.4237,4.4459,4.437,4.4193,4.4193,4.386,4.3499,4.3499,4.3499,4.3499,4.3499,4.3499,4.3499,4.3499,4.3499,4.3499,4.3499,4.3499,4.3499,4.3499,4.3499,4.3499,4.3499,4.3499,4.3499,4.3499,4.3499,4.3499,4.3499,4.3499,4.3499,4.3499,4.3499,4.3499,4.3499,4.3499,4.3499,4.3499,4.3499,4.3499,4.3499,4.3499,4.3499,4.3499,4.3499,4.3499,4.3499,4.3499,4.3499,4.3499,4.3499,4.3499,4.3499,4.3499,4.3499,4.3499,4.3499,4.3499,4.3499,4.3499,4.3499,4.3499,4.3499,4.3499,4.3499,3.9922,4.0255,4.0529,4.0607,4.1268,4.1816,4.1894,4.2578,4.3126,4.3204,4.3496,4.3711,4.3711,4.3711,4.3711,4.3711,4.3711,4.367,4.3608,4.3296,4.2881,4.2423,4.1944,4.1546,4.1208,4.1145,4.1102,4.1102,4.1102,4.1102,4.1102,4.1102,4.1338,4.1815,4.2146,4.2593,4.314,4.3397,4.3566,4.3611,4.3544,4.3499,4.3499,4.3499,4.3499,4.3499,4.3499,4.3566,4.3678,4.3971,4.4193,4.437,4.4681,4.4503,4.4193,4.4193,4.386,4.3499,4.3499,4.3499,4.3499,4.3499,4.3499,4.3499,4.3499,4.3499,4.3499,4.3499,4.3499,4.3499,4.3499,4.3499,4.3499,4.3499,4.3499,4.3499,4.3499,4.3499,4.3499,4.3499,4.3499,4.3499,4.3499,4.3499,4.3499,4.3499,4.3499,4.3499,4.3499,4.3499,4.3499,4.3499,4.3499,4.3499,4.3499,4.3499,4.3499,4.3499,4.3499,4.3499,4.3499,4.3499,4.3499,4.3499,4.3499,4.3499,4.3499,4.3499,4.3499,4.3499,4.3499,4.3499,4.3499,4.3499,4.3499,4.3499,4.0334,4.047,4.0627,4.1016,4.1504,4.1933,4.2265,4.2754,4.3223,4.3574,4.3672,4.3711,4.3711,4.3711,4.3711,4.3711,4.3711,4.3546,4.3213,4.313,4.2881,4.2423,4.1944,4.1674,4.1612,4.1273,4.1102,4.1102,4.1102,4.1102,4.1102,4.1102,4.1506,4.2219,4.2274,4.2933,4.4008,4.3641,4.3745,4.406,4.3655,4.3499,4.3499,4.3499,4.3499,4.3499,4.3499,4.3767,4.4038,4.3722,4.4126,4.4747,4.4393,4.4237,4.4193,4.4193,4.386,4.3499,4.3499,4.3499,4.3499,4.3499,4.3499,4.3499,4.3499,4.3499,4.3499,4.3499,4.3499,4.3499,4.3499,4.3499,4.3499,4.3499,4.3499,4.3499,4.3499,4.3499,4.3499,4.3499,4.3499,4.3499,4.3499,4.3499,4.3499,4.3499,4.3499,4.3499,4.3499,4.3499,4.3499,4.3499,4.3499,4.3499,4.3499,4.3499,4.3499,4.3499,4.3499,4.3499,4.3499,4.3499,4.3499,4.3499,4.3499,4.3499,4.3499,4.3499,4.3499,4.3499,4.3499,4.3499,4.3499,4.3499,4.3499,4.3499,4.0802,4.1074,4.1288,4.1504,4.207,4.2598,4.2754,4.3144,4.3496,4.3691,4.3711,4.3711,4.3711,4.3711,4.3711,4.3711,4.3711,4.3628,4.3442,4.3442,4.3131,4.2423,4.2214,4.1861,4.1378,4.1187,4.1102,4.1102,4.1102,4.1102,4.1102,4.132,4.1892,4.2682,4.2944,4.3612,4.457,4.4082,4.3993,4.4149,4.37,4.3499,4.3499,4.3499,4.3499,4.3544,4.3811,4.4015,4.4193,4.426,4.4548,4.4857,4.4658,4.4415,4.4193,4.4193,4.386,4.3499,4.3499,4.3499,4.3499,4.3499,4.3499,4.3499,4.3499,4.3499,4.3499,4.3499,4.3499,4.3499,4.3499,4.3499,4.3499,4.3499,4.3499,4.3499,4.3499,4.3499,4.3499,4.3499,4.3499,4.3499,4.3499,4.3499,4.3499,4.3499,4.3499,4.3499,4.3499,4.3499,4.3499,4.3499,4.3499,4.3499,4.3499,4.3499,4.3499,4.3499,4.3499,4.3499,4.3499,4.3499,4.3499,4.3499,4.3499,4.3499,4.3499,4.3499,4.3499,4.3499,4.3499,4.3499,4.3499,4.3499,4.3499,4.3499]}]]